GEFSMA_prec_meanprecacc_060.txt.gz
Total_Precipitation_Accumulation
0.74 0.71 0.70 0.69 0.65 0.84 1.12 1.27 1.21 1.24 1.21 1.14 1.02 0.89 0.77 0.74 0.72 0.77 0.83 1.00 1.13 1.11 1.10 1.08 0.95 0.78 0.67 0.58 0.51 0.51 0.54 0.58 0.53 0.45 0.41 0.33 0.28 0.30 0.34 0.39 0.39 0.37 0.35
1.18 1.27 1.20 1.14 0.90 0.92 1.03 1.30 1.42 1.61 1.49 1.38 0.94 0.85 0.86 0.90 0.95 0.93 0.96 1.34 1.46 1.16 1.03 0.97 0.93 0.85 0.74 0.63 0.53 0.48 0.47 0.47 0.44 0.37 0.36 0.33 0.27 0.25 0.32 0.41 0.42 0.35 0.25
1.59 1.61 1.41 1.16 1.04 1.18 1.28 1.23 1.25 1.52 1.29 1.15 0.97 1.05 1.10 1.02 0.99 0.97 0.97 1.22 1.33 1.07 0.84 0.74 0.77 0.75 0.75 0.74 0.69 0.66 0.56 0.48 0.41 0.35 0.32 0.28 0.25 0.22 0.23 0.33 0.41 0.37 0.27
1.55 1.55 1.22 0.92 1.06 1.30 1.38 1.33 1.27 1.33 1.29 1.32 1.30 1.27 1.25 1.11 0.89 0.81 0.70 0.67 0.75 0.66 0.68 0.77 0.69 0.60 0.70 0.83 0.90 0.99 0.87 0.66 0.48 0.37 0.33 0.29 0.24 0.19 0.17 0.22 0.29 0.31 0.27
1.21 1.29 1.00 0.86 1.04 1.20 1.22 1.19 1.32 1.42 1.31 1.35 1.41 1.27 1.01 0.86 0.71 0.60 0.52 0.43 0.41 0.41 0.39 0.53 0.51 0.50 0.68 0.88 1.06 1.17 1.15 0.95 0.73 0.57 0.45 0.36 0.29 0.21 0.17 0.16 0.18 0.23 0.22
1.03 1.19 1.07 0.96 1.09 1.17 1.10 1.23 1.34 1.42 1.22 1.18 1.16 0.89 0.71 0.51 0.45 0.38 0.30 0.29 0.28 0.25 0.29 0.36 0.48 0.42 0.59 0.79 0.96 1.14 1.32 1.21 0.89 0.70 0.63 0.55 0.46 0.32 0.20 0.15 0.15 0.18 0.17
1.00 1.14 1.04 0.95 0.94 0.96 0.93 1.07 1.18 1.17 0.97 1.17 1.30 0.84 0.56 0.42 0.34 0.24 0.20 0.19 0.19 0.21 0.28 0.38 0.48 0.46 0.58 0.67 0.81 0.95 1.26 1.32 1.05 0.82 0.73 0.65 0.60 0.44 0.27 0.20 0.16 0.14 0.13
0.86 0.93 0.90 0.81 0.76 0.78 0.77 0.85 0.97 0.98 0.87 1.14 1.25 1.09 0.74 0.53 0.40 0.25 0.21 0.20 0.21 0.25 0.30 0.34 0.49 0.58 0.65 0.84 0.81 0.73 0.89 1.17 1.20 1.05 0.93 0.74 0.63 0.51 0.37 0.29 0.21 0.16 0.12
0.59 0.59 0.59 0.64 0.67 0.68 0.69 0.75 0.90 1.01 0.89 0.92 1.13 1.23 0.94 0.62 0.54 0.40 0.37 0.38 0.38 0.42 0.45 0.54 0.63 0.67 0.73 0.87 0.87 0.85 0.74 0.85 1.13 1.32 1.25 0.95 0.67 0.57 0.54 0.52 0.45 0.31 0.24
0.42 0.41 0.43 0.53 0.60 0.66 0.70 0.65 0.70 0.85 0.90 0.82 0.92 1.01 1.00 0.98 0.90 0.63 0.46 0.40 0.44 0.45 0.47 0.52 0.58 0.66 0.68 0.82 1.08 1.11 0.98 0.84 0.84 1.10 1.27 1.23 0.99 0.70 0.58 0.60 0.78 0.72 0.49
0.41 0.38 0.37 0.39 0.49 0.57 0.64 0.65 0.67 0.72 0.79 0.77 0.79 0.83 0.89 0.97 0.93 0.82 0.58 0.43 0.43 0.41 0.47 0.51 0.57 0.62 0.65 0.81 1.11 1.16 1.16 0.95 0.83 0.82 0.95 1.04 0.98 0.82 0.71 0.77 1.11 1.39 1.25
0.38 0.38 0.38 0.40 0.42 0.43 0.46 0.53 0.59 0.63 0.69 0.70 0.71 0.78 0.86 0.83 0.81 0.89 0.75 0.60 0.54 0.48 0.55 0.60 0.69 0.76 0.76 0.80 0.79 0.85 0.83 0.83 0.77 0.70 0.64 0.64 0.71 0.78 0.82 1.01 1.36 1.68 1.83
0.31 0.35 0.37 0.41 0.47 0.47 0.48 0.49 0.54 0.61 0.68 0.72 0.71 0.75 0.83 0.86 0.86 0.91 0.86 0.71 0.66 0.70 0.78 0.79 0.74 0.76 0.72 0.84 0.76 0.62 0.50 0.50 0.47 0.44 0.43 0.45 0.53 0.64 0.73 0.81 0.98 1.21 1.44
0.27 0.33 0.39 0.42 0.45 0.50 0.53 0.59 0.63 0.68 0.73 0.75 0.74 0.84 0.89 0.87 0.95 0.99 1.01 0.99 0.89 0.90 1.01 0.88 0.68 0.61 0.59 0.59 0.52 0.47 0.51 0.39 0.31 0.25 0.23 0.25 0.29 0.35 0.45 0.56 0.69 0.81 0.93
0.23 0.24 0.31 0.42 0.43 0.46 0.53 0.62 0.67 0.72 0.77 0.82 0.86 0.95 1.01 1.01 1.01 1.00 1.09 1.14 1.12 1.08 1.13 1.00 0.79 0.67 0.56 0.46 0.39 0.40 0.45 0.45 0.31 0.19 0.14 0.13 0.17 0.22 0.25 0.29 0.37 0.47 0.58
0.20 0.20 0.24 0.32 0.35 0.38 0.47 0.59 0.67 0.74 0.85 0.93 0.93 0.96 1.04 1.09 1.13 1.13 1.13 1.16 1.23 1.26 1.21 0.95 0.81 0.74 0.62 0.42 0.35 0.31 0.29 0.33 0.24 0.16 0.11 0.10 0.11 0.13 0.17 0.22 0.27 0.29 0.35
0.17 0.16 0.17 0.18 0.20 0.23 0.31 0.47 0.68 0.79 0.90 0.95 0.97 1.02 1.05 1.12 1.14 1.08 1.12 1.16 1.22 1.28 1.11 0.89 0.89 0.95 0.80 0.57 0.41 0.32 0.22 0.20 0.20 0.18 0.11 0.09 0.08 0.09 0.12 0.15 0.18 0.22 0.24
0.18 0.15 0.14 0.13 0.12 0.15 0.23 0.39 0.56 0.72 0.86 0.98 1.01 1.01 0.92 0.92 1.00 1.05 1.09 1.12 1.12 1.20 1.10 0.98 0.93 0.97 0.89 0.75 0.57 0.38 0.22 0.15 0.16 0.21 0.13 0.09 0.08 0.09 0.11 0.11 0.10 0.13 0.17
0.24 0.20 0.18 0.17 0.21 0.26 0.34 0.43 0.49 0.61 0.76 0.85 0.88 0.86 0.83 0.85 0.86 0.94 1.00 1.03 1.02 1.01 1.02 1.00 0.96 1.01 0.99 0.83 0.59 0.43 0.28 0.21 0.18 0.17 0.13 0.12 0.12 0.12 0.15 0.13 0.09 0.10 0.14
0.22 0.21 0.20 0.25 0.31 0.38 0.41 0.41 0.43 0.50 0.56 0.62 0.67 0.66 0.65 0.70 0.75 0.79 0.82 0.84 0.89 0.92 0.92 0.91 0.95 0.99 0.96 0.95 0.70 0.46 0.32 0.23 0.20 0.17 0.17 0.21 0.25 0.23 0.22 0.18 0.12 0.10 0.11
0.13 0.17 0.22 0.27 0.33 0.36 0.34 0.37 0.41 0.38 0.44 0.44 0.42 0.44 0.47 0.51 0.58 0.66 0.69 0.71 0.75 0.79 0.83 0.87 0.89 0.96 0.92 0.92 0.78 0.54 0.37 0.28 0.23 0.20 0.21 0.26 0.29 0.26 0.24 0.21 0.17 0.11 0.07
0.13 0.18 0.22 0.24 0.26 0.24 0.25 0.26 0.27 0.26 0.29 0.34 0.34 0.32 0.30 0.37 0.44 0.50 0.56 0.60 0.66 0.70 0.76 0.82 0.86 0.88 0.86 0.79 0.72 0.61 0.48 0.30 0.21 0.24 0.33 0.35 0.27 0.28 0.47 0.47 0.31 0.13 0.05
0.17 0.22 0.24 0.25 0.27 0.28 0.18 0.13 0.11 0.16 0.22 0.29 0.34 0.35 0.26 0.21 0.28 0.35 0.42 0.45 0.49 0.54 0.64 0.75 0.80 0.83 0.86 0.80 0.72 0.61 0.55 0.43 0.26 0.16 0.16 0.14 0.11 0.19 0.50 0.68 0.42 0.17 0.09
0.26 0.31 0.31 0.31 0.35 0.32 0.21 0.12 0.09 0.11 0.19 0.26 0.31 0.33 0.30 0.24 0.25 0.28 0.35 0.37 0.36 0.35 0.43 0.53 0.63 0.79 0.96 1.00 0.86 0.73 0.64 0.54 0.39 0.20 0.10 0.09 0.09 0.12 0.18 0.28 0.31 0.17 0.09
0.38 0.39 0.40 0.40 0.42 0.41 0.29 0.17 0.13 0.17 0.25 0.28 0.31 0.31 0.30 0.26 0.21 0.21 0.29 0.34 0.36 0.34 0.36 0.44 0.54 0.71 0.88 1.04 1.03 0.85 0.70 0.51 0.35 0.21 0.10 0.10 0.11 0.12 0.12 0.13 0.18 0.24 0.17
0.54 0.54 0.51 0.48 0.50 0.53 0.44 0.23 0.18 0.24 0.34 0.37 0.41 0.40 0.34 0.31 0.25 0.18 0.23 0.28 0.30 0.32 0.31 0.30 0.36 0.47 0.62 0.81 0.92 0.81 0.64 0.50 0.32 0.19 0.09 0.08 0.11 0.10 0.11 0.10 0.10 0.14 0.22

GEFSMA_prec_meanprecacc_066.txt.gz
Total_Precipitation_Accumulation
0.91 0.88 0.84 0.82 0.75 0.92 1.23 1.43 1.39 1.43 1.40 1.31 1.16 1.01 0.86 0.81 0.76 0.80 0.86 1.05 1.18 1.17 1.20 1.24 1.12 0.94 0.82 0.71 0.61 0.57 0.58 0.61 0.55 0.46 0.42 0.33 0.28 0.31 0.35 0.39 0.39 0.38 0.36
1.40 1.45 1.38 1.28 1.02 1.01 1.10 1.40 1.54 1.72 1.61 1.50 1.05 0.98 1.00 1.02 1.04 1.00 1.01 1.42 1.56 1.25 1.12 1.11 1.13 1.06 0.94 0.79 0.67 0.58 0.54 0.52 0.47 0.39 0.39 0.35 0.28 0.27 0.34 0.41 0.42 0.35 0.26
1.76 1.76 1.52 1.25 1.10 1.22 1.32 1.28 1.30 1.59 1.39 1.25 1.08 1.17 1.22 1.15 1.10 1.06 1.05 1.30 1.42 1.17 0.94 0.86 0.92 0.94 0.96 0.96 0.85 0.77 0.65 0.55 0.47 0.40 0.36 0.31 0.27 0.24 0.25 0.34 0.43 0.38 0.28
1.64 1.65 1.29 0.96 1.08 1.32 1.41 1.35 1.30 1.37 1.34 1.40 1.39 1.36 1.33 1.19 0.98 0.90 0.78 0.75 0.84 0.75 0.79 0.89 0.83 0.78 0.89 1.03 1.09 1.15 0.99 0.75 0.55 0.44 0.39 0.33 0.28 0.22 0.20 0.24 0.32 0.33 0.28
1.28 1.35 1.05 0.89 1.07 1.22 1.24 1.20 1.33 1.44 1.32 1.38 1.45 1.32 1.08 0.93 0.76 0.66 0.59 0.50 0.48 0.50 0.50 0.65 0.69 0.72 0.90 1.13 1.31 1.40 1.32 1.06 0.81 0.64 0.51 0.41 0.34 0.25 0.21 0.19 0.22 0.25 0.23
1.05 1.21 1.09 0.98 1.11 1.18 1.12 1.25 1.35 1.43 1.24 1.21 1.19 0.93 0.75 0.55 0.49 0.42 0.34 0.34 0.33 0.32 0.38 0.48 0.63 0.60 0.82 1.02 1.22 1.42 1.56 1.39 0.99 0.78 0.70 0.62 0.53 0.38 0.25 0.20 0.19 0.21 0.19
1.01 1.15 1.05 0.96 0.95 0.97 0.93 1.08 1.19 1.18 0.97 1.18 1.32 0.87 0.59 0.46 0.37 0.26 0.22 0.23 0.23 0.25 0.35 0.47 0.59 0.59 0.73 0.83 0.98 1.18 1.51 1.56 1.23 0.93 0.81 0.72 0.67 0.51 0.32 0.24 0.20 0.18 0.17
0.86 0.93 0.90 0.81 0.77 0.78 0.78 0.85 0.98 0.98 0.87 1.14 1.27 1.11 0.77 0.56 0.43 0.27 0.24 0.23 0.23 0.30 0.35 0.40 0.56 0.67 0.75 0.97 0.92 0.86 1.08 1.38 1.40 1.22 1.04 0.81 0.70 0.56 0.41 0.33 0.25 0.19 0.15
0.59 0.59 0.59 0.64 0.68 0.68 0.69 0.75 0.90 1.02 0.89 0.92 1.15 1.25 0.97 0.65 0.56 0.43 0.41 0.42 0.41 0.46 0.50 0.60 0.69 0.73 0.80 0.96 0.97 0.97 0.89 1.00 1.29 1.50 1.40 1.05 0.72 0.60 0.57 0.56 0.49 0.34 0.26
0.42 0.41 0.43 0.53 0.60 0.66 0.70 0.65 0.70 0.85 0.90 0.83 0.92 1.03 1.04 1.02 0.94 0.66 0.49 0.45 0.49 0.50 0.52 0.58 0.63 0.71 0.73 0.87 1.13 1.19 1.08 0.95 0.95 1.26 1.45 1.36 1.06 0.74 0.60 0.64 0.85 0.78 0.53
0.41 0.38 0.37 0.39 0.49 0.57 0.64 0.66 0.67 0.72 0.79 0.77 0.79 0.84 0.91 0.99 0.97 0.88 0.64 0.47 0.47 0.47 0.53 0.58 0.63 0.67 0.70 0.86 1.15 1.20 1.21 1.02 0.90 0.91 1.07 1.16 1.07 0.88 0.74 0.82 1.20 1.50 1.32
0.38 0.38 0.38 0.40 0.42 0.43 0.46 0.53 0.59 0.64 0.69 0.71 0.71 0.78 0.87 0.85 0.85 0.94 0.81 0.64 0.58 0.53 0.61 0.67 0.76 0.82 0.81 0.84 0.83 0.89 0.86 0.87 0.81 0.74 0.70 0.72 0.80 0.86 0.88 1.06 1.44 1.78 1.93
0.31 0.35 0.37 0.41 0.47 0.47 0.48 0.49 0.55 0.61 0.68 0.72 0.71 0.75 0.84 0.88 0.88 0.96 0.92 0.76 0.70 0.74 0.83 0.85 0.80 0.83 0.79 0.90 0.81 0.67 0.54 0.55 0.51 0.48 0.47 0.50 0.59 0.70 0.78 0.85 1.04 1.29 1.52
0.27 0.33 0.39 0.42 0.45 0.50 0.53 0.59 0.63 0.68 0.73 0.75 0.74 0.84 0.90 0.88 0.96 1.02 1.07 1.08 0.96 0.96 1.07 0.95 0.74 0.69 0.68 0.67 0.59 0.55 0.56 0.44 0.35 0.29 0.27 0.28 0.32 0.38 0.48 0.59 0.71 0.83 0.97
0.23 0.24 0.31 0.42 0.43 0.46 0.53 0.62 0.67 0.72 0.77 0.82 0.86 0.95 1.01 1.01 1.01 1.01 1.13 1.23 1.24 1.19 1.22 1.08 0.88 0.76 0.66 0.56 0.49 0.50 0.52 0.52 0.36 0.23 0.18 0.16 0.19 0.23 0.27 0.31 0.38 0.48 0.59
0.20 0.20 0.24 0.32 0.35 0.38 0.47 0.59 0.67 0.74 0.85 0.93 0.93 0.96 1.04 1.09 1.13 1.14 1.15 1.22 1.33 1.40 1.34 1.07 0.94 0.85 0.72 0.53 0.46 0.40 0.37 0.41 0.30 0.20 0.15 0.13 0.13 0.14 0.18 0.23 0.28 0.30 0.35
0.17 0.16 0.17 0.18 0.20 0.23 0.31 0.47 0.68 0.79 0.90 0.95 0.97 1.02 1.05 1.12 1.14 1.08 1.14 1.19 1.28 1.39 1.25 1.03 1.05 1.11 0.94 0.69 0.51 0.42 0.30 0.26 0.25 0.22 0.14 0.12 0.10 0.10 0.13 0.16 0.19 0.23 0.25
0.18 0.15 0.14 0.13 0.12 0.15 0.23 0.39 0.56 0.72 0.86 0.98 1.01 1.01 0.92 0.92 1.00 1.06 1.10 1.15 1.18 1.28 1.22 1.13 1.09 1.15 1.05 0.88 0.68 0.47 0.30 0.20 0.20 0.24 0.15 0.11 0.10 0.10 0.12 0.12 0.10 0.13 0.18
0.24 0.20 0.18 0.17 0.21 0.26 0.34 0.43 0.49 0.61 0.76 0.85 0.88 0.86 0.83 0.85 0.86 0.95 1.00 1.04 1.06 1.08 1.12 1.13 1.14 1.23 1.20 0.98 0.72 0.53 0.36 0.27 0.22 0.20 0.15 0.13 0.13 0.13 0.16 0.13 0.09 0.11 0.14
0.22 0.21 0.20 0.25 0.31 0.38 0.41 0.41 0.43 0.50 0.56 0.62 0.67 0.66 0.65 0.70 0.75 0.79 0.82 0.85 0.92 0.97 1.01 1.04 1.12 1.23 1.23 1.16 0.86 0.60 0.41 0.29 0.24 0.19 0.19 0.23 0.26 0.25 0.23 0.19 0.13 0.11 0.12
0.13 0.17 0.22 0.27 0.33 0.36 0.34 0.37 0.41 0.38 0.44 0.44 0.42 0.44 0.47 0.51 0.58 0.66 0.69 0.72 0.78 0.83 0.90 0.98 1.07 1.21 1.22 1.19 0.97 0.69 0.49 0.36 0.28 0.22 0.22 0.27 0.30 0.27 0.24 0.22 0.18 0.12 0.08
0.13 0.18 0.22 0.24 0.26 0.24 0.25 0.26 0.27 0.26 0.29 0.34 0.34 0.32 0.30 0.37 0.44 0.50 0.56 0.61 0.69 0.74 0.81 0.90 1.00 1.10 1.16 1.09 0.97 0.82 0.65 0.42 0.28 0.26 0.34 0.37 0.28 0.29 0.47 0.48 0.32 0.14 0.06
0.17 0.22 0.24 0.25 0.27 0.28 0.18 0.13 0.11 0.16 0.22 0.29 0.34 0.35 0.26 0.21 0.28 0.35 0.42 0.46 0.51 0.58 0.70 0.81 0.89 0.99 1.11 1.11 1.05 0.89 0.78 0.61 0.36 0.21 0.18 0.15 0.13 0.20 0.51 0.69 0.43 0.18 0.10
0.26 0.31 0.31 0.31 0.35 0.32 0.21 0.12 0.09 0.11 0.19 0.26 0.31 0.33 0.30 0.24 0.25 0.29 0.36 0.38 0.38 0.39 0.48 0.61 0.70 0.89 1.17 1.29 1.20 1.12 0.97 0.83 0.62 0.31 0.15 0.12 0.11 0.14 0.19 0.29 0.32 0.19 0.10
0.38 0.39 0.40 0.40 0.42 0.41 0.29 0.17 0.13 0.17 0.25 0.29 0.31 0.32 0.31 0.26 0.21 0.22 0.29 0.35 0.38 0.37 0.42 0.54 0.64 0.81 1.03 1.32 1.38 1.26 1.15 0.90 0.66 0.39 0.17 0.13 0.13 0.13 0.14 0.14 0.20 0.25 0.18
0.54 0.54 0.51 0.49 0.50 0.53 0.44 0.24 0.19 0.26 0.35 0.38 0.43 0.41 0.36 0.33 0.26 0.19 0.24 0.29 0.31 0.34 0.36 0.39 0.49 0.59 0.75 1.00 1.22 1.14 1.00 0.88 0.62 0.40 0.18 0.12 0.13 0.11 0.12 0.11 0.11 0.15 0.22

GEFSMA_prec_meanprecacc_072.txt.gz
Total_Precipitation_Accumulation
1.18 1.16 1.09 1.03 0.95 1.10 1.40 1.60 1.57 1.62 1.59 1.50 1.33 1.15 0.98 0.93 0.87 0.93 0.96 1.11 1.22 1.20 1.24 1.30 1.21 1.08 0.99 0.88 0.75 0.66 0.65 0.65 0.60 0.50 0.46 0.37 0.31 0.32 0.35 0.40 0.40 0.38 0.37
1.68 1.75 1.64 1.48 1.20 1.19 1.27 1.55 1.68 1.87 1.78 1.64 1.16 1.08 1.11 1.14 1.14 1.10 1.11 1.52 1.63 1.30 1.16 1.15 1.18 1.14 1.07 0.96 0.83 0.71 0.65 0.60 0.53 0.43 0.42 0.38 0.31 0.29 0.35 0.42 0.43 0.36 0.26
1.93 1.93 1.68 1.37 1.21 1.34 1.42 1.35 1.37 1.66 1.48 1.35 1.17 1.26 1.29 1.23 1.18 1.14 1.14 1.39 1.50 1.24 0.99 0.90 0.96 1.00 1.05 1.09 0.98 0.92 0.81 0.69 0.56 0.46 0.40 0.34 0.30 0.27 0.28 0.36 0.44 0.39 0.29
1.74 1.74 1.38 1.03 1.14 1.37 1.45 1.39 1.33 1.41 1.38 1.44 1.44 1.43 1.40 1.25 1.03 0.96 0.85 0.80 0.90 0.81 0.84 0.95 0.88 0.83 0.96 1.12 1.24 1.33 1.17 0.90 0.67 0.52 0.45 0.37 0.30 0.25 0.23 0.27 0.33 0.34 0.28
1.32 1.40 1.10 0.94 1.11 1.26 1.28 1.25 1.37 1.46 1.34 1.41 1.47 1.35 1.11 0.96 0.80 0.69 0.63 0.55 0.53 0.53 0.54 0.70 0.75 0.79 0.97 1.22 1.44 1.59 1.54 1.26 0.97 0.75 0.60 0.47 0.38 0.28 0.24 0.22 0.24 0.27 0.24
1.08 1.24 1.12 1.00 1.13 1.21 1.14 1.28 1.38 1.46 1.26 1.23 1.21 0.96 0.77 0.57 0.52 0.46 0.37 0.38 0.38 0.35 0.41 0.52 0.70 0.66 0.87 1.11 1.36 1.61 1.79 1.61 1.19 0.93 0.82 0.71 0.59 0.42 0.27 0.21 0.21 0.23 0.21
1.03 1.17 1.07 0.98 0.97 0.99 0.95 1.10 1.21 1.20 0.99 1.20 1.34 0.88 0.60 0.47 0.39 0.29 0.25 0.26 0.26 0.29 0.40 0.52 0.65 0.66 0.78 0.90 1.09 1.31 1.69 1.78 1.46 1.12 0.97 0.84 0.75 0.56 0.35 0.27 0.22 0.18 0.17
0.86 0.94 0.91 0.82 0.78 0.80 0.79 0.87 1.00 1.00 0.88 1.16 1.29 1.13 0.79 0.58 0.46 0.30 0.27 0.26 0.27 0.35 0.41 0.46 0.62 0.74 0.82 1.06 1.01 0.97 1.21 1.54 1.61 1.44 1.24 0.96 0.80 0.63 0.45 0.36 0.26 0.20 0.16
0.59 0.59 0.60 0.64 0.68 0.69 0.70 0.76 0.91 1.03 0.90 0.93 1.16 1.27 1.00 0.68 0.59 0.46 0.45 0.47 0.47 0.52 0.57 0.67 0.76 0.82 0.89 1.05 1.07 1.05 0.99 1.11 1.44 1.68 1.60 1.23 0.85 0.69 0.62 0.59 0.51 0.35 0.27
0.42 0.41 0.43 0.53 0.60 0.66 0.70 0.65 0.70 0.86 0.91 0.83 0.93 1.04 1.06 1.06 0.98 0.70 0.52 0.49 0.54 0.55 0.57 0.62 0.70 0.78 0.82 0.97 1.23 1.26 1.14 1.03 1.06 1.41 1.63 1.54 1.21 0.83 0.66 0.69 0.89 0.81 0.54
0.41 0.38 0.37 0.39 0.49 0.57 0.64 0.66 0.68 0.73 0.80 0.78 0.79 0.85 0.92 1.01 1.00 0.91 0.67 0.51 0.51 0.50 0.57 0.61 0.68 0.73 0.77 0.95 1.26 1.29 1.28 1.09 0.99 1.03 1.23 1.34 1.25 1.02 0.83 0.88 1.27 1.55 1.35
0.38 0.38 0.38 0.40 0.42 0.43 0.46 0.53 0.59 0.64 0.69 0.72 0.72 0.79 0.88 0.86 0.86 0.96 0.84 0.67 0.62 0.57 0.65 0.71 0.81 0.89 0.89 0.94 0.91 0.97 0.93 0.94 0.89 0.83 0.80 0.84 0.94 1.01 1.01 1.17 1.54 1.88 2.01
0.31 0.35 0.37 0.41 0.47 0.47 0.48 0.49 0.55 0.62 0.68 0.73 0.72 0.76 0.85 0.89 0.89 0.98 0.94 0.78 0.72 0.76 0.86 0.88 0.85 0.91 0.86 0.99 0.92 0.76 0.63 0.62 0.58 0.55 0.54 0.58 0.68 0.80 0.89 0.95 1.14 1.39 1.62
0.27 0.34 0.39 0.42 0.45 0.51 0.53 0.60 0.63 0.68 0.73 0.76 0.74 0.85 0.91 0.88 0.97 1.03 1.08 1.10 0.99 0.98 1.11 0.99 0.79 0.75 0.76 0.77 0.71 0.65 0.66 0.53 0.43 0.37 0.34 0.34 0.38 0.44 0.54 0.65 0.77 0.90 1.03
0.23 0.24 0.31 0.42 0.44 0.46 0.54 0.63 0.68 0.72 0.78 0.83 0.87 0.96 1.02 1.02 1.02 1.02 1.14 1.25 1.27 1.22 1.26 1.14 0.95 0.83 0.73 0.64 0.62 0.60 0.63 0.62 0.44 0.30 0.25 0.23 0.25 0.29 0.32 0.34 0.41 0.51 0.62
0.20 0.20 0.24 0.32 0.35 0.38 0.47 0.60 0.68 0.75 0.86 0.94 0.94 0.97 1.05 1.10 1.14 1.15 1.16 1.24 1.36 1.43 1.38 1.12 1.02 0.94 0.80 0.60 0.55 0.50 0.48 0.54 0.41 0.28 0.21 0.20 0.19 0.20 0.23 0.26 0.30 0.32 0.37
0.17 0.16 0.17 0.19 0.20 0.23 0.32 0.48 0.68 0.80 0.91 0.96 0.98 1.03 1.06 1.13 1.16 1.09 1.15 1.20 1.30 1.42 1.28 1.06 1.11 1.20 1.05 0.79 0.61 0.51 0.41 0.40 0.38 0.33 0.22 0.18 0.17 0.16 0.17 0.20 0.22 0.25 0.27
0.18 0.15 0.14 0.13 0.12 0.15 0.24 0.40 0.57 0.73 0.87 0.99 1.02 1.02 0.93 0.93 1.02 1.07 1.12 1.16 1.19 1.31 1.25 1.17 1.15 1.24 1.19 1.02 0.82 0.60 0.43 0.35 0.32 0.37 0.26 0.18 0.16 0.16 0.17 0.16 0.14 0.16 0.20
0.24 0.21 0.18 0.17 0.21 0.27 0.34 0.44 0.50 0.62 0.77 0.86 0.89 0.87 0.84 0.87 0.88 0.97 1.02 1.06 1.08 1.10 1.15 1.16 1.19 1.30 1.32 1.15 0.91 0.70 0.51 0.43 0.39 0.36 0.29 0.25 0.22 0.20 0.21 0.18 0.12 0.13 0.16
0.22 0.21 0.21 0.25 0.31 0.38 0.41 0.41 0.44 0.51 0.57 0.64 0.69 0.67 0.67 0.72 0.77 0.82 0.85 0.88 0.94 1.00 1.04 1.07 1.16 1.30 1.33 1.31 1.07 0.82 0.61 0.46 0.41 0.37 0.35 0.37 0.38 0.34 0.30 0.24 0.16 0.13 0.14
0.13 0.18 0.23 0.27 0.33 0.36 0.35 0.38 0.42 0.39 0.46 0.46 0.43 0.46 0.48 0.52 0.59 0.68 0.71 0.74 0.81 0.86 0.93 1.01 1.11 1.27 1.30 1.33 1.16 0.91 0.73 0.58 0.46 0.39 0.39 0.41 0.40 0.35 0.31 0.28 0.22 0.15 0.10
0.13 0.18 0.22 0.25 0.26 0.24 0.25 0.26 0.27 0.27 0.31 0.36 0.36 0.34 0.32 0.39 0.45 0.50 0.56 0.62 0.70 0.77 0.85 0.93 1.04 1.16 1.24 1.21 1.14 1.05 0.90 0.70 0.50 0.43 0.49 0.52 0.40 0.38 0.54 0.52 0.35 0.17 0.08
0.17 0.22 0.25 0.26 0.27 0.29 0.18 0.13 0.11 0.16 0.23 0.31 0.36 0.38 0.28 0.22 0.29 0.37 0.44 0.47 0.51 0.59 0.71 0.84 0.93 1.04 1.19 1.23 1.22 1.14 1.05 0.87 0.63 0.42 0.34 0.30 0.26 0.30 0.58 0.75 0.48 0.21 0.12
0.27 0.31 0.31 0.32 0.36 0.33 0.21 0.12 0.09 0.11 0.20 0.27 0.33 0.36 0.33 0.27 0.28 0.32 0.41 0.43 0.42 0.41 0.49 0.62 0.73 0.93 1.23 1.41 1.38 1.36 1.30 1.18 0.94 0.61 0.40 0.30 0.23 0.22 0.26 0.34 0.37 0.22 0.12
0.39 0.39 0.40 0.41 0.43 0.42 0.29 0.17 0.14 0.17 0.26 0.30 0.33 0.34 0.34 0.30 0.24 0.23 0.32 0.40 0.43 0.43 0.44 0.55 0.66 0.83 1.06 1.37 1.51 1.49 1.49 1.29 1.05 0.75 0.45 0.34 0.26 0.22 0.21 0.19 0.24 0.29 0.21
0.54 0.54 0.51 0.49 0.51 0.54 0.44 0.24 0.19 0.26 0.37 0.40 0.45 0.44 0.38 0.35 0.29 0.20 0.27 0.34 0.38 0.40 0.42 0.44 0.51 0.60 0.76 1.03 1.29 1.28 1.24 1.22 0.97 0.75 0.46 0.31 0.27 0.21 0.19 0.17 0.14 0.18 0.24

GEFSMA_prec_meanprecacc_078.txt.gz
Total_Precipitation_Accumulation
1.37 1.34 1.25 1.18 1.10 1.28 1.60 1.82 1.77 1.81 1.77 1.66 1.47 1.29 1.10 1.05 0.98 1.02 1.13 1.32 1.34 1.29 1.30 1.36 1.25 1.12 1.03 0.93 0.81 0.71 0.68 0.69 0.63 0.52 0.47 0.39 0.33 0.34 0.36 0.40 0.40 0.39 0.37
1.87 1.94 1.82 1.67 1.40 1.38 1.48 1.81 1.93 2.07 1.96 1.81 1.29 1.22 1.22 1.27 1.27 1.22 1.23 1.69 1.74 1.37 1.21 1.20 1.22 1.18 1.11 1.02 0.88 0.77 0.71 0.64 0.56 0.46 0.43 0.40 0.33 0.30 0.36 0.43 0.43 0.36 0.27
2.06 2.07 1.82 1.52 1.36 1.48 1.56 1.51 1.52 1.81 1.60 1.47 1.28 1.37 1.40 1.33 1.28 1.26 1.24 1.51 1.61 1.31 1.05 0.95 1.00 1.04 1.09 1.14 1.03 0.97 0.86 0.74 0.61 0.49 0.42 0.35 0.31 0.28 0.29 0.36 0.44 0.39 0.29
1.82 1.84 1.48 1.14 1.24 1.46 1.54 1.48 1.42 1.50 1.48 1.53 1.52 1.50 1.47 1.32 1.10 1.04 0.93 0.89 0.99 0.88 0.91 1.02 0.94 0.87 0.99 1.16 1.28 1.37 1.21 0.95 0.72 0.57 0.48 0.39 0.32 0.26 0.24 0.27 0.34 0.34 0.29
1.36 1.44 1.15 1.02 1.18 1.32 1.34 1.30 1.43 1.52 1.40 1.47 1.52 1.40 1.15 1.01 0.85 0.74 0.69 0.61 0.61 0.62 0.61 0.80 0.83 0.84 1.01 1.24 1.47 1.63 1.59 1.30 1.02 0.80 0.65 0.50 0.40 0.29 0.25 0.22 0.25 0.27 0.24
1.09 1.26 1.14 1.03 1.16 1.23 1.18 1.32 1.43 1.51 1.31 1.29 1.24 0.98 0.80 0.60 0.56 0.48 0.39 0.42 0.42 0.40 0.46 0.58 0.80 0.71 0.91 1.15 1.40 1.66 1.83 1.64 1.23 0.97 0.88 0.77 0.64 0.44 0.29 0.23 0.22 0.24 0.21
1.04 1.18 1.09 1.00 0.99 1.00 0.97 1.12 1.24 1.24 1.03 1.23 1.36 0.90 0.61 0.47 0.40 0.30 0.26 0.28 0.28 0.33 0.45 0.59 0.74 0.75 0.84 0.97 1.14 1.37 1.74 1.83 1.51 1.17 1.01 0.90 0.82 0.61 0.37 0.28 0.23 0.19 0.18
0.87 0.95 0.93 0.84 0.79 0.82 0.81 0.89 1.02 1.02 0.90 1.17 1.30 1.15 0.80 0.59 0.47 0.32 0.30 0.29 0.31 0.40 0.45 0.52 0.72 0.86 0.91 1.20 1.08 1.01 1.26 1.60 1.67 1.51 1.30 1.02 0.85 0.67 0.48 0.37 0.27 0.20 0.16
0.59 0.59 0.60 0.64 0.68 0.69 0.71 0.77 0.93 1.05 0.91 0.94 1.17 1.29 1.01 0.69 0.61 0.48 0.47 0.50 0.52 0.57 0.62 0.74 0.84 0.93 0.98 1.17 1.18 1.12 1.04 1.16 1.51 1.77 1.69 1.29 0.90 0.71 0.64 0.61 0.53 0.36 0.28
0.42 0.41 0.43 0.53 0.60 0.66 0.71 0.66 0.71 0.87 0.92 0.84 0.94 1.05 1.07 1.07 0.99 0.71 0.54 0.52 0.58 0.59 0.61 0.66 0.75 0.87 0.92 1.09 1.36 1.35 1.22 1.08 1.12 1.51 1.75 1.64 1.28 0.88 0.70 0.71 0.92 0.83 0.55
0.41 0.38 0.37 0.39 0.49 0.57 0.64 0.66 0.68 0.74 0.81 0.79 0.80 0.85 0.93 1.03 1.02 0.93 0.68 0.53 0.54 0.53 0.59 0.64 0.71 0.78 0.84 1.06 1.39 1.39 1.36 1.15 1.04 1.09 1.33 1.46 1.34 1.08 0.88 0.93 1.32 1.59 1.38
0.38 0.38 0.38 0.40 0.42 0.43 0.47 0.54 0.60 0.65 0.71 0.73 0.74 0.80 0.89 0.88 0.88 0.99 0.86 0.70 0.64 0.58 0.67 0.73 0.84 0.93 0.94 1.01 0.99 1.05 1.01 1.00 0.95 0.89 0.88 0.94 1.05 1.10 1.08 1.23 1.60 1.94 2.06
0.31 0.35 0.37 0.42 0.47 0.48 0.48 0.50 0.56 0.63 0.69 0.75 0.74 0.78 0.86 0.89 0.90 0.99 0.95 0.79 0.73 0.76 0.88 0.90 0.88 0.96 0.91 1.07 1.00 0.83 0.68 0.67 0.63 0.60 0.61 0.67 0.79 0.90 0.98 1.03 1.22 1.48 1.71
0.27 0.34 0.39 0.42 0.45 0.51 0.54 0.61 0.64 0.69 0.75 0.77 0.76 0.87 0.92 0.89 0.98 1.04 1.09 1.11 1.00 0.99 1.12 1.01 0.83 0.80 0.83 0.85 0.81 0.73 0.73 0.57 0.47 0.41 0.39 0.41 0.46 0.53 0.63 0.73 0.85 0.98 1.12
0.23 0.24 0.31 0.42 0.44 0.47 0.55 0.64 0.69 0.73 0.79 0.85 0.88 0.97 1.04 1.03 1.03 1.03 1.15 1.25 1.29 1.24 1.27 1.16 0.99 0.87 0.79 0.71 0.69 0.67 0.72 0.68 0.49 0.34 0.29 0.27 0.31 0.36 0.39 0.41 0.49 0.57 0.67
0.20 0.20 0.24 0.32 0.36 0.39 0.48 0.62 0.69 0.76 0.88 0.96 0.96 0.99 1.07 1.11 1.16 1.16 1.17 1.24 1.37 1.45 1.39 1.12 1.04 0.97 0.84 0.64 0.60 0.56 0.58 0.63 0.47 0.33 0.25 0.24 0.24 0.26 0.29 0.32 0.35 0.37 0.42
0.18 0.17 0.18 0.19 0.21 0.24 0.33 0.50 0.70 0.82 0.93 0.98 1.00 1.05 1.09 1.16 1.19 1.12 1.17 1.22 1.32 1.44 1.31 1.07 1.11 1.22 1.08 0.82 0.65 0.57 0.49 0.49 0.47 0.40 0.27 0.22 0.22 0.22 0.24 0.27 0.28 0.29 0.31
0.18 0.16 0.15 0.14 0.13 0.16 0.25 0.42 0.59 0.75 0.90 1.01 1.04 1.05 0.96 0.97 1.07 1.12 1.15 1.19 1.22 1.35 1.29 1.20 1.16 1.25 1.23 1.06 0.87 0.66 0.49 0.42 0.42 0.46 0.33 0.25 0.22 0.23 0.24 0.24 0.22 0.22 0.26
0.24 0.21 0.19 0.18 0.22 0.28 0.36 0.45 0.52 0.64 0.80 0.89 0.92 0.91 0.87 0.91 0.92 1.01 1.08 1.10 1.11 1.13 1.19 1.21 1.21 1.32 1.34 1.18 0.95 0.75 0.57 0.50 0.46 0.44 0.38 0.33 0.29 0.27 0.29 0.26 0.21 0.20 0.23
0.23 0.21 0.21 0.26 0.32 0.39 0.43 0.43 0.46 0.54 0.60 0.67 0.72 0.71 0.70 0.76 0.81 0.87 0.90 0.93 0.98 1.04 1.09 1.11 1.19 1.32 1.35 1.34 1.12 0.88 0.68 0.55 0.50 0.43 0.41 0.45 0.46 0.42 0.39 0.34 0.25 0.21 0.21
0.14 0.18 0.23 0.28 0.34 0.38 0.36 0.39 0.44 0.41 0.47 0.48 0.46 0.49 0.51 0.55 0.62 0.71 0.73 0.77 0.86 0.92 0.97 1.07 1.15 1.31 1.34 1.37 1.21 0.98 0.82 0.69 0.57 0.51 0.50 0.49 0.49 0.43 0.39 0.37 0.33 0.25 0.19
0.14 0.19 0.23 0.26 0.28 0.25 0.25 0.26 0.27 0.27 0.31 0.37 0.38 0.37 0.35 0.41 0.46 0.51 0.56 0.62 0.71 0.79 0.88 0.99 1.09 1.21 1.30 1.27 1.21 1.13 1.00 0.81 0.62 0.57 0.67 0.69 0.56 0.53 0.65 0.61 0.45 0.27 0.18
0.18 0.23 0.26 0.27 0.29 0.31 0.19 0.13 0.11 0.16 0.24 0.31 0.37 0.41 0.30 0.24 0.32 0.41 0.48 0.49 0.52 0.59 0.71 0.86 0.96 1.08 1.25 1.30 1.31 1.23 1.15 1.00 0.77 0.59 0.56 0.53 0.49 0.53 0.78 0.91 0.63 0.34 0.24
0.28 0.32 0.32 0.33 0.37 0.35 0.22 0.12 0.09 0.12 0.20 0.28 0.34 0.39 0.37 0.32 0.32 0.37 0.47 0.51 0.48 0.46 0.52 0.63 0.73 0.94 1.27 1.48 1.48 1.46 1.42 1.33 1.10 0.80 0.65 0.57 0.49 0.48 0.48 0.54 0.56 0.38 0.26
0.39 0.40 0.42 0.42 0.45 0.44 0.31 0.17 0.14 0.18 0.27 0.31 0.35 0.38 0.38 0.35 0.28 0.24 0.35 0.44 0.48 0.48 0.47 0.56 0.66 0.83 1.06 1.39 1.55 1.56 1.60 1.42 1.20 0.90 0.64 0.56 0.49 0.47 0.43 0.39 0.44 0.47 0.36
0.55 0.55 0.52 0.51 0.53 0.57 0.46 0.24 0.19 0.26 0.37 0.41 0.48 0.48 0.40 0.36 0.30 0.21 0.29 0.39 0.43 0.46 0.49 0.51 0.56 0.62 0.77 1.04 1.29 1.31 1.31 1.33 1.12 0.92 0.63 0.48 0.45 0.41 0.41 0.37 0.32 0.34 0.38

GEFSMA_prec_meanprecacc_084.txt.gz
Total_Precipitation_Accumulation
1.44 1.39 1.30 1.24 1.16 1.33 1.66 1.88 1.82 1.85 1.82 1.71 1.52 1.34 1.16 1.12 1.10 1.14 1.26 1.47 1.49 1.43 1.45 1.51 1.37 1.20 1.11 1.00 0.85 0.74 0.70 0.70 0.64 0.52 0.47 0.39 0.33 0.34 0.36 0.40 0.40 0.39 0.37
1.92 1.99 1.87 1.71 1.44 1.42 1.53 1.86 1.99 2.12 1.99 1.84 1.32 1.26 1.27 1.33 1.35 1.31 1.34 1.81 1.86 1.48 1.33 1.33 1.35 1.30 1.22 1.10 0.95 0.82 0.74 0.66 0.58 0.47 0.44 0.40 0.33 0.31 0.36 0.43 0.43 0.36 0.27
2.12 2.12 1.86 1.55 1.39 1.51 1.59 1.55 1.59 1.88 1.65 1.51 1.31 1.40 1.44 1.37 1.33 1.31 1.32 1.58 1.67 1.39 1.12 1.04 1.11 1.17 1.23 1.27 1.13 1.05 0.92 0.77 0.63 0.50 0.43 0.36 0.31 0.28 0.29 0.37 0.44 0.39 0.29
1.86 1.87 1.51 1.16 1.25 1.47 1.55 1.50 1.45 1.54 1.52 1.57 1.54 1.52 1.49 1.34 1.13 1.06 0.96 0.92 1.02 0.91 0.96 1.08 1.01 0.95 1.09 1.28 1.40 1.48 1.28 1.00 0.75 0.59 0.49 0.39 0.32 0.26 0.24 0.27 0.34 0.34 0.29
1.38 1.45 1.15 1.03 1.19 1.33 1.35 1.32 1.45 1.55 1.44 1.50 1.54 1.42 1.17 1.02 0.87 0.76 0.71 0.63 0.64 0.66 0.65 0.85 0.89 0.91 1.08 1.33 1.59 1.76 1.71 1.40 1.09 0.85 0.67 0.51 0.41 0.30 0.25 0.22 0.25 0.27 0.24
1.09 1.26 1.14 1.03 1.16 1.24 1.19 1.33 1.45 1.53 1.33 1.30 1.25 1.00 0.82 0.61 0.57 0.50 0.41 0.43 0.44 0.43 0.50 0.62 0.84 0.76 0.99 1.25 1.52 1.80 1.99 1.79 1.33 1.06 0.94 0.81 0.66 0.45 0.29 0.23 0.22 0.24 0.21
1.04 1.18 1.09 1.00 0.99 1.01 0.98 1.12 1.24 1.24 1.03 1.24 1.38 0.92 0.62 0.49 0.41 0.31 0.27 0.29 0.30 0.36 0.49 0.65 0.80 0.81 0.90 1.04 1.22 1.48 1.89 1.99 1.65 1.28 1.10 0.97 0.86 0.63 0.38 0.28 0.23 0.19 0.18
0.87 0.95 0.93 0.84 0.79 0.82 0.81 0.89 1.02 1.02 0.90 1.17 1.31 1.16 0.81 0.60 0.48 0.33 0.32 0.31 0.33 0.43 0.49 0.57 0.79 0.94 0.98 1.26 1.13 1.10 1.38 1.74 1.83 1.66 1.43 1.12 0.93 0.72 0.49 0.38 0.28 0.20 0.16
0.59 0.59 0.60 0.64 0.68 0.69 0.71 0.77 0.93 1.05 0.91 0.94 1.17 1.30 1.02 0.70 0.61 0.48 0.48 0.51 0.54 0.60 0.65 0.77 0.88 0.97 1.04 1.25 1.24 1.20 1.16 1.29 1.68 1.97 1.89 1.44 0.99 0.78 0.69 0.64 0.54 0.37 0.28
0.42 0.41 0.43 0.53 0.60 0.66 0.71 0.66 0.71 0.87 0.92 0.84 0.94 1.05 1.07 1.07 0.99 0.71 0.54 0.52 0.59 0.61 0.63 0.68 0.77 0.90 0.97 1.15 1.42 1.42 1.31 1.19 1.27 1.72 1.98 1.87 1.45 0.97 0.75 0.76 0.97 0.86 0.56
0.41 0.38 0.37 0.39 0.49 0.57 0.64 0.66 0.68 0.74 0.81 0.79 0.80 0.85 0.93 1.03 1.02 0.93 0.68 0.53 0.54 0.54 0.60 0.66 0.73 0.79 0.87 1.10 1.43 1.44 1.44 1.23 1.13 1.22 1.51 1.66 1.57 1.26 0.99 1.00 1.41 1.67 1.43
0.38 0.38 0.38 0.40 0.42 0.43 0.47 0.54 0.60 0.65 0.71 0.74 0.74 0.80 0.89 0.88 0.88 0.99 0.86 0.70 0.64 0.58 0.67 0.74 0.85 0.94 0.95 1.03 1.01 1.08 1.06 1.06 1.01 0.96 0.98 1.07 1.22 1.30 1.28 1.39 1.73 2.07 2.16
0.31 0.35 0.37 0.42 0.47 0.48 0.48 0.50 0.56 0.63 0.69 0.75 0.74 0.78 0.86 0.90 0.90 0.99 0.95 0.79 0.73 0.77 0.88 0.90 0.88 0.97 0.93 1.08 1.02 0.86 0.71 0.71 0.68 0.66 0.68 0.75 0.89 1.04 1.14 1.20 1.39 1.65 1.86
0.27 0.34 0.39 0.42 0.45 0.51 0.54 0.61 0.64 0.69 0.75 0.78 0.76 0.87 0.92 0.89 0.98 1.04 1.10 1.11 1.00 0.99 1.12 1.01 0.83 0.82 0.85 0.87 0.83 0.76 0.75 0.60 0.50 0.44 0.43 0.47 0.54 0.62 0.73 0.85 0.99 1.12 1.26
0.23 0.24 0.31 0.42 0.44 0.47 0.55 0.64 0.69 0.73 0.79 0.85 0.88 0.98 1.04 1.03 1.03 1.03 1.15 1.26 1.29 1.24 1.27 1.16 0.99 0.88 0.80 0.73 0.72 0.71 0.75 0.71 0.52 0.37 0.32 0.32 0.37 0.43 0.46 0.49 0.57 0.65 0.76
0.20 0.20 0.24 0.32 0.36 0.39 0.48 0.62 0.69 0.77 0.88 0.96 0.96 0.99 1.07 1.11 1.16 1.16 1.17 1.25 1.37 1.45 1.39 1.12 1.04 0.97 0.84 0.65 0.62 0.59 0.61 0.66 0.51 0.36 0.28 0.26 0.28 0.31 0.34 0.38 0.42 0.44 0.50
0.18 0.17 0.18 0.19 0.21 0.24 0.33 0.50 0.70 0.82 0.93 0.98 1.00 1.05 1.09 1.17 1.19 1.12 1.17 1.22 1.32 1.45 1.32 1.07 1.11 1.23 1.09 0.83 0.66 0.59 0.52 0.52 0.50 0.43 0.29 0.24 0.24 0.25 0.28 0.31 0.32 0.34 0.38
0.18 0.16 0.15 0.14 0.13 0.16 0.25 0.42 0.59 0.75 0.90 1.01 1.04 1.06 0.97 0.97 1.07 1.12 1.15 1.19 1.23 1.36 1.30 1.20 1.16 1.25 1.23 1.06 0.87 0.67 0.51 0.43 0.44 0.48 0.35 0.27 0.24 0.25 0.26 0.27 0.26 0.27 0.30
0.24 0.21 0.19 0.19 0.22 0.28 0.36 0.45 0.52 0.64 0.80 0.89 0.93 0.91 0.88 0.91 0.92 1.02 1.08 1.10 1.12 1.13 1.20 1.21 1.21 1.32 1.34 1.19 0.96 0.76 0.58 0.52 0.48 0.45 0.39 0.34 0.30 0.29 0.31 0.28 0.24 0.25 0.29
0.23 0.21 0.21 0.26 0.32 0.40 0.43 0.43 0.46 0.54 0.60 0.67 0.72 0.71 0.70 0.76 0.82 0.87 0.90 0.93 0.99 1.04 1.10 1.12 1.19 1.32 1.35 1.34 1.13 0.89 0.69 0.57 0.53 0.46 0.43 0.46 0.48 0.44 0.41 0.36 0.28 0.26 0.28
0.14 0.18 0.23 0.28 0.34 0.38 0.36 0.39 0.44 0.41 0.47 0.48 0.46 0.49 0.51 0.55 0.62 0.72 0.73 0.77 0.86 0.92 0.97 1.07 1.15 1.31 1.34 1.37 1.22 0.99 0.84 0.71 0.60 0.55 0.53 0.52 0.52 0.45 0.40 0.39 0.35 0.29 0.25
0.14 0.19 0.23 0.26 0.28 0.25 0.25 0.26 0.27 0.27 0.31 0.37 0.38 0.37 0.35 0.41 0.46 0.52 0.57 0.62 0.72 0.79 0.88 0.99 1.09 1.21 1.30 1.27 1.22 1.14 1.01 0.83 0.65 0.62 0.72 0.73 0.61 0.57 0.67 0.62 0.47 0.30 0.22
0.18 0.23 0.26 0.27 0.29 0.31 0.19 0.13 0.11 0.16 0.24 0.31 0.37 0.41 0.30 0.24 0.33 0.42 0.49 0.50 0.53 0.60 0.72 0.86 0.96 1.09 1.25 1.31 1.32 1.23 1.15 1.01 0.80 0.64 0.61 0.57 0.55 0.59 0.83 0.95 0.68 0.38 0.28
0.28 0.32 0.32 0.33 0.37 0.35 0.22 0.12 0.09 0.12 0.20 0.28 0.34 0.39 0.37 0.32 0.32 0.38 0.48 0.51 0.49 0.47 0.53 0.64 0.74 0.94 1.27 1.48 1.48 1.46 1.42 1.33 1.12 0.85 0.72 0.62 0.55 0.55 0.54 0.59 0.63 0.45 0.33
0.39 0.40 0.42 0.42 0.45 0.44 0.31 0.17 0.14 0.18 0.27 0.31 0.35 0.38 0.38 0.35 0.28 0.24 0.35 0.44 0.48 0.49 0.47 0.56 0.67 0.83 1.06 1.39 1.55 1.57 1.60 1.42 1.21 0.94 0.72 0.65 0.54 0.53 0.50 0.45 0.50 0.56 0.45
0.55 0.55 0.52 0.51 0.53 0.57 0.46 0.24 0.19 0.26 0.37 0.41 0.48 0.48 0.40 0.36 0.30 0.21 0.30 0.39 0.43 0.46 0.49 0.51 0.56 0.62 0.77 1.04 1.29 1.31 1.31 1.33 1.13 0.94 0.69 0.60 0.55 0.48 0.47 0.42 0.39 0.42 0.47

GEFSMA_prec_meanprecacc_090.txt.gz
Total_Precipitation_Accumulation
1.50 1.44 1.35 1.30 1.22 1.39 1.70 1.92 1.85 1.89 1.85 1.73 1.55 1.38 1.19 1.16 1.12 1.16 1.28 1.51 1.55 1.50 1.55 1.64 1.51 1.34 1.24 1.09 0.92 0.79 0.76 0.74 0.67 0.54 0.49 0.40 0.34 0.34 0.36 0.41 0.41 0.39 0.37
1.98 2.06 1.93 1.76 1.48 1.46 1.56 1.89 2.02 2.15 2.02 1.86 1.35 1.28 1.29 1.35 1.37 1.33 1.36 1.84 1.93 1.57 1.43 1.45 1.50 1.47 1.39 1.26 1.06 0.90 0.81 0.72 0.62 0.50 0.46 0.42 0.34 0.31 0.36 0.43 0.44 0.37 0.27
2.16 2.16 1.91 1.60 1.41 1.52 1.61 1.57 1.61 1.89 1.67 1.53 1.34 1.43 1.46 1.39 1.34 1.33 1.34 1.60 1.71 1.47 1.22 1.14 1.24 1.31 1.40 1.47 1.34 1.21 1.03 0.86 0.69 0.54 0.46 0.38 0.33 0.29 0.30 0.37 0.45 0.39 0.29
1.88 1.89 1.53 1.17 1.26 1.48 1.56 1.51 1.46 1.56 1.54 1.58 1.56 1.55 1.51 1.37 1.17 1.10 1.00 0.95 1.05 0.94 1.02 1.18 1.12 1.06 1.23 1.46 1.61 1.71 1.46 1.13 0.86 0.66 0.54 0.42 0.34 0.28 0.25 0.28 0.34 0.34 0.29
1.39 1.46 1.16 1.03 1.20 1.34 1.37 1.34 1.47 1.57 1.46 1.52 1.55 1.44 1.18 1.04 0.90 0.79 0.73 0.65 0.67 0.69 0.69 0.90 0.99 1.02 1.21 1.50 1.79 2.01 1.95 1.60 1.25 0.98 0.77 0.57 0.44 0.32 0.27 0.24 0.26 0.27 0.24
1.10 1.26 1.15 1.04 1.17 1.25 1.20 1.34 1.46 1.54 1.34 1.31 1.26 1.01 0.83 0.62 0.58 0.51 0.43 0.45 0.47 0.45 0.53 0.65 0.88 0.82 1.11 1.39 1.68 2.00 2.23 2.04 1.54 1.23 1.09 0.92 0.73 0.50 0.31 0.24 0.23 0.25 0.21
1.04 1.18 1.09 1.00 0.99 1.01 0.98 1.12 1.25 1.26 1.04 1.25 1.39 0.92 0.63 0.49 0.42 0.32 0.29 0.31 0.32 0.38 0.51 0.67 0.82 0.84 0.95 1.13 1.32 1.60 2.06 2.19 1.85 1.46 1.27 1.12 1.00 0.73 0.43 0.31 0.24 0.20 0.19
0.87 0.95 0.93 0.84 0.79 0.82 0.81 0.89 1.02 1.02 0.90 1.18 1.32 1.17 0.81 0.60 0.48 0.34 0.33 0.32 0.35 0.45 0.51 0.58 0.80 0.96 1.01 1.30 1.17 1.17 1.50 1.89 2.02 1.85 1.62 1.29 1.09 0.86 0.60 0.45 0.32 0.22 0.17
0.59 0.59 0.60 0.64 0.68 0.69 0.71 0.77 0.93 1.05 0.91 0.94 1.17 1.30 1.02 0.70 0.61 0.48 0.48 0.52 0.55 0.62 0.67 0.79 0.90 0.99 1.07 1.29 1.27 1.26 1.26 1.39 1.82 2.16 2.10 1.64 1.18 0.94 0.83 0.75 0.63 0.41 0.30
0.42 0.41 0.43 0.53 0.60 0.66 0.71 0.66 0.71 0.87 0.92 0.84 0.94 1.05 1.07 1.07 0.99 0.71 0.54 0.52 0.59 0.62 0.64 0.69 0.79 0.92 0.99 1.18 1.45 1.47 1.36 1.25 1.38 1.88 2.19 2.08 1.64 1.14 0.90 0.90 1.11 0.96 0.62
0.41 0.38 0.37 0.39 0.49 0.57 0.64 0.66 0.68 0.74 0.81 0.79 0.80 0.85 0.93 1.03 1.02 0.93 0.68 0.53 0.54 0.54 0.61 0.67 0.74 0.80 0.88 1.11 1.45 1.47 1.48 1.29 1.21 1.34 1.67 1.85 1.77 1.45 1.17 1.16 1.59 1.84 1.55
0.38 0.38 0.38 0.40 0.42 0.43 0.47 0.54 0.60 0.65 0.71 0.74 0.74 0.80 0.89 0.88 0.88 0.99 0.86 0.70 0.64 0.58 0.67 0.74 0.85 0.94 0.95 1.03 1.02 1.09 1.09 1.11 1.07 1.02 1.06 1.19 1.37 1.47 1.45 1.58 1.93 2.29 2.37
0.31 0.35 0.37 0.42 0.47 0.48 0.48 0.50 0.56 0.63 0.69 0.75 0.74 0.78 0.86 0.90 0.90 0.99 0.95 0.79 0.73 0.77 0.88 0.90 0.88 0.97 0.93 1.09 1.02 0.86 0.72 0.73 0.72 0.71 0.72 0.80 0.96 1.14 1.26 1.35 1.58 1.87 2.11
0.27 0.34 0.39 0.42 0.45 0.51 0.54 0.61 0.64 0.69 0.75 0.78 0.76 0.87 0.92 0.89 0.98 1.04 1.10 1.11 1.00 0.99 1.12 1.01 0.83 0.82 0.85 0.87 0.83 0.76 0.76 0.60 0.51 0.47 0.47 0.51 0.58 0.67 0.79 0.94 1.09 1.26 1.42
0.23 0.24 0.31 0.42 0.44 0.47 0.55 0.64 0.69 0.73 0.79 0.85 0.88 0.98 1.04 1.03 1.03 1.03 1.15 1.26 1.29 1.24 1.27 1.16 0.99 0.88 0.80 0.73 0.72 0.71 0.75 0.72 0.52 0.38 0.35 0.36 0.42 0.48 0.51 0.54 0.64 0.74 0.85
0.20 0.20 0.24 0.32 0.36 0.39 0.48 0.62 0.69 0.77 0.88 0.96 0.96 0.99 1.07 1.11 1.16 1.16 1.17 1.25 1.37 1.45 1.39 1.12 1.04 0.97 0.84 0.65 0.62 0.59 0.61 0.66 0.51 0.36 0.29 0.28 0.30 0.34 0.39 0.42 0.48 0.51 0.58
0.18 0.17 0.18 0.19 0.21 0.24 0.33 0.50 0.70 0.82 0.93 0.98 1.00 1.05 1.09 1.17 1.19 1.12 1.17 1.22 1.32 1.45 1.32 1.07 1.11 1.23 1.09 0.83 0.66 0.59 0.52 0.52 0.50 0.43 0.29 0.25 0.25 0.26 0.30 0.34 0.36 0.39 0.43
0.18 0.16 0.15 0.14 0.13 0.16 0.25 0.42 0.59 0.75 0.90 1.01 1.04 1.06 0.97 0.97 1.07 1.12 1.15 1.19 1.23 1.36 1.30 1.20 1.16 1.25 1.23 1.06 0.87 0.67 0.51 0.43 0.44 0.48 0.36 0.27 0.24 0.25 0.28 0.29 0.29 0.30 0.34
0.24 0.21 0.19 0.19 0.22 0.28 0.36 0.45 0.52 0.64 0.80 0.89 0.93 0.91 0.88 0.91 0.92 1.02 1.08 1.10 1.12 1.13 1.20 1.21 1.21 1.32 1.34 1.19 0.96 0.76 0.58 0.52 0.48 0.45 0.39 0.35 0.31 0.30 0.32 0.29 0.26 0.28 0.32
0.23 0.21 0.21 0.26 0.32 0.40 0.43 0.43 0.46 0.54 0.60 0.67 0.72 0.71 0.70 0.76 0.82 0.87 0.90 0.93 0.99 1.04 1.10 1.12 1.19 1.32 1.35 1.34 1.13 0.89 0.69 0.57 0.53 0.46 0.43 0.47 0.48 0.45 0.41 0.36 0.29 0.27 0.30
0.14 0.18 0.23 0.28 0.34 0.38 0.36 0.39 0.44 0.41 0.47 0.48 0.46 0.49 0.51 0.55 0.62 0.72 0.73 0.77 0.86 0.92 0.97 1.07 1.15 1.31 1.34 1.37 1.22 0.99 0.84 0.71 0.60 0.55 0.53 0.52 0.52 0.45 0.41 0.39 0.36 0.29 0.25
0.14 0.19 0.23 0.26 0.28 0.25 0.25 0.26 0.27 0.27 0.31 0.37 0.38 0.37 0.35 0.41 0.46 0.52 0.57 0.62 0.72 0.80 0.88 0.99 1.09 1.21 1.30 1.27 1.22 1.14 1.01 0.83 0.65 0.62 0.72 0.73 0.61 0.57 0.68 0.63 0.47 0.30 0.23
0.18 0.23 0.26 0.27 0.29 0.31 0.19 0.13 0.11 0.16 0.24 0.31 0.37 0.41 0.30 0.24 0.33 0.42 0.49 0.50 0.53 0.60 0.72 0.86 0.96 1.09 1.25 1.31 1.32 1.23 1.15 1.01 0.80 0.64 0.61 0.57 0.55 0.59 0.84 0.96 0.69 0.39 0.29
0.28 0.32 0.32 0.33 0.37 0.35 0.22 0.12 0.09 0.12 0.20 0.28 0.34 0.39 0.37 0.32 0.32 0.38 0.48 0.51 0.49 0.47 0.53 0.64 0.74 0.94 1.27 1.48 1.48 1.46 1.42 1.33 1.12 0.85 0.72 0.62 0.56 0.55 0.55 0.60 0.64 0.46 0.34
0.39 0.40 0.42 0.42 0.45 0.44 0.31 0.17 0.14 0.18 0.27 0.31 0.35 0.38 0.38 0.35 0.28 0.24 0.35 0.44 0.48 0.49 0.47 0.56 0.67 0.83 1.06 1.39 1.55 1.57 1.60 1.42 1.21 0.94 0.72 0.65 0.54 0.53 0.50 0.45 0.52 0.57 0.46
0.55 0.55 0.52 0.51 0.53 0.57 0.47 0.24 0.19 0.26 0.37 0.41 0.48 0.48 0.40 0.36 0.30 0.21 0.30 0.39 0.43 0.46 0.49 0.51 0.56 0.62 0.77 1.04 1.29 1.31 1.31 1.34 1.13 0.94 0.69 0.60 0.55 0.48 0.48 0.43 0.40 0.43 0.48

GEFSMA_prec_meanprecacc_096.txt.gz
Total_Precipitation_Accumulation
1.61 1.53 1.44 1.39 1.30 1.48 1.81 2.02 1.94 1.96 1.91 1.80 1.61 1.43 1.26 1.22 1.15 1.18 1.31 1.54 1.60 1.56 1.63 1.75 1.65 1.47 1.38 1.22 1.03 0.91 0.85 0.81 0.72 0.58 0.51 0.42 0.36 0.35 0.37 0.41 0.41 0.39 0.38
2.06 2.13 2.01 1.83 1.54 1.52 1.63 1.97 2.09 2.21 2.09 1.95 1.42 1.34 1.35 1.40 1.40 1.36 1.39 1.87 1.95 1.62 1.49 1.54 1.64 1.63 1.54 1.42 1.22 1.03 0.92 0.82 0.71 0.56 0.50 0.44 0.37 0.33 0.37 0.44 0.44 0.37 0.27
2.22 2.22 1.97 1.65 1.47 1.57 1.67 1.62 1.66 1.95 1.74 1.60 1.43 1.52 1.54 1.44 1.38 1.37 1.38 1.65 1.75 1.50 1.28 1.22 1.36 1.46 1.57 1.66 1.55 1.42 1.21 1.00 0.80 0.63 0.52 0.42 0.36 0.32 0.31 0.38 0.45 0.40 0.29
1.93 1.94 1.58 1.22 1.31 1.53 1.60 1.56 1.51 1.61 1.59 1.62 1.60 1.58 1.54 1.41 1.20 1.14 1.04 0.99 1.09 0.98 1.07 1.24 1.21 1.17 1.37 1.64 1.82 1.95 1.69 1.29 0.98 0.76 0.62 0.49 0.38 0.29 0.26 0.30 0.36 0.35 0.29
1.42 1.49 1.20 1.08 1.23 1.37 1.40 1.37 1.49 1.59 1.47 1.53 1.56 1.46 1.20 1.06 0.92 0.81 0.77 0.69 0.71 0.73 0.72 0.93 1.03 1.08 1.31 1.66 1.99 2.24 2.21 1.85 1.43 1.13 0.89 0.65 0.51 0.36 0.29 0.25 0.27 0.29 0.25
1.11 1.28 1.16 1.07 1.19 1.27 1.22 1.36 1.47 1.56 1.35 1.32 1.27 1.02 0.84 0.63 0.59 0.53 0.45 0.48 0.50 0.49 0.55 0.68 0.92 0.86 1.16 1.47 1.81 2.15 2.43 2.29 1.77 1.41 1.25 1.05 0.85 0.59 0.37 0.27 0.25 0.26 0.22
1.05 1.19 1.09 1.01 1.01 1.02 0.99 1.13 1.26 1.27 1.05 1.26 1.40 0.93 0.64 0.50 0.43 0.33 0.30 0.33 0.35 0.41 0.54 0.71 0.86 0.89 1.01 1.18 1.38 1.67 2.17 2.35 2.04 1.64 1.44 1.28 1.14 0.85 0.53 0.37 0.27 0.22 0.19
0.87 0.95 0.93 0.84 0.80 0.83 0.82 0.90 1.03 1.03 0.91 1.19 1.33 1.19 0.84 0.62 0.49 0.35 0.34 0.34 0.37 0.47 0.53 0.61 0.85 1.02 1.05 1.37 1.23 1.22 1.58 1.99 2.16 2.00 1.77 1.44 1.24 1.00 0.71 0.53 0.37 0.26 0.19
0.60 0.59 0.60 0.65 0.69 0.70 0.71 0.78 0.93 1.05 0.92 0.95 1.18 1.30 1.03 0.72 0.63 0.49 0.48 0.53 0.56 0.63 0.69 0.82 0.93 1.04 1.12 1.35 1.34 1.32 1.31 1.45 1.91 2.29 2.24 1.78 1.31 1.06 0.96 0.87 0.73 0.49 0.35
0.42 0.41 0.44 0.54 0.61 0.66 0.71 0.66 0.71 0.87 0.92 0.84 0.94 1.05 1.07 1.08 1.00 0.72 0.55 0.53 0.60 0.62 0.65 0.70 0.80 0.93 1.00 1.21 1.51 1.51 1.39 1.28 1.43 1.97 2.32 2.22 1.78 1.27 1.03 1.04 1.25 1.08 0.71
0.42 0.38 0.37 0.39 0.49 0.58 0.64 0.66 0.68 0.74 0.81 0.79 0.80 0.85 0.93 1.03 1.02 0.94 0.69 0.53 0.55 0.54 0.61 0.67 0.74 0.80 0.88 1.12 1.48 1.50 1.50 1.31 1.23 1.39 1.74 1.95 1.88 1.58 1.31 1.32 1.75 2.00 1.69
0.39 0.38 0.38 0.40 0.42 0.43 0.47 0.54 0.60 0.66 0.71 0.74 0.74 0.81 0.89 0.88 0.88 0.99 0.86 0.70 0.64 0.58 0.67 0.74 0.85 0.94 0.95 1.04 1.02 1.09 1.10 1.13 1.09 1.05 1.11 1.26 1.46 1.57 1.56 1.71 2.09 2.47 2.56
0.31 0.35 0.37 0.42 0.47 0.48 0.48 0.50 0.56 0.63 0.70 0.75 0.75 0.78 0.86 0.90 0.90 0.99 0.96 0.79 0.73 0.77 0.88 0.90 0.88 0.97 0.93 1.09 1.02 0.87 0.73 0.74 0.73 0.73 0.74 0.83 1.01 1.21 1.35 1.44 1.69 2.01 2.28
0.28 0.34 0.39 0.42 0.46 0.51 0.54 0.61 0.64 0.69 0.75 0.78 0.76 0.87 0.92 0.89 0.98 1.04 1.10 1.12 1.00 0.99 1.12 1.01 0.83 0.82 0.85 0.88 0.84 0.76 0.76 0.60 0.51 0.47 0.48 0.53 0.60 0.71 0.85 0.99 1.15 1.32 1.51
0.23 0.24 0.31 0.42 0.44 0.47 0.55 0.64 0.69 0.74 0.80 0.85 0.88 0.98 1.04 1.03 1.03 1.03 1.16 1.26 1.30 1.24 1.27 1.16 0.99 0.88 0.80 0.73 0.72 0.71 0.75 0.72 0.52 0.38 0.35 0.36 0.43 0.50 0.55 0.58 0.68 0.78 0.89
0.20 0.20 0.25 0.32 0.36 0.39 0.49 0.62 0.70 0.77 0.88 0.97 0.96 0.99 1.08 1.11 1.16 1.16 1.17 1.25 1.38 1.46 1.39 1.12 1.04 0.97 0.84 0.65 0.62 0.59 0.61 0.66 0.51 0.36 0.29 0.28 0.30 0.35 0.40 0.45 0.51 0.54 0.61
0.18 0.17 0.18 0.19 0.21 0.24 0.33 0.50 0.70 0.82 0.93 0.98 1.01 1.05 1.09 1.17 1.20 1.12 1.17 1.23 1.33 1.46 1.33 1.07 1.11 1.23 1.09 0.83 0.66 0.59 0.52 0.52 0.50 0.43 0.29 0.25 0.25 0.26 0.31 0.35 0.37 0.41 0.47
0.18 0.16 0.15 0.14 0.13 0.16 0.25 0.42 0.59 0.75 0.90 1.02 1.04 1.06 0.97 0.97 1.08 1.12 1.16 1.20 1.23 1.36 1.30 1.20 1.16 1.26 1.24 1.07 0.87 0.67 0.51 0.43 0.44 0.48 0.36 0.27 0.24 0.25 0.28 0.30 0.29 0.31 0.35
0.24 0.21 0.19 0.19 0.22 0.28 0.36 0.45 0.52 0.64 0.80 0.89 0.93 0.91 0.88 0.91 0.92 1.02 1.08 1.11 1.12 1.13 1.20 1.21 1.21 1.32 1.34 1.19 0.96 0.76 0.58 0.52 0.48 0.45 0.39 0.35 0.31 0.30 0.32 0.29 0.26 0.28 0.32
0.23 0.21 0.21 0.26 0.32 0.40 0.43 0.43 0.46 0.54 0.60 0.67 0.72 0.71 0.70 0.76 0.82 0.88 0.91 0.93 0.99 1.04 1.10 1.12 1.20 1.32 1.36 1.34 1.13 0.89 0.69 0.57 0.53 0.46 0.43 0.47 0.48 0.45 0.41 0.36 0.29 0.27 0.30
0.14 0.18 0.23 0.28 0.34 0.38 0.36 0.39 0.44 0.41 0.47 0.48 0.46 0.49 0.51 0.55 0.62 0.72 0.73 0.78 0.86 0.92 0.98 1.07 1.16 1.31 1.34 1.38 1.22 0.99 0.84 0.71 0.60 0.55 0.53 0.52 0.52 0.46 0.41 0.40 0.36 0.29 0.25
0.14 0.19 0.23 0.26 0.28 0.25 0.25 0.26 0.27 0.27 0.31 0.37 0.38 0.37 0.35 0.41 0.46 0.52 0.57 0.62 0.72 0.80 0.89 0.99 1.10 1.22 1.30 1.28 1.23 1.14 1.02 0.84 0.65 0.62 0.73 0.73 0.61 0.57 0.68 0.63 0.48 0.30 0.23
0.18 0.23 0.26 0.27 0.29 0.31 0.19 0.13 0.11 0.16 0.24 0.31 0.37 0.41 0.30 0.24 0.33 0.42 0.49 0.50 0.53 0.60 0.72 0.87 0.97 1.09 1.26 1.32 1.34 1.25 1.17 1.03 0.81 0.65 0.62 0.57 0.55 0.59 0.84 0.96 0.69 0.39 0.29
0.28 0.32 0.32 0.33 0.37 0.35 0.22 0.12 0.09 0.12 0.20 0.28 0.34 0.39 0.37 0.32 0.32 0.38 0.48 0.51 0.49 0.47 0.53 0.64 0.74 0.95 1.27 1.50 1.51 1.48 1.45 1.36 1.13 0.86 0.73 0.63 0.56 0.56 0.55 0.60 0.65 0.46 0.34
0.40 0.41 0.42 0.43 0.45 0.45 0.31 0.17 0.14 0.18 0.27 0.31 0.35 0.38 0.38 0.35 0.28 0.24 0.35 0.44 0.49 0.49 0.47 0.56 0.67 0.83 1.06 1.39 1.56 1.58 1.61 1.44 1.22 0.94 0.73 0.66 0.55 0.53 0.51 0.46 0.52 0.57 0.46
0.56 0.55 0.52 0.51 0.53 0.57 0.47 0.25 0.20 0.27 0.37 0.41 0.48 0.48 0.40 0.36 0.30 0.21 0.30 0.40 0.44 0.47 0.50 0.52 0.57 0.63 0.77 1.04 1.29 1.31 1.33 1.35 1.14 0.94 0.69 0.61 0.56 0.49 0.48 0.43 0.40 0.45 0.49

GEFSMA_prec_meanprecacc_102.txt.gz
Total_Precipitation_Accumulation
1.73 1.63 1.53 1.49 1.40 1.58 1.91 2.12 2.04 2.03 1.97 1.86 1.66 1.48 1.30 1.27 1.21 1.27 1.40 1.60 1.62 1.57 1.65 1.79 1.70 1.53 1.44 1.29 1.10 0.97 0.90 0.87 0.79 0.63 0.54 0.45 0.38 0.38 0.39 0.44 0.43 0.41 0.40
2.14 2.20 2.08 1.90 1.61 1.59 1.71 2.05 2.16 2.29 2.18 2.04 1.50 1.42 1.42 1.43 1.45 1.42 1.46 1.95 1.99 1.64 1.51 1.57 1.70 1.71 1.62 1.52 1.30 1.11 1.00 0.90 0.79 0.62 0.55 0.48 0.40 0.35 0.40 0.46 0.46 0.39 0.29
2.28 2.28 2.04 1.71 1.52 1.61 1.71 1.67 1.72 2.02 1.81 1.67 1.48 1.58 1.63 1.53 1.47 1.44 1.45 1.76 1.85 1.55 1.30 1.25 1.39 1.52 1.64 1.77 1.68 1.55 1.34 1.10 0.89 0.71 0.58 0.46 0.39 0.34 0.33 0.41 0.49 0.42 0.31
1.96 1.97 1.62 1.27 1.35 1.56 1.64 1.60 1.56 1.66 1.65 1.68 1.66 1.63 1.61 1.50 1.27 1.19 1.09 1.07 1.18 1.05 1.12 1.27 1.24 1.22 1.44 1.75 1.94 2.09 1.87 1.42 1.08 0.84 0.68 0.54 0.42 0.32 0.29 0.32 0.39 0.37 0.30
1.42 1.51 1.23 1.11 1.25 1.40 1.43 1.40 1.54 1.63 1.51 1.58 1.60 1.49 1.23 1.10 0.96 0.84 0.79 0.72 0.75 0.79 0.78 0.99 1.07 1.12 1.39 1.77 2.12 2.40 2.41 2.04 1.59 1.25 0.98 0.73 0.57 0.41 0.33 0.28 0.29 0.31 0.27
1.12 1.29 1.18 1.08 1.21 1.29 1.25 1.39 1.50 1.58 1.36 1.34 1.28 1.04 0.86 0.65 0.61 0.55 0.47 0.50 0.53 0.52 0.59 0.74 1.00 0.91 1.23 1.56 1.92 2.28 2.60 2.48 1.96 1.58 1.39 1.16 0.93 0.66 0.43 0.31 0.27 0.27 0.24
1.06 1.20 1.10 1.02 1.02 1.03 1.00 1.15 1.27 1.28 1.06 1.26 1.41 0.94 0.65 0.51 0.44 0.34 0.31 0.35 0.37 0.44 0.58 0.77 0.95 1.00 1.14 1.25 1.43 1.74 2.28 2.50 2.21 1.82 1.61 1.42 1.27 0.95 0.60 0.41 0.29 0.23 0.21
0.88 0.95 0.94 0.85 0.81 0.83 0.82 0.90 1.04 1.03 0.92 1.19 1.33 1.20 0.85 0.63 0.50 0.35 0.34 0.35 0.38 0.49 0.56 0.65 0.89 1.08 1.13 1.49 1.30 1.27 1.66 2.10 2.28 2.13 1.92 1.60 1.38 1.12 0.81 0.60 0.42 0.30 0.22
0.60 0.59 0.61 0.65 0.70 0.70 0.72 0.78 0.94 1.05 0.93 0.96 1.19 1.31 1.05 0.74 0.64 0.50 0.49 0.53 0.57 0.64 0.70 0.84 0.96 1.07 1.16 1.43 1.46 1.39 1.37 1.51 1.98 2.40 2.38 1.92 1.42 1.14 1.03 0.95 0.81 0.56 0.41
0.43 0.41 0.44 0.54 0.61 0.67 0.71 0.66 0.71 0.87 0.93 0.85 0.95 1.06 1.08 1.08 1.02 0.73 0.55 0.53 0.60 0.63 0.66 0.71 0.81 0.96 1.03 1.25 1.58 1.56 1.41 1.30 1.45 2.02 2.41 2.33 1.88 1.34 1.08 1.12 1.36 1.19 0.80
0.42 0.39 0.38 0.40 0.50 0.58 0.64 0.66 0.68 0.74 0.81 0.79 0.81 0.86 0.93 1.03 1.03 0.94 0.69 0.54 0.55 0.54 0.61 0.67 0.74 0.81 0.89 1.14 1.51 1.52 1.51 1.32 1.25 1.41 1.78 2.00 1.95 1.65 1.38 1.40 1.85 2.12 1.82
0.39 0.39 0.38 0.41 0.43 0.44 0.47 0.55 0.61 0.66 0.72 0.74 0.74 0.81 0.89 0.88 0.88 0.99 0.86 0.70 0.64 0.58 0.67 0.74 0.85 0.94 0.96 1.04 1.02 1.10 1.11 1.13 1.10 1.05 1.12 1.28 1.51 1.63 1.65 1.82 2.21 2.60 2.70
0.32 0.36 0.38 0.43 0.48 0.49 0.49 0.51 0.57 0.64 0.70 0.76 0.75 0.78 0.86 0.90 0.90 0.99 0.96 0.79 0.73 0.77 0.88 0.90 0.88 0.97 0.93 1.09 1.03 0.87 0.73 0.74 0.73 0.73 0.74 0.83 1.02 1.23 1.38 1.50 1.77 2.13 2.43
0.28 0.34 0.39 0.43 0.46 0.52 0.54 0.61 0.65 0.70 0.75 0.78 0.76 0.87 0.92 0.89 0.98 1.04 1.10 1.12 1.00 0.99 1.12 1.01 0.83 0.82 0.85 0.88 0.84 0.76 0.76 0.61 0.51 0.47 0.48 0.53 0.61 0.72 0.86 1.01 1.18 1.37 1.58
0.23 0.25 0.32 0.43 0.45 0.48 0.55 0.64 0.69 0.74 0.80 0.85 0.88 0.98 1.05 1.03 1.03 1.03 1.16 1.26 1.30 1.25 1.28 1.17 0.99 0.88 0.80 0.73 0.72 0.71 0.76 0.72 0.52 0.38 0.35 0.36 0.44 0.51 0.56 0.59 0.69 0.80 0.92
0.20 0.21 0.25 0.33 0.36 0.40 0.49 0.62 0.70 0.77 0.89 0.97 0.96 0.99 1.08 1.11 1.16 1.16 1.17 1.25 1.38 1.46 1.40 1.13 1.05 0.97 0.84 0.65 0.62 0.59 0.61 0.66 0.51 0.36 0.29 0.28 0.30 0.35 0.41 0.46 0.51 0.55 0.62
0.18 0.17 0.18 0.20 0.21 0.24 0.33 0.50 0.70 0.82 0.93 0.98 1.01 1.06 1.09 1.17 1.20 1.12 1.17 1.23 1.33 1.46 1.33 1.07 1.11 1.23 1.09 0.84 0.66 0.59 0.52 0.52 0.50 0.43 0.29 0.25 0.25 0.26 0.31 0.35 0.37 0.42 0.47
0.18 0.16 0.15 0.14 0.13 0.16 0.25 0.42 0.59 0.75 0.90 1.02 1.05 1.06 0.97 0.98 1.09 1.13 1.16 1.20 1.24 1.37 1.31 1.20 1.16 1.26 1.24 1.07 0.88 0.68 0.51 0.43 0.44 0.48 0.36 0.27 0.24 0.25 0.28 0.30 0.29 0.31 0.35
0.25 0.22 0.19 0.19 0.23 0.28 0.36 0.45 0.52 0.64 0.80 0.89 0.93 0.91 0.88 0.92 0.93 1.03 1.09 1.11 1.13 1.13 1.20 1.22 1.21 1.33 1.34 1.19 0.96 0.76 0.58 0.53 0.48 0.45 0.39 0.35 0.31 0.30 0.32 0.29 0.26 0.28 0.32
0.24 0.23 0.23 0.26 0.32 0.40 0.43 0.43 0.46 0.54 0.60 0.67 0.72 0.71 0.70 0.76 0.82 0.88 0.91 0.94 0.99 1.05 1.10 1.12 1.20 1.33 1.36 1.34 1.13 0.89 0.69 0.57 0.53 0.46 0.43 0.47 0.48 0.45 0.41 0.36 0.29 0.27 0.30
0.17 0.21 0.25 0.29 0.34 0.38 0.36 0.39 0.44 0.41 0.47 0.48 0.46 0.49 0.52 0.55 0.62 0.72 0.73 0.78 0.87 0.93 0.98 1.07 1.16 1.31 1.34 1.38 1.23 1.00 0.84 0.71 0.61 0.55 0.53 0.52 0.52 0.46 0.41 0.40 0.36 0.29 0.25
0.18 0.22 0.25 0.28 0.29 0.25 0.25 0.26 0.27 0.27 0.31 0.37 0.38 0.37 0.35 0.41 0.46 0.52 0.57 0.62 0.72 0.80 0.89 0.99 1.10 1.22 1.31 1.28 1.24 1.15 1.02 0.84 0.65 0.63 0.73 0.73 0.61 0.57 0.68 0.63 0.48 0.30 0.23
0.22 0.27 0.30 0.32 0.32 0.33 0.20 0.13 0.11 0.16 0.24 0.31 0.38 0.41 0.30 0.24 0.33 0.42 0.49 0.50 0.53 0.60 0.72 0.87 0.97 1.09 1.26 1.32 1.35 1.26 1.19 1.05 0.82 0.65 0.62 0.58 0.55 0.59 0.84 0.96 0.69 0.39 0.29
0.33 0.37 0.38 0.39 0.43 0.38 0.23 0.13 0.10 0.12 0.20 0.28 0.34 0.39 0.38 0.32 0.33 0.38 0.49 0.52 0.50 0.47 0.53 0.64 0.74 0.95 1.28 1.50 1.52 1.49 1.46 1.36 1.14 0.86 0.73 0.63 0.56 0.56 0.55 0.60 0.65 0.46 0.34
0.49 0.50 0.51 0.50 0.51 0.49 0.34 0.20 0.17 0.19 0.27 0.31 0.35 0.38 0.39 0.36 0.29 0.25 0.37 0.46 0.50 0.50 0.48 0.57 0.67 0.84 1.06 1.39 1.56 1.58 1.62 1.44 1.22 0.94 0.74 0.67 0.55 0.54 0.51 0.46 0.52 0.57 0.46
0.66 0.65 0.61 0.58 0.59 0.63 0.51 0.30 0.25 0.30 0.40 0.43 0.50 0.50 0.41 0.38 0.31 0.23 0.33 0.43 0.46 0.48 0.52 0.55 0.59 0.64 0.77 1.04 1.29 1.32 1.33 1.36 1.15 0.95 0.69 0.62 0.56 0.50 0.49 0.43 0.40 0.45 0.50

GEFSMA_prec_meanprecacc_108.txt.gz
Total_Precipitation_Accumulation
1.74 1.64 1.56 1.51 1.42 1.60 1.93 2.14 2.06 2.05 1.99 1.89 1.70 1.52 1.37 1.34 1.32 1.42 1.52 1.70 1.70 1.65 1.73 1.86 1.75 1.58 1.48 1.32 1.12 0.99 0.92 0.88 0.80 0.64 0.55 0.46 0.39 0.39 0.41 0.46 0.45 0.42 0.41
2.14 2.20 2.10 1.92 1.63 1.61 1.73 2.06 2.18 2.30 2.19 2.05 1.52 1.44 1.45 1.47 1.51 1.50 1.55 2.01 2.05 1.69 1.57 1.64 1.76 1.78 1.67 1.56 1.35 1.14 1.03 0.94 0.81 0.64 0.56 0.50 0.41 0.36 0.41 0.48 0.48 0.40 0.30
2.29 2.29 2.05 1.73 1.54 1.63 1.73 1.69 1.73 2.03 1.82 1.68 1.49 1.59 1.64 1.54 1.50 1.49 1.52 1.81 1.89 1.59 1.36 1.30 1.45 1.59 1.70 1.82 1.74 1.60 1.38 1.15 0.93 0.73 0.61 0.49 0.41 0.35 0.35 0.43 0.50 0.44 0.32
1.96 1.98 1.63 1.28 1.36 1.57 1.66 1.62 1.57 1.67 1.66 1.69 1.67 1.64 1.62 1.52 1.29 1.22 1.13 1.12 1.23 1.08 1.15 1.31 1.29 1.27 1.51 1.83 2.02 2.16 1.93 1.48 1.12 0.86 0.71 0.57 0.45 0.34 0.30 0.34 0.40 0.39 0.31
1.43 1.51 1.23 1.11 1.26 1.40 1.44 1.41 1.55 1.64 1.52 1.58 1.60 1.49 1.24 1.11 0.97 0.86 0.82 0.75 0.79 0.83 0.81 1.02 1.11 1.17 1.46 1.88 2.22 2.51 2.50 2.11 1.65 1.30 1.02 0.76 0.60 0.43 0.34 0.29 0.30 0.32 0.28
1.12 1.29 1.18 1.08 1.21 1.29 1.26 1.40 1.51 1.58 1.36 1.34 1.28 1.04 0.87 0.66 0.61 0.56 0.48 0.52 0.55 0.55 0.64 0.77 1.02 0.94 1.29 1.64 2.00 2.38 2.70 2.57 2.02 1.64 1.45 1.22 0.98 0.70 0.45 0.32 0.28 0.29 0.25
1.06 1.20 1.10 1.02 1.02 1.04 1.01 1.15 1.27 1.28 1.06 1.26 1.41 0.94 0.65 0.51 0.44 0.34 0.32 0.36 0.39 0.47 0.62 0.82 1.01 1.02 1.16 1.29 1.47 1.80 2.35 2.59 2.30 1.90 1.69 1.49 1.34 1.02 0.65 0.43 0.31 0.24 0.22
0.88 0.96 0.94 0.85 0.81 0.84 0.83 0.90 1.04 1.04 0.92 1.19 1.33 1.20 0.85 0.63 0.50 0.35 0.35 0.36 0.40 0.51 0.58 0.68 0.95 1.10 1.14 1.51 1.31 1.30 1.71 2.18 2.38 2.22 2.00 1.66 1.43 1.17 0.86 0.66 0.47 0.32 0.24
0.60 0.60 0.61 0.65 0.70 0.70 0.72 0.78 0.94 1.05 0.93 0.96 1.19 1.31 1.05 0.74 0.65 0.50 0.49 0.53 0.57 0.64 0.71 0.85 0.97 1.08 1.17 1.44 1.48 1.43 1.41 1.55 2.04 2.47 2.46 1.98 1.47 1.18 1.07 1.01 0.88 0.62 0.45
0.43 0.42 0.44 0.55 0.61 0.67 0.71 0.66 0.71 0.87 0.93 0.85 0.95 1.06 1.08 1.08 1.02 0.74 0.56 0.53 0.60 0.63 0.66 0.71 0.81 0.96 1.04 1.26 1.59 1.57 1.43 1.31 1.48 2.08 2.47 2.39 1.94 1.38 1.12 1.17 1.42 1.27 0.88
0.42 0.39 0.38 0.40 0.50 0.58 0.64 0.66 0.69 0.74 0.81 0.79 0.81 0.86 0.93 1.03 1.03 0.94 0.69 0.54 0.55 0.54 0.61 0.67 0.74 0.81 0.89 1.14 1.52 1.53 1.52 1.33 1.26 1.43 1.81 2.04 1.99 1.69 1.42 1.45 1.91 2.21 1.92
0.39 0.39 0.38 0.41 0.43 0.44 0.47 0.55 0.61 0.66 0.72 0.74 0.74 0.81 0.89 0.88 0.88 0.99 0.86 0.70 0.64 0.58 0.67 0.74 0.85 0.94 0.96 1.04 1.02 1.10 1.11 1.14 1.11 1.06 1.13 1.30 1.53 1.66 1.69 1.86 2.27 2.68 2.80
0.32 0.36 0.38 0.43 0.48 0.49 0.49 0.51 0.57 0.64 0.70 0.76 0.75 0.78 0.86 0.90 0.90 0.99 0.96 0.79 0.73 0.77 0.88 0.90 0.89 0.97 0.93 1.09 1.03 0.87 0.73 0.74 0.73 0.73 0.75 0.84 1.03 1.24 1.40 1.52 1.82 2.19 2.50
0.28 0.34 0.39 0.43 0.46 0.52 0.54 0.62 0.65 0.70 0.75 0.78 0.76 0.87 0.92 0.89 0.98 1.04 1.10 1.12 1.00 0.99 1.12 1.01 0.83 0.82 0.85 0.88 0.84 0.76 0.76 0.61 0.51 0.47 0.48 0.53 0.61 0.73 0.86 1.01 1.19 1.39 1.60
0.23 0.25 0.32 0.43 0.45 0.48 0.55 0.65 0.69 0.74 0.80 0.85 0.88 0.98 1.05 1.03 1.03 1.03 1.16 1.26 1.30 1.25 1.28 1.17 0.99 0.88 0.80 0.73 0.72 0.71 0.76 0.72 0.52 0.38 0.35 0.36 0.44 0.51 0.56 0.59 0.69 0.80 0.92
0.20 0.21 0.25 0.33 0.36 0.40 0.49 0.62 0.70 0.77 0.89 0.97 0.96 0.99 1.08 1.11 1.16 1.16 1.17 1.25 1.38 1.46 1.40 1.13 1.05 0.97 0.84 0.65 0.62 0.59 0.61 0.66 0.51 0.36 0.29 0.28 0.30 0.35 0.41 0.46 0.51 0.55 0.62
0.18 0.17 0.18 0.20 0.21 0.24 0.33 0.50 0.70 0.82 0.93 0.98 1.01 1.06 1.09 1.17 1.20 1.12 1.17 1.23 1.33 1.46 1.33 1.07 1.11 1.23 1.09 0.84 0.66 0.59 0.52 0.52 0.50 0.43 0.29 0.25 0.25 0.26 0.31 0.35 0.37 0.42 0.47
0.19 0.17 0.16 0.15 0.13 0.16 0.25 0.42 0.59 0.75 0.90 1.02 1.05 1.06 0.97 0.98 1.09 1.13 1.16 1.20 1.24 1.37 1.31 1.20 1.16 1.26 1.24 1.07 0.88 0.68 0.51 0.43 0.44 0.48 0.36 0.27 0.24 0.25 0.28 0.30 0.29 0.31 0.35
0.26 0.23 0.20 0.19 0.23 0.28 0.36 0.46 0.52 0.65 0.80 0.90 0.93 0.91 0.88 0.92 0.93 1.03 1.09 1.11 1.13 1.13 1.20 1.22 1.21 1.33 1.34 1.19 0.96 0.76 0.58 0.53 0.48 0.45 0.39 0.35 0.31 0.30 0.32 0.29 0.26 0.28 0.32
0.27 0.26 0.25 0.29 0.35 0.41 0.44 0.44 0.47 0.55 0.61 0.67 0.73 0.71 0.70 0.76 0.82 0.88 0.91 0.94 0.99 1.05 1.10 1.12 1.20 1.33 1.36 1.34 1.13 0.89 0.69 0.57 0.53 0.46 0.43 0.47 0.48 0.45 0.41 0.36 0.29 0.27 0.30
0.22 0.27 0.31 0.34 0.39 0.42 0.40 0.43 0.47 0.43 0.48 0.48 0.46 0.50 0.52 0.55 0.62 0.72 0.73 0.78 0.87 0.93 0.98 1.07 1.16 1.31 1.34 1.38 1.23 1.00 0.84 0.71 0.61 0.55 0.53 0.52 0.52 0.46 0.41 0.40 0.36 0.29 0.25
0.27 0.31 0.34 0.37 0.38 0.35 0.33 0.33 0.33 0.31 0.34 0.38 0.39 0.37 0.36 0.41 0.46 0.52 0.57 0.63 0.72 0.80 0.89 1.00 1.10 1.22 1.31 1.28 1.24 1.15 1.03 0.85 0.66 0.63 0.73 0.73 0.61 0.57 0.68 0.63 0.48 0.30 0.23
0.36 0.39 0.41 0.42 0.44 0.46 0.33 0.25 0.20 0.23 0.28 0.34 0.39 0.42 0.30 0.24 0.33 0.43 0.50 0.51 0.54 0.60 0.73 0.88 0.97 1.09 1.26 1.32 1.36 1.27 1.19 1.05 0.82 0.65 0.63 0.58 0.56 0.59 0.84 0.96 0.69 0.39 0.29
0.57 0.58 0.57 0.55 0.57 0.53 0.38 0.26 0.19 0.18 0.24 0.30 0.36 0.40 0.39 0.33 0.34 0.39 0.50 0.53 0.51 0.48 0.55 0.66 0.75 0.96 1.28 1.51 1.53 1.50 1.46 1.37 1.14 0.86 0.73 0.63 0.56 0.56 0.55 0.60 0.65 0.46 0.34
0.78 0.81 0.84 0.81 0.75 0.68 0.50 0.32 0.26 0.27 0.34 0.38 0.40 0.40 0.41 0.37 0.30 0.27 0.38 0.47 0.51 0.51 0.49 0.59 0.69 0.85 1.08 1.41 1.58 1.60 1.63 1.45 1.23 0.94 0.74 0.67 0.55 0.54 0.51 0.46 0.52 0.57 0.46
0.98 0.96 0.88 0.80 0.76 0.76 0.63 0.40 0.34 0.38 0.46 0.49 0.55 0.53 0.44 0.40 0.33 0.26 0.35 0.45 0.48 0.50 0.55 0.57 0.61 0.65 0.78 1.05 1.31 1.33 1.35 1.38 1.16 0.96 0.70 0.62 0.56 0.50 0.49 0.43 0.40 0.45 0.50

GEFSMA_prec_meanprecacc_114.txt.gz
Total_Precipitation_Accumulation
1.77 1.67 1.58 1.54 1.45 1.63 1.95 2.15 2.08 2.07 2.02 1.90 1.71 1.53 1.39 1.35 1.32 1.43 1.53 1.73 1.73 1.70 1.80 1.92 1.82 1.64 1.54 1.37 1.16 1.02 0.95 0.91 0.84 0.67 0.58 0.49 0.42 0.41 0.43 0.48 0.47 0.44 0.43
2.16 2.24 2.13 1.95 1.65 1.63 1.74 2.07 2.20 2.32 2.21 2.07 1.54 1.46 1.47 1.48 1.52 1.51 1.56 2.03 2.09 1.73 1.63 1.71 1.84 1.85 1.75 1.63 1.43 1.21 1.09 1.01 0.87 0.68 0.60 0.52 0.43 0.39 0.43 0.50 0.51 0.42 0.32
2.31 2.31 2.09 1.77 1.57 1.65 1.74 1.70 1.75 2.05 1.84 1.70 1.51 1.60 1.65 1.55 1.51 1.51 1.54 1.83 1.91 1.63 1.41 1.36 1.53 1.68 1.81 1.94 1.86 1.71 1.47 1.22 1.00 0.80 0.66 0.53 0.44 0.38 0.37 0.46 0.53 0.46 0.33
1.99 2.00 1.66 1.30 1.38 1.59 1.67 1.63 1.58 1.69 1.68 1.71 1.68 1.64 1.62 1.52 1.30 1.24 1.15 1.14 1.24 1.10 1.18 1.37 1.36 1.34 1.60 1.94 2.14 2.29 2.05 1.58 1.22 0.96 0.78 0.61 0.49 0.38 0.33 0.37 0.45 0.42 0.33
1.45 1.53 1.25 1.12 1.27 1.41 1.45 1.42 1.56 1.65 1.53 1.60 1.61 1.50 1.24 1.11 0.98 0.87 0.83 0.76 0.80 0.84 0.83 1.05 1.16 1.22 1.54 2.00 2.37 2.68 2.65 2.22 1.75 1.39 1.12 0.84 0.67 0.48 0.38 0.33 0.35 0.37 0.31
1.14 1.30 1.20 1.09 1.22 1.30 1.27 1.41 1.52 1.60 1.37 1.35 1.30 1.05 0.87 0.66 0.62 0.57 0.49 0.53 0.56 0.56 0.65 0.80 1.04 0.97 1.36 1.75 2.14 2.53 2.87 2.72 2.14 1.75 1.57 1.34 1.10 0.79 0.50 0.35 0.31 0.31 0.27
1.08 1.21 1.11 1.02 1.02 1.04 1.01 1.16 1.28 1.29 1.07 1.27 1.42 0.95 0.65 0.52 0.45 0.35 0.33 0.37 0.40 0.48 0.64 0.84 1.03 1.04 1.20 1.35 1.56 1.91 2.50 2.76 2.46 2.03 1.82 1.62 1.48 1.14 0.74 0.51 0.36 0.27 0.23
0.89 0.96 0.94 0.85 0.81 0.84 0.83 0.90 1.04 1.04 0.93 1.20 1.34 1.20 0.85 0.63 0.50 0.36 0.36 0.37 0.41 0.52 0.59 0.70 0.97 1.11 1.16 1.53 1.35 1.38 1.81 2.30 2.51 2.35 2.13 1.76 1.53 1.27 0.96 0.76 0.56 0.38 0.28
0.62 0.61 0.61 0.65 0.70 0.70 0.72 0.78 0.94 1.07 0.94 0.97 1.19 1.31 1.05 0.74 0.65 0.50 0.49 0.53 0.58 0.65 0.72 0.86 0.98 1.09 1.18 1.45 1.49 1.45 1.45 1.61 2.13 2.59 2.59 2.10 1.55 1.25 1.16 1.11 0.98 0.71 0.52
0.44 0.43 0.45 0.55 0.62 0.67 0.71 0.67 0.72 0.88 0.93 0.85 0.95 1.06 1.08 1.08 1.02 0.74 0.56 0.53 0.60 0.63 0.66 0.71 0.81 0.96 1.04 1.26 1.59 1.58 1.43 1.33 1.51 2.14 2.56 2.50 2.01 1.44 1.19 1.24 1.51 1.37 0.97
0.43 0.39 0.39 0.41 0.50 0.58 0.64 0.66 0.69 0.74 0.81 0.80 0.81 0.86 0.93 1.03 1.03 0.94 0.69 0.54 0.55 0.54 0.61 0.67 0.74 0.81 0.89 1.14 1.52 1.53 1.52 1.33 1.27 1.45 1.84 2.08 2.03 1.74 1.48 1.51 2.00 2.31 2.03
0.39 0.39 0.39 0.41 0.43 0.44 0.48 0.55 0.61 0.66 0.72 0.74 0.74 0.81 0.89 0.88 0.88 0.99 0.86 0.70 0.64 0.58 0.67 0.74 0.85 0.94 0.96 1.04 1.03 1.10 1.12 1.14 1.11 1.07 1.14 1.31 1.56 1.69 1.72 1.91 2.33 2.76 2.91
0.32 0.36 0.38 0.43 0.48 0.49 0.49 0.51 0.57 0.64 0.70 0.76 0.75 0.78 0.86 0.90 0.90 0.99 0.96 0.79 0.73 0.77 0.88 0.90 0.89 0.97 0.93 1.09 1.03 0.87 0.73 0.74 0.74 0.73 0.75 0.85 1.04 1.26 1.41 1.54 1.85 2.24 2.56
0.29 0.35 0.40 0.43 0.46 0.52 0.55 0.62 0.65 0.70 0.75 0.78 0.76 0.87 0.93 0.89 0.98 1.04 1.10 1.12 1.00 0.99 1.12 1.01 0.83 0.82 0.85 0.88 0.84 0.76 0.76 0.61 0.51 0.47 0.48 0.54 0.62 0.74 0.87 1.02 1.20 1.40 1.62
0.24 0.25 0.32 0.43 0.45 0.48 0.56 0.65 0.69 0.74 0.80 0.85 0.89 0.98 1.05 1.03 1.03 1.03 1.16 1.26 1.30 1.25 1.28 1.17 0.99 0.88 0.80 0.73 0.72 0.71 0.76 0.72 0.52 0.38 0.35 0.36 0.44 0.51 0.56 0.59 0.69 0.80 0.93
0.21 0.22 0.26 0.33 0.37 0.40 0.49 0.62 0.70 0.77 0.89 0.97 0.97 1.00 1.08 1.11 1.16 1.16 1.17 1.25 1.38 1.46 1.40 1.13 1.05 0.97 0.84 0.65 0.62 0.59 0.61 0.66 0.51 0.36 0.29 0.28 0.30 0.35 0.41 0.46 0.51 0.55 0.62
0.20 0.18 0.19 0.21 0.22 0.25 0.33 0.50 0.71 0.83 0.94 0.99 1.01 1.06 1.09 1.18 1.20 1.12 1.17 1.23 1.33 1.46 1.33 1.07 1.11 1.23 1.09 0.84 0.66 0.59 0.52 0.52 0.50 0.43 0.29 0.25 0.25 0.26 0.31 0.35 0.37 0.42 0.47
0.22 0.19 0.17 0.16 0.14 0.17 0.26 0.43 0.60 0.76 0.91 1.02 1.05 1.06 0.97 0.98 1.09 1.13 1.16 1.20 1.24 1.37 1.31 1.20 1.16 1.26 1.24 1.07 0.88 0.68 0.51 0.43 0.44 0.48 0.36 0.27 0.24 0.25 0.28 0.30 0.29 0.31 0.35
0.29 0.26 0.23 0.21 0.25 0.30 0.37 0.47 0.53 0.65 0.81 0.90 0.93 0.92 0.88 0.92 0.93 1.03 1.09 1.11 1.13 1.13 1.20 1.22 1.21 1.33 1.34 1.19 0.96 0.76 0.58 0.53 0.48 0.45 0.39 0.35 0.31 0.30 0.32 0.29 0.26 0.28 0.32
0.29 0.28 0.27 0.31 0.37 0.43 0.46 0.46 0.49 0.56 0.62 0.68 0.73 0.72 0.70 0.76 0.82 0.88 0.91 0.94 0.99 1.05 1.10 1.12 1.20 1.33 1.36 1.34 1.13 0.89 0.69 0.57 0.53 0.46 0.43 0.47 0.48 0.45 0.41 0.36 0.29 0.27 0.30
0.27 0.31 0.35 0.37 0.41 0.44 0.43 0.46 0.50 0.45 0.51 0.50 0.48 0.51 0.53 0.56 0.63 0.72 0.74 0.78 0.87 0.93 0.98 1.08 1.16 1.31 1.34 1.39 1.23 1.00 0.84 0.71 0.61 0.55 0.53 0.52 0.52 0.46 0.41 0.40 0.36 0.29 0.25
0.33 0.38 0.40 0.41 0.42 0.38 0.36 0.36 0.36 0.34 0.37 0.41 0.41 0.39 0.38 0.43 0.48 0.53 0.58 0.63 0.73 0.81 0.90 1.00 1.10 1.22 1.31 1.29 1.24 1.15 1.03 0.85 0.66 0.63 0.74 0.73 0.61 0.57 0.68 0.63 0.48 0.30 0.23
0.44 0.46 0.48 0.50 0.51 0.53 0.39 0.30 0.25 0.27 0.32 0.37 0.42 0.44 0.32 0.26 0.35 0.44 0.51 0.52 0.54 0.61 0.74 0.88 0.98 1.09 1.26 1.33 1.36 1.27 1.19 1.05 0.82 0.65 0.63 0.58 0.56 0.60 0.84 0.96 0.69 0.39 0.29
0.67 0.68 0.68 0.67 0.67 0.62 0.47 0.32 0.25 0.23 0.29 0.34 0.39 0.43 0.41 0.35 0.35 0.41 0.50 0.54 0.51 0.49 0.55 0.67 0.76 0.96 1.28 1.51 1.53 1.50 1.46 1.37 1.14 0.87 0.74 0.63 0.56 0.56 0.55 0.60 0.65 0.46 0.34
0.93 0.97 0.99 0.95 0.89 0.82 0.63 0.41 0.32 0.31 0.38 0.41 0.43 0.43 0.43 0.39 0.32 0.28 0.39 0.48 0.52 0.52 0.50 0.59 0.69 0.85 1.08 1.41 1.59 1.61 1.64 1.46 1.23 0.95 0.74 0.68 0.55 0.54 0.51 0.46 0.52 0.57 0.46
1.12 1.11 1.02 0.94 0.89 0.87 0.76 0.51 0.43 0.43 0.50 0.52 0.58 0.56 0.47 0.43 0.36 0.29 0.36 0.46 0.48 0.50 0.55 0.58 0.62 0.66 0.79 1.06 1.32 1.35 1.36 1.39 1.17 0.96 0.70 0.63 0.57 0.51 0.49 0.43 0.40 0.45 0.50

GEFSMA_prec_meanprecacc_120.txt.gz
Total_Precipitation_Accumulation
1.81 1.71 1.63 1.58 1.49 1.66 1.98 2.17 2.09 2.08 2.03 1.92 1.72 1.56 1.43 1.37 1.34 1.45 1.57 1.77 1.77 1.74 1.85 1.98 1.87 1.70 1.60 1.44 1.24 1.09 1.01 0.96 0.89 0.71 0.61 0.52 0.44 0.43 0.45 0.51 0.50 0.45 0.44
2.21 2.29 2.18 2.00 1.71 1.68 1.78 2.10 2.21 2.35 2.24 2.11 1.57 1.49 1.49 1.51 1.55 1.54 1.60 2.09 2.14 1.77 1.67 1.77 1.91 1.92 1.81 1.69 1.51 1.27 1.15 1.06 0.91 0.71 0.62 0.55 0.46 0.41 0.46 0.54 0.55 0.45 0.34
2.36 2.36 2.15 1.83 1.62 1.70 1.79 1.74 1.79 2.09 1.88 1.74 1.54 1.64 1.68 1.59 1.55 1.54 1.58 1.90 1.98 1.68 1.45 1.42 1.60 1.76 1.89 2.01 1.94 1.78 1.53 1.28 1.06 0.84 0.69 0.55 0.47 0.40 0.40 0.50 0.57 0.49 0.36
2.04 2.06 1.72 1.35 1.42 1.63 1.71 1.68 1.64 1.73 1.71 1.74 1.72 1.68 1.65 1.55 1.33 1.26 1.18 1.20 1.33 1.16 1.24 1.41 1.40 1.40 1.66 2.02 2.24 2.40 2.12 1.63 1.27 1.00 0.81 0.64 0.51 0.40 0.35 0.40 0.48 0.45 0.36
1.51 1.60 1.32 1.19 1.31 1.44 1.48 1.45 1.60 1.69 1.57 1.63 1.64 1.53 1.26 1.14 1.01 0.89 0.86 0.81 0.87 0.92 0.93 1.11 1.19 1.25 1.58 2.06 2.46 2.79 2.75 2.28 1.79 1.44 1.16 0.88 0.72 0.51 0.40 0.35 0.37 0.39 0.34
1.21 1.37 1.26 1.14 1.25 1.33 1.30 1.44 1.56 1.63 1.41 1.38 1.31 1.07 0.89 0.67 0.63 0.58 0.51 0.57 0.61 0.62 0.70 0.86 1.12 1.01 1.39 1.79 2.20 2.62 2.97 2.79 2.19 1.80 1.64 1.40 1.15 0.83 0.54 0.38 0.33 0.33 0.29
1.12 1.28 1.17 1.07 1.06 1.08 1.04 1.18 1.31 1.31 1.08 1.28 1.43 0.97 0.67 0.52 0.45 0.36 0.35 0.40 0.43 0.50 0.67 0.89 1.09 1.10 1.24 1.38 1.59 1.96 2.56 2.83 2.53 2.10 1.89 1.68 1.53 1.18 0.77 0.54 0.39 0.29 0.25
0.95 1.02 1.00 0.88 0.85 0.88 0.85 0.93 1.06 1.06 0.94 1.20 1.35 1.22 0.87 0.66 0.52 0.37 0.37 0.38 0.42 0.54 0.62 0.73 1.01 1.16 1.20 1.58 1.39 1.40 1.86 2.36 2.58 2.42 2.20 1.82 1.57 1.31 0.99 0.79 0.59 0.41 0.30
0.68 0.66 0.66 0.69 0.73 0.73 0.74 0.81 0.96 1.08 0.95 0.97 1.19 1.33 1.06 0.76 0.67 0.51 0.50 0.54 0.59 0.68 0.75 0.88 1.01 1.12 1.21 1.49 1.54 1.48 1.48 1.65 2.18 2.66 2.66 2.16 1.60 1.29 1.19 1.15 1.03 0.75 0.56
0.49 0.47 0.49 0.58 0.65 0.69 0.74 0.68 0.72 0.89 0.94 0.86 0.95 1.06 1.08 1.09 1.03 0.76 0.57 0.54 0.61 0.65 0.68 0.73 0.83 0.99 1.07 1.30 1.62 1.59 1.44 1.33 1.52 2.16 2.60 2.55 2.05 1.46 1.20 1.27 1.56 1.42 1.02
0.47 0.43 0.42 0.44 0.53 0.60 0.66 0.68 0.69 0.75 0.81 0.80 0.81 0.86 0.93 1.04 1.03 0.95 0.71 0.55 0.55 0.54 0.61 0.68 0.77 0.83 0.91 1.16 1.55 1.54 1.53 1.34 1.27 1.46 1.85 2.10 2.05 1.75 1.50 1.54 2.03 2.36 2.09
0.44 0.43 0.42 0.44 0.45 0.46 0.49 0.56 0.62 0.67 0.72 0.75 0.74 0.81 0.89 0.88 0.88 0.99 0.87 0.71 0.65 0.59 0.67 0.75 0.86 0.95 0.96 1.05 1.03 1.11 1.12 1.15 1.13 1.08 1.15 1.33 1.57 1.71 1.74 1.94 2.37 2.81 2.97
0.35 0.39 0.40 0.46 0.51 0.51 0.51 0.52 0.58 0.64 0.71 0.76 0.75 0.78 0.86 0.90 0.91 0.99 0.96 0.80 0.74 0.77 0.88 0.90 0.89 0.97 0.93 1.09 1.03 0.87 0.73 0.75 0.75 0.74 0.75 0.85 1.04 1.27 1.43 1.56 1.87 2.26 2.59
0.32 0.38 0.43 0.46 0.49 0.54 0.56 0.63 0.66 0.71 0.76 0.79 0.77 0.88 0.93 0.89 0.98 1.04 1.10 1.12 1.01 0.99 1.12 1.01 0.83 0.82 0.85 0.88 0.84 0.76 0.76 0.61 0.51 0.47 0.48 0.54 0.62 0.74 0.88 1.03 1.21 1.41 1.63
0.27 0.29 0.35 0.46 0.47 0.50 0.57 0.66 0.71 0.75 0.81 0.86 0.89 0.99 1.05 1.03 1.03 1.03 1.16 1.26 1.30 1.25 1.28 1.17 0.99 0.88 0.80 0.73 0.72 0.71 0.76 0.72 0.52 0.38 0.35 0.36 0.44 0.51 0.56 0.59 0.69 0.81 0.93
0.24 0.26 0.29 0.35 0.39 0.42 0.51 0.64 0.71 0.79 0.91 0.98 0.98 1.00 1.08 1.12 1.16 1.16 1.17 1.25 1.38 1.46 1.40 1.13 1.05 0.97 0.84 0.65 0.62 0.59 0.61 0.66 0.51 0.36 0.29 0.28 0.30 0.35 0.41 0.46 0.51 0.55 0.62
0.24 0.22 0.22 0.23 0.24 0.28 0.36 0.53 0.72 0.84 0.95 1.00 1.02 1.06 1.10 1.18 1.20 1.12 1.17 1.23 1.33 1.46 1.33 1.07 1.11 1.23 1.09 0.84 0.66 0.59 0.52 0.52 0.50 0.43 0.29 0.25 0.25 0.26 0.31 0.35 0.37 0.42 0.47
0.25 0.22 0.20 0.19 0.17 0.19 0.29 0.45 0.62 0.77 0.92 1.03 1.06 1.08 0.98 0.99 1.09 1.14 1.17 1.21 1.24 1.37 1.31 1.20 1.16 1.26 1.24 1.07 0.88 0.68 0.51 0.43 0.44 0.48 0.36 0.27 0.24 0.25 0.28 0.30 0.29 0.31 0.35
0.34 0.30 0.27 0.25 0.29 0.34 0.41 0.49 0.56 0.68 0.83 0.92 0.95 0.93 0.90 0.93 0.94 1.04 1.10 1.12 1.13 1.14 1.20 1.22 1.21 1.33 1.34 1.19 0.97 0.76 0.58 0.53 0.48 0.45 0.39 0.35 0.31 0.30 0.32 0.29 0.26 0.28 0.32
0.34 0.33 0.32 0.35 0.41 0.47 0.49 0.49 0.52 0.60 0.66 0.71 0.76 0.74 0.72 0.78 0.84 0.90 0.93 0.95 1.00 1.05 1.11 1.13 1.20 1.33 1.36 1.35 1.14 0.89 0.69 0.57 0.53 0.46 0.43 0.47 0.48 0.45 0.41 0.36 0.29 0.27 0.30
0.30 0.36 0.40 0.42 0.45 0.48 0.45 0.50 0.54 0.49 0.55 0.53 0.50 0.53 0.55 0.59 0.65 0.74 0.75 0.79 0.88 0.94 0.99 1.09 1.17 1.32 1.35 1.40 1.24 1.01 0.85 0.72 0.61 0.56 0.54 0.52 0.52 0.46 0.41 0.40 0.36 0.29 0.25
0.36 0.41 0.44 0.46 0.47 0.41 0.40 0.39 0.40 0.38 0.40 0.44 0.44 0.42 0.40 0.45 0.49 0.55 0.59 0.65 0.74 0.83 0.92 1.02 1.12 1.24 1.33 1.32 1.27 1.17 1.04 0.86 0.67 0.64 0.75 0.74 0.61 0.57 0.68 0.63 0.48 0.30 0.23
0.48 0.50 0.52 0.54 0.56 0.58 0.43 0.34 0.29 0.31 0.35 0.40 0.45 0.47 0.35 0.28 0.37 0.46 0.54 0.54 0.57 0.64 0.77 0.91 1.00 1.12 1.29 1.36 1.39 1.29 1.21 1.07 0.83 0.66 0.64 0.58 0.56 0.60 0.84 0.96 0.69 0.39 0.29
0.71 0.74 0.74 0.72 0.72 0.67 0.52 0.37 0.29 0.27 0.32 0.37 0.42 0.46 0.44 0.39 0.39 0.45 0.55 0.57 0.55 0.52 0.58 0.68 0.78 0.98 1.31 1.54 1.56 1.52 1.48 1.38 1.15 0.87 0.75 0.64 0.56 0.56 0.55 0.61 0.65 0.46 0.34
1.00 1.04 1.06 1.01 0.95 0.88 0.70 0.47 0.38 0.36 0.42 0.45 0.48 0.49 0.49 0.45 0.38 0.34 0.44 0.52 0.55 0.55 0.52 0.61 0.70 0.86 1.09 1.42 1.60 1.63 1.65 1.47 1.24 0.95 0.76 0.69 0.56 0.55 0.52 0.46 0.52 0.58 0.47
1.18 1.15 1.06 0.98 0.93 0.93 0.81 0.56 0.49 0.50 0.58 0.61 0.68 0.66 0.58 0.53 0.45 0.35 0.40 0.49 0.51 0.54 0.59 0.61 0.64 0.67 0.80 1.07 1.33 1.36 1.37 1.41 1.19 0.98 0.72 0.65 0.58 0.53 0.50 0.44 0.41 0.45 0.50

GEFSMA_prec_meanprecacc_126.txt.gz
Total_Precipitation_Accumulation
1.88 1.79 1.71 1.66 1.55 1.72 2.05 2.24 2.13 2.12 2.05 1.93 1.73 1.57 1.44 1.39 1.35 1.48 1.60 1.78 1.78 1.75 1.87 2.00 1.89 1.71 1.62 1.47 1.28 1.14 1.06 1.00 0.91 0.72 0.62 0.53 0.45 0.45 0.47 0.53 0.52 0.46 0.45
2.28 2.36 2.24 2.09 1.78 1.74 1.84 2.15 2.25 2.38 2.27 2.13 1.58 1.50 1.50 1.52 1.57 1.57 1.65 2.12 2.15 1.78 1.68 1.79 1.93 1.92 1.82 1.71 1.53 1.31 1.18 1.10 0.93 0.73 0.64 0.57 0.47 0.42 0.47 0.56 0.57 0.46 0.35
2.42 2.42 2.20 1.87 1.67 1.75 1.83 1.77 1.82 2.13 1.91 1.76 1.57 1.66 1.69 1.59 1.56 1.57 1.62 1.96 2.01 1.68 1.46 1.43 1.62 1.78 1.90 2.02 1.95 1.80 1.55 1.30 1.08 0.85 0.70 0.56 0.48 0.41 0.40 0.51 0.58 0.50 0.37
2.07 2.11 1.76 1.39 1.46 1.67 1.74 1.72 1.67 1.76 1.74 1.78 1.76 1.71 1.69 1.57 1.35 1.29 1.21 1.22 1.37 1.19 1.27 1.43 1.42 1.42 1.68 2.04 2.25 2.41 2.13 1.65 1.29 1.01 0.82 0.65 0.52 0.41 0.35 0.41 0.50 0.46 0.37
1.53 1.63 1.36 1.24 1.34 1.47 1.50 1.47 1.63 1.74 1.63 1.68 1.67 1.56 1.28 1.16 1.03 0.92 0.89 0.83 0.89 0.96 0.97 1.13 1.20 1.26 1.59 2.07 2.47 2.81 2.76 2.30 1.81 1.46 1.17 0.90 0.73 0.52 0.42 0.37 0.38 0.40 0.35
1.22 1.39 1.28 1.16 1.28 1.36 1.34 1.49 1.61 1.68 1.46 1.42 1.34 1.09 0.90 0.69 0.65 0.61 0.53 0.59 0.63 0.65 0.74 0.91 1.16 1.03 1.41 1.81 2.22 2.64 2.99 2.81 2.21 1.82 1.65 1.41 1.17 0.85 0.55 0.40 0.34 0.34 0.30
1.15 1.30 1.20 1.10 1.09 1.12 1.10 1.24 1.35 1.35 1.12 1.32 1.46 1.01 0.70 0.54 0.47 0.37 0.36 0.42 0.45 0.53 0.70 0.95 1.14 1.15 1.28 1.40 1.60 1.97 2.59 2.86 2.56 2.12 1.91 1.71 1.55 1.20 0.79 0.55 0.40 0.30 0.26
0.98 1.04 1.02 0.91 0.89 0.93 0.90 0.98 1.11 1.10 0.97 1.22 1.37 1.28 0.95 0.73 0.56 0.38 0.38 0.39 0.44 0.56 0.65 0.76 1.05 1.21 1.24 1.63 1.41 1.41 1.87 2.38 2.61 2.45 2.22 1.84 1.58 1.32 1.00 0.80 0.60 0.42 0.31
0.70 0.69 0.69 0.72 0.78 0.76 0.79 0.85 1.00 1.10 0.98 1.00 1.21 1.36 1.13 0.83 0.72 0.55 0.52 0.56 0.61 0.70 0.77 0.91 1.03 1.15 1.24 1.55 1.58 1.49 1.48 1.65 2.20 2.68 2.68 2.17 1.62 1.30 1.19 1.15 1.04 0.76 0.56
0.53 0.50 0.52 0.62 0.69 0.72 0.79 0.71 0.75 0.92 0.98 0.89 0.97 1.08 1.10 1.12 1.06 0.80 0.59 0.56 0.63 0.68 0.70 0.75 0.86 1.01 1.10 1.33 1.65 1.60 1.44 1.34 1.53 2.18 2.62 2.57 2.07 1.47 1.21 1.27 1.57 1.44 1.03
0.51 0.45 0.45 0.48 0.57 0.64 0.71 0.71 0.73 0.77 0.83 0.82 0.83 0.87 0.94 1.04 1.04 0.98 0.75 0.58 0.58 0.57 0.63 0.69 0.78 0.85 0.93 1.18 1.57 1.55 1.53 1.34 1.27 1.47 1.86 2.11 2.07 1.76 1.51 1.54 2.04 2.38 2.11
0.47 0.45 0.45 0.47 0.48 0.50 0.53 0.59 0.64 0.68 0.74 0.76 0.76 0.82 0.91 0.89 0.89 1.01 0.90 0.74 0.69 0.62 0.69 0.75 0.87 0.96 0.97 1.06 1.04 1.11 1.13 1.15 1.13 1.08 1.15 1.33 1.58 1.72 1.75 1.94 2.38 2.82 2.98
0.38 0.42 0.44 0.50 0.54 0.54 0.53 0.55 0.59 0.66 0.72 0.77 0.76 0.79 0.87 0.91 0.91 1.00 0.97 0.82 0.76 0.79 0.89 0.91 0.89 0.98 0.94 1.10 1.04 0.87 0.73 0.75 0.75 0.74 0.75 0.85 1.05 1.27 1.43 1.57 1.88 2.27 2.61
0.35 0.42 0.48 0.50 0.52 0.57 0.58 0.65 0.67 0.72 0.78 0.80 0.77 0.88 0.94 0.90 0.99 1.05 1.11 1.13 1.02 1.00 1.13 1.01 0.83 0.82 0.85 0.88 0.84 0.76 0.76 0.61 0.51 0.47 0.48 0.54 0.62 0.74 0.88 1.03 1.21 1.41 1.64
0.30 0.34 0.40 0.50 0.51 0.54 0.60 0.69 0.73 0.78 0.84 0.88 0.91 1.00 1.06 1.04 1.03 1.03 1.16 1.26 1.31 1.26 1.29 1.17 0.99 0.88 0.80 0.73 0.73 0.71 0.76 0.72 0.52 0.38 0.35 0.36 0.44 0.51 0.56 0.59 0.70 0.81 0.93
0.30 0.32 0.33 0.40 0.42 0.46 0.55 0.68 0.75 0.82 0.94 1.00 1.00 1.02 1.10 1.12 1.17 1.17 1.18 1.25 1.38 1.46 1.40 1.13 1.05 0.97 0.84 0.65 0.62 0.59 0.61 0.66 0.51 0.36 0.29 0.28 0.30 0.35 0.41 0.46 0.51 0.55 0.62
0.31 0.29 0.27 0.28 0.28 0.32 0.40 0.57 0.75 0.87 0.98 1.02 1.04 1.08 1.12 1.20 1.22 1.13 1.18 1.23 1.33 1.46 1.34 1.07 1.12 1.23 1.09 0.84 0.67 0.59 0.52 0.52 0.50 0.43 0.29 0.25 0.25 0.26 0.31 0.35 0.37 0.42 0.47
0.32 0.28 0.27 0.25 0.21 0.23 0.33 0.49 0.65 0.80 0.95 1.06 1.10 1.13 1.03 1.03 1.14 1.16 1.18 1.21 1.24 1.38 1.32 1.21 1.17 1.26 1.24 1.07 0.88 0.68 0.51 0.43 0.44 0.48 0.36 0.27 0.24 0.25 0.28 0.30 0.29 0.31 0.35
0.42 0.37 0.34 0.31 0.34 0.38 0.45 0.52 0.59 0.72 0.88 0.97 1.01 0.99 0.95 1.00 1.00 1.09 1.14 1.14 1.14 1.15 1.22 1.23 1.22 1.34 1.35 1.19 0.97 0.77 0.58 0.53 0.48 0.46 0.39 0.35 0.31 0.30 0.32 0.29 0.26 0.28 0.32
0.43 0.41 0.39 0.42 0.48 0.52 0.53 0.54 0.57 0.65 0.71 0.77 0.82 0.80 0.79 0.85 0.90 0.96 0.98 1.00 1.04 1.09 1.15 1.15 1.22 1.34 1.37 1.36 1.15 0.91 0.71 0.58 0.54 0.46 0.44 0.47 0.48 0.45 0.41 0.36 0.29 0.27 0.30
0.38 0.47 0.49 0.52 0.55 0.55 0.50 0.54 0.59 0.55 0.62 0.59 0.56 0.59 0.61 0.66 0.72 0.80 0.80 0.84 0.93 0.99 1.04 1.13 1.20 1.35 1.38 1.44 1.29 1.05 0.88 0.74 0.62 0.56 0.54 0.53 0.52 0.46 0.42 0.40 0.37 0.30 0.26
0.46 0.52 0.52 0.55 0.57 0.48 0.47 0.45 0.46 0.43 0.47 0.51 0.51 0.49 0.47 0.51 0.54 0.58 0.62 0.68 0.77 0.86 0.96 1.08 1.17 1.29 1.39 1.38 1.33 1.22 1.09 0.90 0.69 0.65 0.77 0.75 0.62 0.58 0.68 0.64 0.48 0.31 0.23
0.61 0.63 0.65 0.65 0.68 0.69 0.53 0.41 0.34 0.35 0.41 0.47 0.52 0.55 0.41 0.33 0.42 0.50 0.58 0.58 0.59 0.66 0.78 0.94 1.04 1.16 1.34 1.42 1.45 1.34 1.27 1.12 0.87 0.69 0.68 0.60 0.56 0.60 0.84 0.97 0.70 0.40 0.30
0.83 0.85 0.85 0.82 0.82 0.76 0.60 0.43 0.34 0.30 0.36 0.43 0.51 0.56 0.55 0.49 0.49 0.52 0.61 0.63 0.59 0.57 0.62 0.72 0.80 1.00 1.34 1.59 1.61 1.56 1.54 1.43 1.17 0.89 0.78 0.67 0.57 0.57 0.55 0.61 0.66 0.47 0.35
1.12 1.15 1.17 1.13 1.07 1.01 0.78 0.53 0.42 0.38 0.46 0.51 0.56 0.58 0.59 0.56 0.46 0.40 0.50 0.59 0.63 0.62 0.58 0.66 0.74 0.88 1.10 1.44 1.62 1.65 1.68 1.51 1.26 0.97 0.79 0.74 0.58 0.57 0.53 0.47 0.53 0.60 0.48
1.31 1.30 1.22 1.13 1.07 1.05 0.91 0.64 0.54 0.54 0.63 0.68 0.76 0.75 0.66 0.61 0.53 0.41 0.48 0.58 0.59 0.61 0.66 0.68 0.69 0.71 0.83 1.09 1.35 1.38 1.41 1.46 1.23 1.01 0.74 0.70 0.62 0.57 0.54 0.45 0.42 0.47 0.52

GEFSMA_prec_meanprecacc_132.txt.gz
Total_Precipitation_Accumulation
1.90 1.81 1.72 1.67 1.56 1.73 2.06 2.25 2.15 2.16 2.09 1.96 1.77 1.61 1.50 1.47 1.41 1.51 1.63 1.81 1.81 1.79 1.91 2.03 1.90 1.73 1.63 1.48 1.30 1.16 1.08 1.01 0.92 0.73 0.63 0.54 0.45 0.46 0.47 0.54 0.53 0.46 0.45
2.29 2.37 2.26 2.10 1.81 1.76 1.86 2.17 2.28 2.41 2.30 2.16 1.62 1.54 1.54 1.56 1.61 1.61 1.67 2.14 2.17 1.81 1.71 1.83 1.96 1.95 1.83 1.72 1.55 1.32 1.20 1.11 0.94 0.73 0.65 0.58 0.48 0.43 0.48 0.57 0.58 0.47 0.35
2.43 2.44 2.22 1.89 1.69 1.77 1.86 1.80 1.86 2.16 1.93 1.79 1.60 1.70 1.72 1.63 1.61 1.61 1.65 1.98 2.02 1.70 1.48 1.47 1.66 1.81 1.93 2.05 1.97 1.82 1.57 1.32 1.10 0.87 0.71 0.58 0.49 0.41 0.41 0.52 0.59 0.50 0.37
2.08 2.13 1.77 1.41 1.48 1.70 1.76 1.74 1.69 1.79 1.77 1.81 1.79 1.75 1.72 1.60 1.39 1.33 1.25 1.26 1.40 1.21 1.29 1.46 1.45 1.46 1.72 2.07 2.27 2.43 2.16 1.67 1.30 1.02 0.83 0.66 0.53 0.41 0.36 0.41 0.50 0.47 0.37
1.54 1.64 1.37 1.26 1.36 1.49 1.53 1.49 1.65 1.75 1.64 1.70 1.69 1.59 1.31 1.19 1.07 0.96 0.93 0.86 0.92 0.99 1.00 1.15 1.23 1.29 1.62 2.11 2.51 2.84 2.80 2.33 1.83 1.47 1.18 0.90 0.74 0.53 0.42 0.37 0.39 0.41 0.35
1.23 1.40 1.29 1.18 1.29 1.38 1.36 1.51 1.63 1.69 1.47 1.43 1.35 1.11 0.93 0.71 0.68 0.64 0.56 0.61 0.66 0.68 0.78 0.93 1.17 1.05 1.43 1.85 2.26 2.68 3.03 2.85 2.24 1.84 1.67 1.44 1.19 0.86 0.56 0.40 0.35 0.34 0.30
1.17 1.32 1.21 1.11 1.11 1.14 1.12 1.25 1.36 1.36 1.13 1.32 1.48 1.03 0.73 0.56 0.49 0.39 0.39 0.45 0.48 0.55 0.72 0.96 1.15 1.16 1.29 1.43 1.64 2.01 2.63 2.91 2.60 2.15 1.95 1.74 1.58 1.22 0.80 0.56 0.41 0.31 0.27
1.02 1.06 1.03 0.92 0.90 0.94 0.92 0.99 1.12 1.11 0.98 1.23 1.38 1.29 0.96 0.74 0.57 0.39 0.40 0.41 0.46 0.58 0.67 0.77 1.06 1.22 1.24 1.64 1.42 1.43 1.90 2.42 2.64 2.49 2.26 1.87 1.61 1.34 1.02 0.81 0.61 0.43 0.32
0.73 0.71 0.70 0.73 0.78 0.77 0.80 0.86 1.01 1.11 0.99 1.00 1.22 1.37 1.13 0.84 0.73 0.56 0.53 0.58 0.64 0.74 0.79 0.93 1.04 1.16 1.25 1.56 1.59 1.51 1.50 1.68 2.23 2.73 2.72 2.21 1.64 1.32 1.22 1.17 1.06 0.77 0.58
0.56 0.53 0.53 0.63 0.69 0.72 0.79 0.72 0.77 0.93 0.99 0.89 0.98 1.08 1.11 1.13 1.07 0.81 0.60 0.57 0.64 0.70 0.73 0.77 0.87 1.02 1.12 1.35 1.66 1.61 1.46 1.36 1.56 2.21 2.65 2.60 2.09 1.48 1.23 1.29 1.59 1.46 1.05
0.54 0.47 0.46 0.48 0.57 0.64 0.71 0.72 0.75 0.78 0.84 0.82 0.83 0.87 0.94 1.05 1.04 0.99 0.76 0.59 0.59 0.58 0.64 0.70 0.79 0.86 0.95 1.19 1.57 1.55 1.53 1.34 1.28 1.48 1.87 2.13 2.08 1.77 1.51 1.55 2.05 2.39 2.14
0.50 0.48 0.46 0.47 0.49 0.50 0.53 0.61 0.65 0.69 0.74 0.76 0.76 0.82 0.91 0.90 0.89 1.01 0.90 0.75 0.69 0.62 0.69 0.75 0.87 0.96 0.97 1.06 1.04 1.11 1.13 1.16 1.14 1.09 1.16 1.34 1.59 1.73 1.77 1.96 2.39 2.84 3.01
0.41 0.45 0.45 0.51 0.55 0.55 0.55 0.56 0.61 0.67 0.73 0.78 0.77 0.80 0.87 0.91 0.92 1.01 0.98 0.82 0.76 0.79 0.89 0.91 0.89 0.98 0.94 1.10 1.04 0.87 0.74 0.76 0.75 0.75 0.76 0.85 1.06 1.28 1.45 1.59 1.89 2.30 2.63
0.36 0.45 0.50 0.52 0.54 0.59 0.60 0.68 0.69 0.73 0.79 0.81 0.78 0.89 0.94 0.90 0.99 1.05 1.12 1.14 1.02 1.00 1.13 1.02 0.83 0.82 0.85 0.89 0.84 0.77 0.76 0.61 0.51 0.47 0.48 0.54 0.63 0.74 0.89 1.04 1.23 1.43 1.66
0.33 0.36 0.44 0.54 0.55 0.57 0.63 0.72 0.75 0.79 0.86 0.89 0.92 1.01 1.07 1.04 1.04 1.04 1.16 1.27 1.31 1.26 1.29 1.17 0.99 0.88 0.80 0.74 0.73 0.71 0.76 0.72 0.52 0.38 0.35 0.36 0.44 0.51 0.56 0.59 0.70 0.81 0.93
0.37 0.38 0.39 0.45 0.48 0.50 0.59 0.72 0.78 0.85 0.97 1.03 1.01 1.03 1.11 1.13 1.18 1.17 1.18 1.26 1.38 1.47 1.40 1.13 1.05 0.97 0.85 0.65 0.62 0.59 0.61 0.66 0.51 0.37 0.29 0.28 0.30 0.35 0.41 0.46 0.51 0.55 0.62
0.39 0.36 0.33 0.34 0.35 0.37 0.44 0.60 0.78 0.90 1.01 1.05 1.07 1.10 1.13 1.21 1.23 1.14 1.19 1.25 1.34 1.48 1.35 1.07 1.12 1.23 1.10 0.84 0.67 0.60 0.52 0.52 0.50 0.43 0.29 0.25 0.25 0.26 0.31 0.35 0.37 0.42 0.47
0.39 0.35 0.34 0.33 0.27 0.27 0.37 0.52 0.68 0.84 0.99 1.10 1.13 1.15 1.06 1.06 1.16 1.18 1.20 1.23 1.25 1.39 1.33 1.21 1.17 1.26 1.25 1.08 0.89 0.68 0.51 0.44 0.44 0.48 0.36 0.27 0.24 0.25 0.28 0.30 0.29 0.31 0.35
0.52 0.46 0.41 0.39 0.40 0.44 0.50 0.57 0.64 0.77 0.93 1.01 1.05 1.02 0.98 1.02 1.01 1.11 1.17 1.16 1.16 1.16 1.23 1.24 1.22 1.34 1.35 1.20 0.98 0.78 0.59 0.53 0.49 0.46 0.40 0.35 0.31 0.30 0.32 0.30 0.27 0.28 0.33
0.53 0.52 0.47 0.50 0.57 0.62 0.62 0.62 0.64 0.70 0.75 0.81 0.86 0.84 0.82 0.87 0.92 1.00 1.02 1.03 1.07 1.11 1.17 1.17 1.22 1.34 1.38 1.37 1.17 0.93 0.72 0.59 0.55 0.47 0.45 0.47 0.48 0.45 0.42 0.37 0.29 0.27 0.30
0.49 0.59 0.61 0.64 0.68 0.67 0.61 0.65 0.68 0.63 0.69 0.65 0.62 0.64 0.66 0.73 0.79 0.86 0.84 0.87 0.96 1.02 1.07 1.15 1.22 1.37 1.39 1.45 1.30 1.06 0.89 0.75 0.63 0.58 0.56 0.54 0.54 0.47 0.42 0.41 0.38 0.31 0.27
0.61 0.66 0.66 0.69 0.70 0.61 0.59 0.59 0.58 0.56 0.59 0.60 0.58 0.57 0.54 0.59 0.60 0.63 0.67 0.72 0.81 0.90 0.99 1.10 1.19 1.30 1.40 1.39 1.34 1.24 1.10 0.91 0.70 0.66 0.79 0.75 0.63 0.58 0.69 0.65 0.49 0.32 0.24
0.76 0.77 0.80 0.81 0.82 0.83 0.69 0.57 0.51 0.50 0.54 0.58 0.61 0.62 0.48 0.40 0.50 0.57 0.66 0.65 0.65 0.70 0.81 0.96 1.05 1.16 1.36 1.44 1.47 1.36 1.29 1.13 0.87 0.70 0.70 0.61 0.57 0.61 0.85 0.97 0.70 0.40 0.31
0.95 0.98 1.00 0.97 0.97 0.90 0.75 0.56 0.48 0.41 0.45 0.51 0.57 0.61 0.60 0.54 0.54 0.58 0.67 0.69 0.65 0.62 0.66 0.75 0.81 1.01 1.35 1.60 1.64 1.59 1.56 1.44 1.18 0.89 0.79 0.68 0.58 0.58 0.56 0.62 0.67 0.48 0.36
1.25 1.28 1.30 1.27 1.23 1.15 0.92 0.65 0.53 0.48 0.54 0.57 0.61 0.62 0.63 0.58 0.50 0.43 0.53 0.62 0.66 0.65 0.62 0.69 0.76 0.90 1.13 1.46 1.66 1.69 1.71 1.53 1.28 0.98 0.80 0.75 0.59 0.58 0.54 0.48 0.55 0.61 0.50
1.46 1.46 1.37 1.28 1.23 1.21 1.07 0.79 0.67 0.63 0.71 0.75 0.82 0.79 0.70 0.64 0.55 0.44 0.50 0.60 0.61 0.63 0.70 0.72 0.72 0.74 0.85 1.13 1.40 1.43 1.45 1.49 1.26 1.03 0.76 0.71 0.64 0.59 0.56 0.47 0.43 0.49 0.54

GEFSMA_prec_meanprecacc_138.txt.gz
Total_Precipitation_Accumulation
1.91 1.81 1.73 1.68 1.56 1.74 2.07 2.25 2.16 2.16 2.10 1.98 1.78 1.63 1.52 1.49 1.43 1.52 1.63 1.84 1.84 1.83 1.95 2.08 1.95 1.77 1.67 1.52 1.34 1.19 1.10 1.04 0.93 0.74 0.64 0.55 0.47 0.48 0.50 0.56 0.54 0.47 0.46
2.30 2.37 2.27 2.11 1.82 1.76 1.87 2.18 2.29 2.42 2.31 2.18 1.63 1.55 1.54 1.58 1.63 1.62 1.69 2.16 2.20 1.84 1.75 1.88 2.03 2.04 1.90 1.78 1.59 1.37 1.24 1.15 0.96 0.75 0.67 0.59 0.49 0.45 0.51 0.60 0.61 0.49 0.36
2.44 2.45 2.23 1.90 1.70 1.77 1.87 1.82 1.88 2.19 1.96 1.81 1.63 1.73 1.74 1.65 1.61 1.61 1.66 2.00 2.04 1.73 1.52 1.52 1.72 1.90 2.00 2.10 2.01 1.87 1.61 1.35 1.12 0.89 0.73 0.60 0.50 0.43 0.42 0.53 0.62 0.54 0.39
2.09 2.14 1.79 1.42 1.49 1.71 1.78 1.77 1.74 1.84 1.81 1.85 1.82 1.79 1.75 1.62 1.40 1.34 1.26 1.27 1.41 1.23 1.32 1.51 1.51 1.52 1.79 2.15 2.33 2.48 2.21 1.72 1.34 1.05 0.85 0.67 0.54 0.42 0.37 0.42 0.52 0.49 0.39
1.55 1.65 1.38 1.27 1.36 1.50 1.56 1.53 1.69 1.79 1.68 1.74 1.73 1.64 1.35 1.21 1.08 0.97 0.94 0.87 0.94 1.01 1.02 1.18 1.27 1.32 1.67 2.17 2.57 2.90 2.87 2.40 1.88 1.50 1.21 0.93 0.76 0.54 0.43 0.38 0.40 0.42 0.37
1.25 1.40 1.30 1.19 1.30 1.39 1.39 1.54 1.66 1.72 1.49 1.46 1.38 1.15 0.96 0.73 0.69 0.65 0.57 0.63 0.68 0.69 0.79 0.94 1.19 1.07 1.47 1.90 2.31 2.74 3.09 2.92 2.30 1.88 1.71 1.47 1.22 0.89 0.58 0.42 0.36 0.35 0.31
1.20 1.33 1.22 1.12 1.11 1.15 1.14 1.28 1.38 1.37 1.15 1.34 1.50 1.06 0.75 0.58 0.50 0.41 0.40 0.46 0.50 0.57 0.73 0.97 1.16 1.17 1.31 1.46 1.67 2.05 2.68 2.98 2.67 2.21 1.99 1.79 1.62 1.25 0.82 0.58 0.43 0.33 0.29
1.05 1.08 1.04 0.92 0.91 0.95 0.93 1.01 1.13 1.12 0.99 1.24 1.40 1.31 0.97 0.75 0.58 0.40 0.41 0.42 0.48 0.61 0.69 0.78 1.07 1.24 1.25 1.65 1.43 1.46 1.94 2.48 2.71 2.55 2.32 1.91 1.65 1.37 1.04 0.83 0.63 0.45 0.35
0.77 0.73 0.72 0.73 0.79 0.78 0.81 0.87 1.02 1.13 1.00 1.01 1.23 1.37 1.13 0.85 0.73 0.56 0.54 0.59 0.65 0.75 0.80 0.93 1.05 1.17 1.26 1.58 1.60 1.53 1.54 1.72 2.29 2.80 2.79 2.25 1.68 1.35 1.25 1.20 1.08 0.79 0.59
0.59 0.55 0.55 0.64 0.70 0.73 0.80 0.73 0.78 0.94 1.00 0.90 0.98 1.08 1.11 1.13 1.07 0.81 0.60 0.57 0.65 0.71 0.74 0.78 0.88 1.03 1.13 1.36 1.68 1.63 1.48 1.38 1.60 2.26 2.71 2.65 2.12 1.51 1.25 1.32 1.62 1.49 1.07
0.59 0.51 0.49 0.50 0.59 0.66 0.72 0.73 0.76 0.79 0.85 0.83 0.83 0.87 0.94 1.05 1.04 0.99 0.76 0.59 0.59 0.58 0.64 0.70 0.79 0.86 0.96 1.20 1.58 1.57 1.54 1.35 1.30 1.50 1.90 2.17 2.11 1.80 1.53 1.57 2.08 2.42 2.17
0.55 0.51 0.49 0.50 0.51 0.52 0.56 0.63 0.67 0.71 0.76 0.77 0.77 0.83 0.91 0.90 0.89 1.01 0.90 0.75 0.69 0.62 0.69 0.75 0.87 0.96 0.98 1.07 1.05 1.12 1.14 1.17 1.15 1.10 1.17 1.36 1.61 1.75 1.78 1.98 2.41 2.86 3.04
0.43 0.46 0.47 0.53 0.59 0.59 0.58 0.59 0.63 0.69 0.74 0.79 0.78 0.81 0.88 0.91 0.92 1.01 0.98 0.82 0.76 0.79 0.89 0.91 0.89 0.98 0.94 1.10 1.04 0.87 0.74 0.77 0.76 0.75 0.76 0.86 1.06 1.29 1.46 1.60 1.91 2.31 2.66
0.40 0.48 0.53 0.56 0.59 0.63 0.64 0.71 0.73 0.76 0.81 0.83 0.80 0.91 0.95 0.90 0.99 1.05 1.12 1.14 1.02 1.00 1.13 1.02 0.83 0.82 0.85 0.89 0.84 0.77 0.76 0.61 0.51 0.47 0.48 0.54 0.63 0.75 0.89 1.05 1.23 1.44 1.67
0.38 0.42 0.49 0.59 0.60 0.61 0.66 0.75 0.78 0.82 0.89 0.91 0.94 1.03 1.08 1.05 1.05 1.04 1.17 1.27 1.31 1.26 1.29 1.17 0.99 0.88 0.80 0.74 0.73 0.71 0.76 0.72 0.52 0.38 0.35 0.36 0.44 0.51 0.56 0.59 0.70 0.81 0.94
0.45 0.44 0.45 0.51 0.54 0.56 0.63 0.76 0.81 0.87 1.00 1.05 1.04 1.05 1.12 1.14 1.19 1.18 1.19 1.27 1.39 1.47 1.40 1.13 1.05 0.97 0.85 0.65 0.62 0.59 0.61 0.66 0.51 0.37 0.29 0.28 0.30 0.35 0.41 0.46 0.51 0.55 0.62
0.51 0.44 0.39 0.41 0.43 0.45 0.51 0.66 0.82 0.94 1.05 1.09 1.09 1.12 1.14 1.23 1.25 1.16 1.21 1.26 1.35 1.48 1.35 1.07 1.12 1.23 1.10 0.84 0.67 0.60 0.52 0.52 0.50 0.43 0.29 0.25 0.25 0.26 0.31 0.35 0.37 0.42 0.47
0.52 0.48 0.45 0.43 0.37 0.35 0.44 0.58 0.73 0.90 1.03 1.13 1.17 1.19 1.08 1.09 1.18 1.20 1.22 1.24 1.26 1.40 1.33 1.22 1.17 1.27 1.25 1.08 0.89 0.69 0.51 0.44 0.44 0.48 0.36 0.27 0.24 0.26 0.28 0.30 0.29 0.31 0.35
0.66 0.61 0.55 0.50 0.49 0.51 0.57 0.64 0.71 0.83 0.98 1.07 1.11 1.09 1.03 1.06 1.03 1.13 1.18 1.17 1.17 1.17 1.24 1.24 1.23 1.35 1.36 1.21 0.99 0.78 0.59 0.53 0.49 0.46 0.40 0.36 0.32 0.30 0.32 0.30 0.27 0.28 0.33
0.67 0.66 0.61 0.62 0.66 0.71 0.72 0.72 0.72 0.77 0.81 0.86 0.91 0.89 0.86 0.91 0.95 1.02 1.03 1.04 1.08 1.13 1.18 1.18 1.23 1.35 1.38 1.37 1.18 0.93 0.72 0.60 0.55 0.47 0.45 0.48 0.49 0.46 0.42 0.37 0.29 0.27 0.30
0.65 0.74 0.75 0.77 0.80 0.78 0.73 0.77 0.78 0.70 0.74 0.70 0.66 0.68 0.70 0.77 0.82 0.89 0.86 0.90 0.99 1.05 1.09 1.17 1.23 1.37 1.39 1.45 1.30 1.06 0.90 0.75 0.64 0.58 0.56 0.54 0.54 0.48 0.43 0.42 0.38 0.31 0.27
0.73 0.81 0.81 0.82 0.82 0.71 0.70 0.70 0.70 0.66 0.68 0.67 0.64 0.62 0.59 0.64 0.65 0.69 0.72 0.77 0.86 0.94 1.01 1.12 1.20 1.31 1.40 1.40 1.35 1.24 1.10 0.91 0.70 0.66 0.79 0.76 0.63 0.59 0.70 0.65 0.50 0.33 0.25
0.88 0.92 0.98 0.97 0.98 0.97 0.83 0.70 0.64 0.62 0.65 0.67 0.70 0.70 0.54 0.46 0.55 0.61 0.70 0.69 0.68 0.73 0.85 0.99 1.07 1.18 1.37 1.45 1.48 1.36 1.29 1.14 0.88 0.70 0.70 0.61 0.58 0.61 0.85 0.98 0.71 0.41 0.31
1.09 1.14 1.17 1.12 1.10 1.03 0.87 0.67 0.58 0.51 0.55 0.60 0.66 0.70 0.67 0.60 0.59 0.63 0.70 0.71 0.67 0.64 0.70 0.78 0.83 1.03 1.37 1.62 1.65 1.59 1.56 1.45 1.18 0.89 0.80 0.69 0.58 0.58 0.56 0.62 0.68 0.49 0.37
1.38 1.42 1.46 1.41 1.33 1.24 1.00 0.73 0.61 0.54 0.60 0.63 0.68 0.69 0.69 0.63 0.54 0.47 0.55 0.64 0.67 0.67 0.64 0.71 0.78 0.91 1.14 1.47 1.66 1.70 1.72 1.54 1.29 0.98 0.80 0.76 0.60 0.58 0.54 0.49 0.55 0.62 0.51
1.58 1.61 1.51 1.40 1.33 1.30 1.17 0.89 0.75 0.71 0.78 0.81 0.89 0.86 0.75 0.69 0.60 0.48 0.54 0.63 0.63 0.64 0.71 0.73 0.73 0.75 0.86 1.14 1.42 1.44 1.47 1.51 1.27 1.04 0.76 0.73 0.65 0.60 0.57 0.47 0.44 0.49 0.55

GEFSMA_prec_meanprecacc_144.txt.gz
Total_Precipitation_Accumulation
1.94 1.86 1.76 1.71 1.58 1.75 2.09 2.28 2.17 2.18 2.12 2.00 1.81 1.64 1.54 1.50 1.44 1.53 1.67 1.88 1.87 1.86 2.00 2.13 1.99 1.81 1.70 1.55 1.38 1.21 1.12 1.05 0.95 0.75 0.65 0.56 0.47 0.48 0.51 0.57 0.55 0.48 0.46
2.34 2.41 2.30 2.13 1.83 1.77 1.88 2.19 2.30 2.44 2.34 2.22 1.66 1.57 1.56 1.59 1.64 1.63 1.72 2.21 2.24 1.88 1.79 1.93 2.07 2.09 1.95 1.81 1.62 1.41 1.28 1.18 0.98 0.76 0.68 0.61 0.50 0.45 0.52 0.61 0.63 0.49 0.37
2.47 2.48 2.26 1.92 1.72 1.78 1.88 1.83 1.89 2.21 2.00 1.85 1.68 1.78 1.78 1.68 1.64 1.64 1.69 2.05 2.09 1.76 1.55 1.56 1.77 1.94 2.05 2.16 2.07 1.92 1.66 1.40 1.15 0.90 0.74 0.61 0.52 0.44 0.43 0.55 0.63 0.54 0.39
2.12 2.16 1.81 1.44 1.51 1.72 1.79 1.79 1.77 1.88 1.87 1.91 1.92 1.88 1.82 1.68 1.43 1.35 1.28 1.30 1.46 1.27 1.36 1.55 1.55 1.56 1.83 2.19 2.37 2.54 2.28 1.78 1.39 1.07 0.86 0.68 0.55 0.43 0.37 0.43 0.53 0.50 0.40
1.59 1.68 1.42 1.31 1.38 1.52 1.59 1.55 1.73 1.85 1.74 1.82 1.80 1.72 1.41 1.24 1.11 0.99 0.96 0.89 0.97 1.05 1.07 1.21 1.29 1.34 1.70 2.20 2.60 2.95 2.93 2.45 1.92 1.53 1.24 0.94 0.77 0.55 0.44 0.38 0.41 0.43 0.37
1.30 1.46 1.34 1.23 1.32 1.42 1.44 1.59 1.72 1.79 1.57 1.54 1.43 1.20 1.00 0.77 0.72 0.67 0.58 0.65 0.71 0.72 0.82 0.96 1.21 1.09 1.49 1.92 2.34 2.76 3.12 2.96 2.34 1.92 1.75 1.50 1.25 0.90 0.59 0.42 0.37 0.36 0.32
1.28 1.41 1.26 1.17 1.15 1.20 1.22 1.34 1.43 1.45 1.22 1.40 1.57 1.12 0.79 0.61 0.53 0.42 0.42 0.47 0.51 0.59 0.76 1.00 1.19 1.20 1.33 1.48 1.69 2.07 2.70 3.00 2.70 2.25 2.04 1.83 1.65 1.27 0.83 0.59 0.44 0.34 0.30
1.11 1.14 1.10 0.97 0.96 1.02 1.01 1.08 1.21 1.20 1.06 1.30 1.47 1.37 1.03 0.81 0.63 0.42 0.42 0.43 0.49 0.62 0.70 0.79 1.09 1.27 1.27 1.67 1.44 1.47 1.96 2.50 2.74 2.59 2.35 1.94 1.67 1.40 1.06 0.85 0.64 0.46 0.35
0.82 0.79 0.79 0.80 0.85 0.83 0.87 0.95 1.10 1.22 1.09 1.07 1.27 1.42 1.18 0.89 0.77 0.59 0.55 0.59 0.67 0.77 0.82 0.96 1.07 1.19 1.27 1.60 1.63 1.54 1.54 1.73 2.30 2.82 2.82 2.28 1.70 1.36 1.26 1.22 1.09 0.79 0.60
0.67 0.62 0.61 0.70 0.77 0.80 0.87 0.80 0.85 1.02 1.10 0.98 1.03 1.10 1.13 1.15 1.11 0.85 0.63 0.58 0.66 0.73 0.75 0.79 0.89 1.05 1.14 1.38 1.70 1.63 1.48 1.39 1.61 2.28 2.75 2.68 2.15 1.53 1.27 1.33 1.64 1.50 1.09
0.67 0.59 0.55 0.56 0.65 0.74 0.81 0.82 0.84 0.87 0.92 0.89 0.88 0.90 0.96 1.07 1.07 1.02 0.79 0.62 0.61 0.58 0.64 0.71 0.81 0.88 0.97 1.21 1.60 1.57 1.54 1.36 1.30 1.51 1.92 2.19 2.14 1.83 1.56 1.59 2.10 2.44 2.19
0.63 0.58 0.56 0.57 0.57 0.58 0.63 0.71 0.75 0.78 0.82 0.84 0.82 0.86 0.94 0.92 0.93 1.04 0.93 0.78 0.72 0.63 0.69 0.75 0.87 0.96 0.98 1.07 1.05 1.12 1.14 1.17 1.15 1.11 1.18 1.36 1.62 1.77 1.81 2.00 2.44 2.88 3.07
0.51 0.52 0.52 0.60 0.65 0.65 0.64 0.66 0.70 0.75 0.81 0.86 0.84 0.85 0.91 0.94 0.95 1.03 1.00 0.84 0.79 0.80 0.90 0.91 0.89 0.98 0.94 1.11 1.04 0.87 0.75 0.77 0.76 0.75 0.76 0.86 1.06 1.30 1.47 1.61 1.92 2.33 2.68
0.48 0.57 0.61 0.62 0.65 0.69 0.70 0.77 0.78 0.82 0.87 0.88 0.84 0.95 0.99 0.94 1.02 1.08 1.15 1.17 1.05 1.02 1.15 1.02 0.84 0.82 0.85 0.89 0.84 0.77 0.77 0.61 0.52 0.48 0.49 0.54 0.63 0.75 0.89 1.05 1.24 1.45 1.68
0.47 0.51 0.57 0.66 0.67 0.67 0.71 0.80 0.82 0.87 0.94 0.96 0.98 1.08 1.12 1.09 1.09 1.07 1.20 1.31 1.34 1.28 1.30 1.18 1.00 0.88 0.80 0.74 0.73 0.71 0.77 0.72 0.52 0.38 0.35 0.37 0.44 0.52 0.56 0.59 0.70 0.81 0.94
0.55 0.54 0.53 0.59 0.61 0.62 0.69 0.83 0.86 0.93 1.06 1.10 1.08 1.10 1.17 1.19 1.23 1.21 1.23 1.30 1.42 1.49 1.43 1.14 1.06 0.98 0.85 0.65 0.62 0.60 0.62 0.66 0.51 0.37 0.29 0.28 0.30 0.35 0.41 0.46 0.51 0.55 0.62
0.59 0.53 0.48 0.49 0.50 0.52 0.58 0.72 0.87 0.99 1.10 1.13 1.13 1.16 1.20 1.28 1.29 1.20 1.25 1.30 1.39 1.52 1.38 1.09 1.13 1.24 1.11 0.86 0.69 0.61 0.52 0.52 0.50 0.44 0.29 0.25 0.25 0.26 0.31 0.35 0.38 0.42 0.47
0.61 0.57 0.54 0.51 0.43 0.42 0.52 0.65 0.80 0.96 1.10 1.20 1.23 1.25 1.15 1.14 1.24 1.26 1.27 1.29 1.31 1.44 1.37 1.25 1.20 1.28 1.27 1.11 0.92 0.71 0.52 0.44 0.45 0.49 0.36 0.27 0.25 0.26 0.28 0.30 0.30 0.32 0.36
0.77 0.72 0.65 0.58 0.56 0.59 0.65 0.72 0.78 0.90 1.04 1.13 1.18 1.16 1.11 1.15 1.11 1.20 1.26 1.24 1.23 1.21 1.28 1.28 1.26 1.38 1.39 1.23 1.02 0.81 0.61 0.56 0.50 0.47 0.41 0.36 0.32 0.31 0.33 0.30 0.27 0.28 0.33
0.77 0.77 0.74 0.76 0.80 0.84 0.82 0.79 0.78 0.83 0.87 0.92 0.96 0.95 0.93 0.97 1.02 1.09 1.11 1.12 1.16 1.20 1.24 1.23 1.27 1.40 1.43 1.41 1.22 0.97 0.77 0.65 0.58 0.49 0.46 0.48 0.49 0.46 0.42 0.37 0.30 0.27 0.30
0.73 0.84 0.88 0.92 0.96 0.94 0.86 0.88 0.88 0.79 0.83 0.78 0.74 0.75 0.76 0.83 0.88 0.94 0.90 0.96 1.05 1.11 1.15 1.23 1.29 1.43 1.45 1.50 1.35 1.10 0.93 0.80 0.67 0.60 0.58 0.56 0.55 0.49 0.44 0.43 0.39 0.31 0.27
0.83 0.94 0.97 1.00 1.00 0.89 0.88 0.86 0.83 0.78 0.81 0.80 0.76 0.73 0.69 0.71 0.71 0.74 0.76 0.81 0.91 1.00 1.08 1.19 1.27 1.38 1.47 1.46 1.40 1.28 1.13 0.94 0.73 0.68 0.81 0.77 0.64 0.60 0.71 0.67 0.51 0.33 0.25
0.98 1.02 1.10 1.13 1.14 1.14 1.00 0.86 0.80 0.77 0.83 0.86 0.89 0.86 0.65 0.54 0.62 0.67 0.76 0.74 0.74 0.79 0.91 1.05 1.13 1.24 1.43 1.50 1.54 1.41 1.34 1.18 0.91 0.73 0.73 0.63 0.59 0.63 0.86 0.98 0.71 0.41 0.32
1.20 1.27 1.30 1.24 1.24 1.20 1.06 0.85 0.78 0.69 0.72 0.79 0.84 0.86 0.82 0.75 0.72 0.74 0.81 0.80 0.74 0.69 0.74 0.81 0.87 1.07 1.41 1.66 1.70 1.64 1.61 1.48 1.22 0.93 0.83 0.71 0.61 0.61 0.57 0.63 0.68 0.50 0.37
1.48 1.56 1.61 1.55 1.45 1.38 1.15 0.85 0.74 0.67 0.72 0.75 0.79 0.81 0.81 0.75 0.66 0.56 0.62 0.69 0.73 0.72 0.68 0.76 0.82 0.95 1.18 1.51 1.70 1.73 1.74 1.57 1.31 1.01 0.84 0.79 0.62 0.61 0.57 0.51 0.57 0.63 0.51
1.69 1.72 1.63 1.51 1.44 1.42 1.28 0.97 0.83 0.78 0.85 0.88 0.97 0.95 0.84 0.76 0.66 0.54 0.59 0.70 0.72 0.73 0.79 0.80 0.79 0.79 0.90 1.17 1.45 1.47 1.49 1.54 1.31 1.07 0.80 0.75 0.68 0.63 0.59 0.49 0.46 0.51 0.57

GEFSMA_prec_meanprecacc_150.txt.gz
Total_Precipitation_Accumulation
2.02 1.95 1.86 1.78 1.64 1.78 2.12 2.32 2.21 2.24 2.16 2.01 1.82 1.66 1.55 1.51 1.44 1.54 1.69 1.90 1.89 1.87 2.01 2.14 2.00 1.82 1.71 1.56 1.38 1.22 1.13 1.06 0.95 0.75 0.65 0.56 0.48 0.48 0.51 0.57 0.56 0.48 0.46
2.40 2.48 2.37 2.20 1.89 1.81 1.90 2.22 2.33 2.47 2.37 2.24 1.69 1.59 1.60 1.63 1.66 1.66 1.75 2.23 2.26 1.89 1.80 1.94 2.09 2.11 1.97 1.82 1.64 1.42 1.29 1.19 0.99 0.76 0.68 0.61 0.51 0.46 0.53 0.62 0.63 0.50 0.37
2.52 2.53 2.33 1.98 1.76 1.80 1.90 1.85 1.92 2.22 2.03 1.89 1.73 1.82 1.83 1.74 1.66 1.65 1.73 2.09 2.12 1.77 1.57 1.58 1.78 1.95 2.06 2.18 2.08 1.94 1.68 1.42 1.17 0.91 0.74 0.61 0.52 0.44 0.44 0.55 0.64 0.55 0.40
2.16 2.21 1.87 1.49 1.54 1.74 1.80 1.82 1.79 1.91 1.90 1.96 1.97 1.92 1.87 1.74 1.46 1.37 1.29 1.34 1.51 1.30 1.39 1.56 1.56 1.57 1.84 2.20 2.38 2.55 2.30 1.80 1.40 1.08 0.87 0.68 0.55 0.43 0.38 0.43 0.53 0.50 0.40
1.62 1.71 1.47 1.36 1.41 1.55 1.61 1.56 1.75 1.88 1.81 1.87 1.82 1.76 1.43 1.27 1.13 1.00 0.97 0.91 0.99 1.08 1.10 1.23 1.30 1.35 1.71 2.21 2.62 2.96 2.94 2.47 1.94 1.54 1.25 0.95 0.78 0.55 0.44 0.39 0.41 0.43 0.37
1.33 1.50 1.39 1.26 1.35 1.46 1.48 1.62 1.76 1.84 1.63 1.59 1.46 1.26 1.03 0.78 0.73 0.68 0.60 0.67 0.73 0.73 0.83 0.98 1.22 1.10 1.49 1.93 2.35 2.78 3.14 2.98 2.36 1.93 1.75 1.51 1.27 0.92 0.60 0.43 0.37 0.36 0.32
1.32 1.45 1.31 1.23 1.20 1.27 1.26 1.37 1.48 1.51 1.27 1.45 1.63 1.19 0.83 0.63 0.56 0.44 0.43 0.49 0.53 0.60 0.78 1.02 1.20 1.22 1.34 1.49 1.70 2.09 2.72 3.03 2.74 2.27 2.05 1.85 1.66 1.29 0.84 0.60 0.45 0.34 0.30
1.13 1.17 1.16 1.03 1.02 1.10 1.07 1.14 1.28 1.29 1.14 1.35 1.54 1.50 1.15 0.89 0.69 0.44 0.44 0.44 0.51 0.64 0.71 0.82 1.13 1.30 1.29 1.69 1.45 1.48 1.97 2.51 2.76 2.61 2.36 1.95 1.68 1.40 1.07 0.86 0.64 0.46 0.36
0.85 0.83 0.84 0.86 0.92 0.88 0.93 1.01 1.16 1.31 1.19 1.14 1.32 1.51 1.31 1.02 0.85 0.64 0.58 0.62 0.69 0.80 0.84 0.98 1.10 1.21 1.30 1.64 1.65 1.55 1.55 1.73 2.31 2.84 2.83 2.29 1.70 1.37 1.27 1.22 1.09 0.80 0.60
0.71 0.65 0.65 0.76 0.83 0.85 0.95 0.84 0.90 1.09 1.19 1.05 1.08 1.14 1.19 1.24 1.21 0.96 0.69 0.61 0.69 0.75 0.78 0.80 0.91 1.07 1.17 1.42 1.73 1.64 1.48 1.39 1.61 2.29 2.76 2.71 2.17 1.54 1.28 1.34 1.65 1.51 1.09
0.72 0.63 0.60 0.62 0.71 0.81 0.88 0.87 0.91 0.92 0.98 0.95 0.93 0.94 1.02 1.13 1.12 1.09 0.89 0.69 0.67 0.61 0.65 0.72 0.82 0.89 1.00 1.24 1.63 1.58 1.54 1.36 1.30 1.51 1.92 2.20 2.16 1.85 1.57 1.60 2.11 2.46 2.21
0.71 0.63 0.61 0.64 0.63 0.65 0.70 0.76 0.80 0.82 0.87 0.89 0.87 0.90 0.99 0.99 0.98 1.10 1.00 0.84 0.77 0.64 0.69 0.76 0.88 0.97 0.99 1.08 1.06 1.13 1.14 1.18 1.16 1.11 1.18 1.37 1.63 1.79 1.82 2.02 2.46 2.90 3.10
0.61 0.60 0.58 0.67 0.71 0.71 0.70 0.71 0.74 0.81 0.87 0.92 0.90 0.90 0.95 0.98 0.97 1.07 1.05 0.90 0.84 0.83 0.92 0.92 0.90 0.99 0.96 1.11 1.05 0.88 0.75 0.77 0.76 0.76 0.77 0.86 1.07 1.31 1.48 1.63 1.94 2.35 2.71
0.60 0.69 0.70 0.70 0.72 0.75 0.75 0.85 0.84 0.88 0.93 0.94 0.89 1.01 1.04 0.97 1.05 1.11 1.20 1.24 1.13 1.08 1.19 1.04 0.84 0.83 0.86 0.89 0.85 0.78 0.77 0.62 0.52 0.48 0.49 0.55 0.63 0.75 0.89 1.05 1.24 1.46 1.69
0.61 0.64 0.68 0.74 0.74 0.76 0.80 0.90 0.90 0.95 1.02 1.02 1.03 1.14 1.17 1.13 1.13 1.11 1.25 1.37 1.41 1.36 1.38 1.22 1.02 0.91 0.83 0.77 0.76 0.73 0.78 0.73 0.53 0.39 0.35 0.37 0.45 0.52 0.56 0.60 0.70 0.82 0.94
0.69 0.68 0.64 0.69 0.71 0.73 0.80 0.94 0.96 1.04 1.15 1.18 1.15 1.18 1.24 1.25 1.30 1.27 1.28 1.38 1.49 1.57 1.49 1.18 1.08 0.99 0.87 0.68 0.67 0.62 0.64 0.70 0.53 0.37 0.29 0.28 0.31 0.36 0.41 0.46 0.52 0.55 0.62
0.74 0.68 0.62 0.62 0.62 0.63 0.70 0.84 0.98 1.10 1.19 1.22 1.20 1.24 1.27 1.36 1.38 1.28 1.32 1.37 1.47 1.59 1.43 1.12 1.16 1.28 1.16 0.90 0.73 0.64 0.55 0.56 0.53 0.47 0.31 0.26 0.26 0.27 0.31 0.35 0.38 0.42 0.47
0.76 0.71 0.67 0.64 0.54 0.54 0.65 0.78 0.91 1.06 1.19 1.28 1.30 1.33 1.22 1.23 1.33 1.34 1.35 1.36 1.38 1.52 1.43 1.30 1.26 1.36 1.36 1.18 0.99 0.77 0.55 0.46 0.49 0.57 0.43 0.31 0.26 0.27 0.29 0.31 0.30 0.32 0.36
0.94 0.88 0.80 0.73 0.69 0.72 0.79 0.85 0.88 1.00 1.14 1.22 1.26 1.23 1.18 1.23 1.19 1.28 1.34 1.32 1.31 1.30 1.37 1.36 1.33 1.46 1.47 1.31 1.11 0.88 0.67 0.63 0.55 0.54 0.48 0.41 0.35 0.32 0.34 0.31 0.28 0.29 0.33
0.96 0.95 0.90 0.92 0.94 0.98 0.96 0.92 0.89 0.93 0.97 1.01 1.05 1.03 1.01 1.04 1.09 1.17 1.18 1.20 1.23 1.27 1.33 1.31 1.36 1.50 1.53 1.51 1.32 1.05 0.84 0.73 0.65 0.53 0.50 0.52 0.52 0.48 0.44 0.38 0.30 0.28 0.30
0.87 1.01 1.04 1.08 1.11 1.08 0.98 0.99 0.99 0.90 0.95 0.90 0.85 0.85 0.86 0.91 0.94 0.99 0.94 1.01 1.11 1.18 1.23 1.32 1.39 1.53 1.54 1.60 1.44 1.17 1.00 0.87 0.74 0.65 0.63 0.59 0.58 0.52 0.47 0.45 0.40 0.32 0.28
0.97 1.09 1.14 1.16 1.14 1.01 1.01 1.00 0.96 0.91 0.95 0.93 0.89 0.86 0.79 0.79 0.77 0.78 0.80 0.85 0.95 1.05 1.14 1.27 1.35 1.46 1.55 1.54 1.48 1.34 1.19 1.01 0.79 0.74 0.88 0.83 0.68 0.65 0.76 0.71 0.56 0.37 0.27
1.10 1.16 1.29 1.33 1.29 1.27 1.13 0.97 0.91 0.88 0.94 0.98 1.01 1.00 0.79 0.66 0.74 0.77 0.85 0.80 0.78 0.83 0.95 1.11 1.20 1.31 1.50 1.58 1.61 1.48 1.42 1.26 0.99 0.80 0.81 0.69 0.65 0.69 0.89 1.02 0.77 0.45 0.35
1.29 1.38 1.43 1.36 1.34 1.30 1.17 0.94 0.85 0.77 0.82 0.90 0.96 0.98 0.95 0.89 0.89 0.93 0.97 0.93 0.84 0.77 0.81 0.87 0.93 1.13 1.48 1.73 1.76 1.70 1.67 1.54 1.27 0.98 0.90 0.76 0.66 0.67 0.62 0.67 0.73 0.54 0.41
1.56 1.65 1.69 1.63 1.54 1.47 1.24 0.93 0.81 0.74 0.81 0.85 0.90 0.91 0.92 0.85 0.79 0.71 0.77 0.85 0.87 0.83 0.77 0.82 0.87 1.00 1.22 1.54 1.73 1.76 1.79 1.62 1.35 1.06 0.90 0.84 0.66 0.65 0.61 0.55 0.60 0.67 0.54
1.77 1.81 1.71 1.59 1.51 1.48 1.34 1.02 0.88 0.84 0.93 0.97 1.05 1.04 0.94 0.85 0.77 0.64 0.68 0.78 0.80 0.81 0.87 0.89 0.86 0.85 0.96 1.22 1.49 1.51 1.53 1.58 1.35 1.12 0.84 0.79 0.71 0.66 0.63 0.53 0.49 0.54 0.59

GEFSMA_prec_meanprecacc_156.txt.gz
Total_Precipitation_Accumulation
2.04 1.97 1.89 1.82 1.69 1.81 2.15 2.36 2.26 2.29 2.21 2.06 1.87 1.71 1.61 1.56 1.49 1.58 1.71 1.92 1.91 1.89 2.03 2.16 2.01 1.83 1.71 1.56 1.39 1.22 1.13 1.07 0.96 0.76 0.65 0.57 0.48 0.49 0.51 0.57 0.56 0.48 0.47
2.42 2.51 2.40 2.26 1.95 1.86 1.94 2.25 2.36 2.51 2.42 2.29 1.74 1.66 1.66 1.69 1.72 1.69 1.77 2.25 2.28 1.90 1.82 1.96 2.11 2.12 1.98 1.82 1.64 1.42 1.29 1.19 0.99 0.77 0.69 0.62 0.51 0.46 0.53 0.62 0.63 0.50 0.37
2.54 2.55 2.36 2.01 1.80 1.84 1.94 1.89 1.95 2.25 2.07 1.94 1.78 1.88 1.90 1.82 1.73 1.68 1.75 2.10 2.13 1.79 1.59 1.60 1.80 1.98 2.07 2.18 2.08 1.95 1.70 1.43 1.17 0.91 0.75 0.61 0.52 0.45 0.44 0.55 0.64 0.55 0.40
2.18 2.23 1.89 1.52 1.58 1.77 1.84 1.87 1.83 1.95 1.95 2.00 2.03 1.99 1.94 1.82 1.52 1.40 1.32 1.36 1.52 1.31 1.40 1.59 1.59 1.59 1.86 2.22 2.40 2.57 2.33 1.83 1.41 1.09 0.88 0.69 0.56 0.44 0.38 0.43 0.53 0.51 0.40
1.64 1.73 1.50 1.38 1.44 1.58 1.66 1.60 1.79 1.92 1.85 1.91 1.87 1.82 1.50 1.33 1.18 1.05 1.00 0.93 1.01 1.09 1.11 1.24 1.33 1.38 1.73 2.24 2.64 2.99 2.97 2.49 1.95 1.55 1.26 0.96 0.79 0.56 0.45 0.39 0.41 0.43 0.38
1.36 1.52 1.41 1.28 1.38 1.49 1.52 1.67 1.81 1.89 1.67 1.62 1.53 1.35 1.09 0.84 0.77 0.73 0.63 0.70 0.76 0.75 0.85 0.99 1.23 1.12 1.53 1.96 2.38 2.82 3.17 3.01 2.38 1.94 1.77 1.53 1.28 0.93 0.61 0.43 0.37 0.37 0.33
1.36 1.48 1.33 1.25 1.22 1.30 1.29 1.41 1.52 1.55 1.30 1.48 1.71 1.30 0.92 0.69 0.61 0.49 0.46 0.53 0.56 0.63 0.81 1.04 1.22 1.23 1.35 1.50 1.72 2.12 2.76 3.06 2.77 2.28 2.06 1.86 1.67 1.30 0.85 0.61 0.46 0.35 0.30
1.18 1.20 1.19 1.05 1.04 1.13 1.11 1.18 1.30 1.31 1.16 1.38 1.58 1.57 1.22 0.94 0.73 0.47 0.47 0.47 0.55 0.67 0.75 0.85 1.15 1.31 1.30 1.70 1.46 1.50 2.00 2.54 2.80 2.65 2.39 1.97 1.69 1.41 1.08 0.87 0.65 0.47 0.37
0.90 0.88 0.87 0.89 0.94 0.90 0.96 1.04 1.18 1.32 1.20 1.15 1.34 1.55 1.35 1.05 0.88 0.67 0.63 0.68 0.77 0.87 0.90 1.02 1.13 1.23 1.31 1.65 1.66 1.56 1.56 1.75 2.34 2.87 2.87 2.32 1.73 1.38 1.28 1.24 1.11 0.81 0.61
0.75 0.71 0.71 0.80 0.87 0.88 0.98 0.87 0.92 1.11 1.20 1.07 1.09 1.16 1.20 1.27 1.23 0.97 0.72 0.67 0.77 0.84 0.84 0.84 0.93 1.09 1.19 1.44 1.75 1.65 1.49 1.40 1.63 2.31 2.80 2.75 2.20 1.56 1.30 1.36 1.66 1.53 1.11
0.77 0.69 0.67 0.67 0.76 0.85 0.91 0.90 0.93 0.94 0.99 0.96 0.94 0.96 1.04 1.14 1.13 1.10 0.90 0.73 0.71 0.64 0.68 0.74 0.85 0.92 1.02 1.27 1.64 1.59 1.55 1.36 1.31 1.53 1.95 2.23 2.20 1.88 1.60 1.63 2.13 2.48 2.23
0.80 0.72 0.69 0.71 0.69 0.70 0.74 0.79 0.83 0.84 0.89 0.91 0.89 0.92 1.01 1.00 1.00 1.12 1.02 0.86 0.78 0.66 0.71 0.79 0.90 0.99 1.01 1.10 1.07 1.13 1.16 1.19 1.17 1.12 1.19 1.39 1.66 1.83 1.86 2.06 2.50 2.95 3.14
0.71 0.70 0.68 0.75 0.79 0.77 0.75 0.76 0.78 0.84 0.90 0.94 0.93 0.92 0.97 1.00 1.00 1.10 1.10 0.94 0.87 0.84 0.93 0.93 0.91 1.01 0.98 1.15 1.08 0.89 0.76 0.79 0.78 0.77 0.77 0.87 1.08 1.32 1.50 1.66 1.98 2.40 2.76
0.70 0.82 0.83 0.81 0.81 0.82 0.81 0.91 0.89 0.91 0.95 0.96 0.92 1.03 1.06 0.99 1.07 1.15 1.27 1.31 1.16 1.10 1.21 1.06 0.86 0.86 0.89 0.93 0.89 0.81 0.80 0.65 0.55 0.49 0.50 0.55 0.64 0.76 0.90 1.06 1.26 1.48 1.72
0.73 0.80 0.84 0.87 0.85 0.84 0.88 0.99 0.98 1.01 1.08 1.06 1.07 1.17 1.19 1.15 1.16 1.15 1.30 1.45 1.48 1.39 1.39 1.24 1.05 0.94 0.87 0.82 0.84 0.81 0.84 0.79 0.58 0.42 0.37 0.39 0.46 0.53 0.57 0.60 0.71 0.83 0.95
0.80 0.79 0.77 0.81 0.84 0.85 0.92 1.07 1.08 1.13 1.24 1.25 1.22 1.25 1.28 1.28 1.34 1.30 1.32 1.46 1.57 1.61 1.52 1.20 1.11 1.02 0.91 0.73 0.74 0.69 0.71 0.78 0.61 0.44 0.34 0.32 0.33 0.37 0.42 0.47 0.52 0.56 0.63
0.85 0.79 0.74 0.75 0.75 0.76 0.84 0.98 1.11 1.21 1.30 1.31 1.28 1.31 1.31 1.39 1.42 1.32 1.36 1.43 1.54 1.66 1.48 1.16 1.20 1.31 1.20 0.95 0.79 0.70 0.60 0.62 0.64 0.60 0.41 0.32 0.29 0.29 0.33 0.37 0.39 0.43 0.48
0.88 0.83 0.81 0.79 0.68 0.66 0.76 0.88 1.02 1.19 1.31 1.38 1.40 1.42 1.29 1.30 1.40 1.41 1.42 1.43 1.45 1.58 1.49 1.36 1.31 1.39 1.40 1.23 1.04 0.82 0.60 0.51 0.56 0.66 0.50 0.38 0.32 0.32 0.33 0.34 0.32 0.33 0.37
1.06 1.01 0.96 0.90 0.85 0.87 0.94 1.00 1.03 1.15 1.29 1.35 1.39 1.35 1.29 1.33 1.27 1.35 1.41 1.41 1.40 1.38 1.45 1.42 1.38 1.50 1.50 1.34 1.15 0.93 0.72 0.68 0.60 0.60 0.55 0.47 0.42 0.39 0.39 0.36 0.31 0.31 0.35
1.06 1.08 1.04 1.08 1.11 1.14 1.13 1.08 1.03 1.07 1.12 1.17 1.21 1.17 1.13 1.14 1.17 1.25 1.26 1.27 1.32 1.36 1.41 1.38 1.43 1.55 1.57 1.55 1.35 1.08 0.87 0.76 0.68 0.57 0.55 0.56 0.57 0.53 0.48 0.42 0.34 0.31 0.33
0.98 1.12 1.16 1.25 1.32 1.31 1.19 1.17 1.14 1.03 1.11 1.09 1.04 1.02 1.00 1.04 1.08 1.13 1.07 1.11 1.20 1.26 1.31 1.39 1.45 1.59 1.59 1.65 1.48 1.21 1.03 0.90 0.77 0.68 0.67 0.63 0.61 0.55 0.50 0.48 0.43 0.36 0.31
1.06 1.17 1.22 1.31 1.32 1.20 1.20 1.17 1.11 1.06 1.10 1.10 1.06 1.03 0.93 0.93 0.90 0.90 0.92 0.97 1.06 1.13 1.20 1.32 1.40 1.51 1.61 1.60 1.54 1.40 1.26 1.07 0.86 0.80 0.94 0.89 0.73 0.70 0.79 0.74 0.59 0.41 0.33
1.18 1.24 1.36 1.42 1.42 1.41 1.28 1.12 1.06 1.03 1.10 1.14 1.16 1.13 0.90 0.75 0.82 0.85 0.92 0.90 0.88 0.94 1.05 1.19 1.28 1.38 1.57 1.65 1.69 1.56 1.50 1.35 1.08 0.87 0.87 0.74 0.69 0.72 0.91 1.04 0.80 0.48 0.38
1.37 1.46 1.51 1.45 1.44 1.42 1.29 1.06 0.98 0.89 0.94 1.02 1.06 1.07 1.02 0.95 0.96 1.00 1.05 1.04 0.99 0.96 1.01 1.06 1.09 1.26 1.58 1.81 1.83 1.76 1.72 1.60 1.32 1.02 0.93 0.80 0.70 0.71 0.65 0.70 0.75 0.55 0.42
1.63 1.71 1.77 1.73 1.63 1.58 1.38 1.05 0.91 0.83 0.90 0.95 0.99 0.99 0.97 0.89 0.85 0.77 0.83 0.92 0.96 0.94 0.89 0.95 0.99 1.10 1.30 1.62 1.79 1.81 1.84 1.66 1.39 1.09 0.93 0.88 0.69 0.68 0.64 0.58 0.62 0.68 0.56
1.86 1.87 1.78 1.65 1.58 1.56 1.46 1.15 0.98 0.93 1.00 1.04 1.11 1.09 1.00 0.92 0.84 0.70 0.73 0.84 0.85 0.87 0.92 0.94 0.93 0.92 1.01 1.28 1.54 1.54 1.56 1.61 1.39 1.15 0.87 0.81 0.73 0.68 0.65 0.55 0.51 0.55 0.60

GEFSMA_prec_meanprecacc_162.txt.gz
Total_Precipitation_Accumulation
2.06 1.99 1.90 1.84 1.69 1.82 2.16 2.38 2.27 2.30 2.22 2.08 1.89 1.73 1.63 1.58 1.51 1.59 1.73 1.95 1.93 1.91 2.05 2.17 2.03 1.84 1.72 1.56 1.39 1.23 1.15 1.08 0.97 0.77 0.67 0.58 0.49 0.49 0.52 0.58 0.56 0.49 0.47
2.44 2.54 2.43 2.28 1.95 1.87 1.95 2.26 2.38 2.52 2.44 2.31 1.77 1.69 1.68 1.71 1.73 1.69 1.78 2.28 2.31 1.93 1.85 1.99 2.13 2.13 1.99 1.83 1.65 1.44 1.31 1.21 1.01 0.78 0.70 0.63 0.52 0.47 0.53 0.63 0.63 0.50 0.38
2.57 2.58 2.39 2.03 1.82 1.86 1.95 1.90 1.97 2.27 2.09 1.96 1.82 1.91 1.92 1.84 1.74 1.68 1.75 2.11 2.15 1.81 1.62 1.64 1.85 2.01 2.10 2.20 2.10 1.97 1.72 1.45 1.19 0.92 0.76 0.63 0.53 0.46 0.45 0.56 0.64 0.55 0.40
2.21 2.26 1.91 1.53 1.61 1.80 1.86 1.88 1.85 1.97 1.97 2.03 2.06 2.02 1.97 1.83 1.53 1.40 1.32 1.36 1.53 1.32 1.42 1.63 1.63 1.64 1.91 2.27 2.43 2.60 2.37 1.86 1.43 1.11 0.89 0.70 0.57 0.45 0.39 0.44 0.54 0.51 0.41
1.67 1.77 1.53 1.41 1.47 1.61 1.69 1.61 1.80 1.95 1.89 1.95 1.91 1.86 1.55 1.37 1.20 1.05 1.01 0.94 1.02 1.10 1.12 1.26 1.37 1.42 1.78 2.29 2.70 3.05 3.02 2.54 1.99 1.58 1.28 0.98 0.80 0.57 0.45 0.40 0.42 0.44 0.38
1.40 1.56 1.45 1.34 1.42 1.53 1.55 1.68 1.82 1.91 1.70 1.67 1.59 1.41 1.15 0.88 0.79 0.74 0.64 0.71 0.78 0.76 0.85 0.99 1.25 1.14 1.56 2.01 2.45 2.88 3.23 3.06 2.42 1.97 1.79 1.55 1.30 0.94 0.62 0.45 0.38 0.38 0.33
1.41 1.53 1.38 1.30 1.26 1.33 1.32 1.43 1.55 1.58 1.35 1.52 1.77 1.35 0.95 0.72 0.63 0.50 0.48 0.55 0.58 0.65 0.82 1.06 1.22 1.24 1.36 1.53 1.76 2.16 2.82 3.12 2.81 2.31 2.08 1.87 1.69 1.31 0.87 0.62 0.47 0.36 0.32
1.24 1.25 1.24 1.10 1.07 1.15 1.14 1.22 1.33 1.34 1.20 1.41 1.62 1.61 1.25 0.95 0.75 0.49 0.48 0.49 0.57 0.69 0.77 0.87 1.16 1.32 1.30 1.71 1.47 1.53 2.04 2.60 2.87 2.70 2.43 2.00 1.72 1.43 1.09 0.88 0.66 0.49 0.38
0.96 0.93 0.92 0.93 0.98 0.93 0.99 1.08 1.22 1.36 1.24 1.18 1.37 1.57 1.36 1.07 0.89 0.68 0.64 0.70 0.79 0.88 0.91 1.03 1.14 1.24 1.32 1.66 1.67 1.58 1.59 1.80 2.41 2.95 2.93 2.37 1.76 1.40 1.29 1.25 1.13 0.83 0.62
0.83 0.78 0.77 0.87 0.92 0.92 1.02 0.91 0.96 1.15 1.24 1.11 1.12 1.17 1.22 1.28 1.24 0.98 0.73 0.68 0.78 0.85 0.86 0.86 0.95 1.11 1.21 1.45 1.75 1.66 1.50 1.43 1.67 2.37 2.87 2.81 2.24 1.59 1.32 1.38 1.69 1.56 1.13
0.86 0.76 0.74 0.75 0.83 0.91 0.96 0.95 0.97 0.97 1.02 0.99 0.98 0.99 1.07 1.16 1.15 1.11 0.91 0.73 0.72 0.66 0.70 0.76 0.87 0.94 1.04 1.28 1.66 1.60 1.55 1.37 1.33 1.57 2.00 2.28 2.25 1.93 1.64 1.66 2.16 2.52 2.27
0.90 0.80 0.77 0.81 0.79 0.78 0.79 0.84 0.88 0.88 0.92 0.94 0.93 0.95 1.04 1.02 1.02 1.14 1.03 0.86 0.79 0.67 0.72 0.80 0.91 1.01 1.03 1.12 1.09 1.14 1.16 1.20 1.19 1.14 1.22 1.42 1.70 1.87 1.91 2.10 2.54 3.00 3.20
0.79 0.79 0.77 0.86 0.91 0.88 0.83 0.83 0.84 0.89 0.95 0.98 0.96 0.96 1.00 1.02 1.03 1.13 1.12 0.95 0.87 0.84 0.94 0.94 0.92 1.02 1.00 1.16 1.09 0.90 0.77 0.81 0.81 0.79 0.79 0.88 1.09 1.34 1.53 1.70 2.03 2.46 2.83
0.77 0.93 0.96 0.95 0.95 0.97 0.93 1.00 0.97 0.98 1.02 1.02 0.97 1.08 1.09 1.02 1.12 1.21 1.31 1.34 1.17 1.11 1.21 1.07 0.88 0.87 0.91 0.94 0.91 0.84 0.82 0.68 0.58 0.53 0.52 0.57 0.65 0.77 0.91 1.08 1.29 1.51 1.75
0.82 0.92 0.97 1.00 0.97 0.95 0.98 1.09 1.08 1.11 1.16 1.13 1.13 1.23 1.24 1.20 1.20 1.19 1.34 1.48 1.50 1.41 1.41 1.26 1.07 0.96 0.89 0.85 0.88 0.85 0.87 0.82 0.61 0.45 0.41 0.43 0.49 0.55 0.59 0.62 0.72 0.84 0.96
0.87 0.87 0.85 0.90 0.94 0.94 1.01 1.17 1.18 1.22 1.35 1.34 1.31 1.32 1.33 1.33 1.40 1.35 1.36 1.50 1.62 1.65 1.54 1.22 1.13 1.04 0.94 0.76 0.78 0.73 0.76 0.82 0.66 0.48 0.39 0.36 0.37 0.40 0.44 0.49 0.54 0.57 0.64
0.91 0.86 0.82 0.83 0.85 0.85 0.92 1.06 1.20 1.31 1.40 1.40 1.38 1.40 1.39 1.48 1.50 1.39 1.42 1.48 1.58 1.69 1.50 1.18 1.22 1.34 1.23 0.98 0.83 0.74 0.66 0.69 0.69 0.65 0.47 0.38 0.34 0.33 0.36 0.39 0.41 0.44 0.49
0.93 0.89 0.89 0.88 0.78 0.76 0.85 0.97 1.11 1.28 1.40 1.47 1.50 1.53 1.40 1.40 1.49 1.48 1.49 1.49 1.50 1.63 1.54 1.41 1.35 1.43 1.43 1.26 1.07 0.86 0.65 0.57 0.61 0.72 0.56 0.44 0.39 0.38 0.39 0.38 0.36 0.37 0.40
1.12 1.10 1.06 1.01 0.96 0.99 1.08 1.14 1.17 1.29 1.43 1.49 1.52 1.48 1.41 1.44 1.36 1.44 1.49 1.47 1.46 1.45 1.51 1.48 1.44 1.56 1.56 1.38 1.19 0.97 0.76 0.71 0.64 0.64 0.59 0.53 0.48 0.46 0.46 0.42 0.36 0.35 0.39
1.12 1.16 1.13 1.17 1.20 1.23 1.24 1.22 1.20 1.22 1.25 1.28 1.31 1.27 1.24 1.27 1.29 1.37 1.36 1.35 1.39 1.44 1.51 1.48 1.52 1.64 1.67 1.64 1.44 1.16 0.93 0.82 0.73 0.61 0.60 0.62 0.62 0.59 0.55 0.48 0.39 0.36 0.38
1.02 1.18 1.23 1.32 1.39 1.37 1.25 1.25 1.24 1.13 1.20 1.19 1.16 1.14 1.13 1.18 1.20 1.25 1.18 1.22 1.31 1.38 1.43 1.52 1.59 1.75 1.76 1.81 1.63 1.33 1.14 0.98 0.84 0.73 0.71 0.69 0.68 0.62 0.57 0.54 0.49 0.41 0.37
1.11 1.23 1.27 1.36 1.37 1.26 1.28 1.27 1.24 1.18 1.22 1.21 1.17 1.12 1.03 1.03 1.00 1.00 1.02 1.07 1.16 1.25 1.34 1.47 1.54 1.65 1.73 1.72 1.66 1.52 1.36 1.16 0.94 0.88 1.02 0.98 0.83 0.79 0.87 0.80 0.64 0.46 0.37
1.22 1.29 1.41 1.46 1.46 1.47 1.35 1.21 1.19 1.15 1.21 1.26 1.29 1.28 1.03 0.85 0.91 0.92 1.01 0.98 0.95 1.02 1.12 1.26 1.35 1.46 1.65 1.73 1.78 1.67 1.63 1.49 1.24 1.03 1.02 0.87 0.80 0.81 0.98 1.10 0.85 0.53 0.43
1.41 1.50 1.55 1.49 1.49 1.48 1.38 1.16 1.09 1.01 1.08 1.18 1.24 1.26 1.20 1.10 1.08 1.10 1.15 1.13 1.06 1.03 1.08 1.13 1.19 1.37 1.69 1.92 1.94 1.89 1.87 1.74 1.45 1.15 1.04 0.90 0.78 0.79 0.71 0.75 0.80 0.60 0.46
1.68 1.76 1.82 1.77 1.67 1.63 1.45 1.13 1.01 0.94 1.03 1.06 1.09 1.09 1.06 0.97 0.94 0.85 0.89 0.98 1.02 0.99 0.96 1.02 1.09 1.21 1.43 1.75 1.90 1.91 1.94 1.77 1.51 1.20 1.02 0.97 0.77 0.75 0.69 0.62 0.66 0.72 0.59
1.92 1.95 1.84 1.71 1.63 1.61 1.51 1.21 1.05 1.01 1.10 1.14 1.20 1.17 1.10 1.01 0.93 0.78 0.80 0.90 0.91 0.92 0.97 0.98 0.97 0.97 1.07 1.35 1.63 1.62 1.63 1.68 1.44 1.21 0.92 0.86 0.79 0.74 0.71 0.60 0.54 0.58 0.62

GEFSMA_prec_meanprecacc_168.txt.gz
Total_Precipitation_Accumulation
2.09 2.03 1.93 1.86 1.72 1.85 2.19 2.41 2.29 2.34 2.26 2.11 1.91 1.75 1.64 1.59 1.51 1.60 1.75 1.96 1.96 1.94 2.07 2.20 2.06 1.85 1.73 1.58 1.42 1.26 1.16 1.10 0.98 0.78 0.68 0.59 0.49 0.49 0.53 0.58 0.57 0.50 0.48
2.48 2.58 2.47 2.31 1.99 1.90 2.00 2.30 2.41 2.57 2.48 2.35 1.80 1.71 1.70 1.72 1.75 1.70 1.80 2.30 2.33 1.94 1.88 2.04 2.18 2.17 2.01 1.85 1.67 1.47 1.34 1.23 1.02 0.79 0.71 0.64 0.53 0.48 0.54 0.63 0.64 0.50 0.38
2.62 2.63 2.42 2.08 1.87 1.90 2.01 1.96 2.01 2.31 2.13 2.01 1.87 1.95 1.94 1.87 1.76 1.71 1.78 2.14 2.18 1.83 1.65 1.67 1.89 2.06 2.14 2.23 2.12 2.00 1.75 1.47 1.20 0.93 0.77 0.64 0.54 0.46 0.45 0.56 0.65 0.55 0.40
2.25 2.30 1.95 1.58 1.66 1.85 1.91 1.95 1.91 2.02 2.03 2.10 2.13 2.07 2.01 1.87 1.55 1.43 1.36 1.40 1.56 1.34 1.44 1.64 1.65 1.66 1.93 2.30 2.47 2.65 2.41 1.89 1.45 1.12 0.91 0.71 0.58 0.45 0.39 0.44 0.54 0.51 0.41
1.70 1.81 1.59 1.47 1.52 1.67 1.75 1.66 1.86 2.01 1.96 2.02 1.98 1.92 1.60 1.43 1.25 1.08 1.03 0.97 1.06 1.14 1.15 1.28 1.38 1.43 1.80 2.32 2.75 3.10 3.07 2.57 2.01 1.59 1.30 1.00 0.81 0.58 0.46 0.40 0.42 0.44 0.39
1.45 1.62 1.51 1.41 1.47 1.59 1.64 1.76 1.91 1.98 1.78 1.74 1.64 1.45 1.20 0.92 0.83 0.79 0.68 0.74 0.82 0.80 0.86 1.00 1.27 1.16 1.57 2.03 2.49 2.91 3.28 3.10 2.45 1.99 1.81 1.56 1.31 0.96 0.63 0.46 0.39 0.38 0.34
1.48 1.60 1.44 1.37 1.32 1.39 1.40 1.51 1.63 1.65 1.41 1.59 1.84 1.41 0.98 0.74 0.65 0.54 0.51 0.58 0.61 0.67 0.84 1.07 1.24 1.26 1.39 1.54 1.77 2.18 2.86 3.17 2.87 2.35 2.10 1.89 1.70 1.33 0.88 0.63 0.48 0.37 0.32
1.30 1.31 1.30 1.18 1.15 1.23 1.22 1.30 1.42 1.42 1.26 1.47 1.71 1.70 1.31 1.00 0.78 0.51 0.50 0.52 0.59 0.72 0.79 0.89 1.18 1.35 1.32 1.73 1.48 1.54 2.06 2.64 2.93 2.76 2.47 2.03 1.75 1.45 1.11 0.89 0.67 0.49 0.39
1.04 1.00 0.99 1.02 1.08 1.01 1.07 1.16 1.30 1.45 1.33 1.24 1.45 1.66 1.44 1.14 0.95 0.71 0.65 0.71 0.83 0.92 0.94 1.06 1.15 1.25 1.34 1.69 1.70 1.59 1.60 1.81 2.44 3.00 3.00 2.42 1.80 1.44 1.32 1.27 1.14 0.84 0.64
0.92 0.87 0.87 0.98 1.04 1.02 1.11 0.98 1.03 1.23 1.34 1.19 1.20 1.25 1.29 1.34 1.31 1.03 0.76 0.70 0.81 0.89 0.89 0.88 0.97 1.12 1.22 1.48 1.78 1.67 1.50 1.43 1.68 2.40 2.93 2.88 2.30 1.63 1.35 1.42 1.72 1.58 1.15
0.94 0.85 0.85 0.88 0.97 1.01 1.06 1.04 1.07 1.04 1.09 1.07 1.05 1.06 1.13 1.23 1.22 1.18 0.97 0.79 0.78 0.71 0.73 0.80 0.90 0.97 1.05 1.31 1.70 1.61 1.56 1.37 1.34 1.58 2.02 2.32 2.31 1.99 1.68 1.70 2.20 2.56 2.31
0.97 0.86 0.85 0.92 0.92 0.89 0.91 0.96 0.98 0.96 1.00 1.02 1.01 1.03 1.11 1.10 1.09 1.22 1.10 0.92 0.85 0.72 0.78 0.84 0.94 1.03 1.06 1.15 1.11 1.15 1.17 1.21 1.19 1.14 1.23 1.42 1.72 1.91 1.94 2.14 2.59 3.05 3.25
0.87 0.85 0.82 0.94 1.02 1.00 0.95 0.95 0.98 1.00 1.05 1.07 1.04 1.03 1.07 1.08 1.10 1.20 1.19 1.01 0.92 0.88 0.98 0.97 0.94 1.04 1.01 1.17 1.11 0.92 0.79 0.83 0.81 0.79 0.79 0.89 1.11 1.36 1.56 1.73 2.08 2.52 2.90
0.83 1.00 1.05 1.03 1.05 1.07 1.02 1.12 1.09 1.10 1.15 1.13 1.05 1.17 1.19 1.09 1.20 1.26 1.37 1.41 1.24 1.16 1.27 1.11 0.90 0.89 0.93 0.97 0.94 0.87 0.84 0.70 0.60 0.54 0.54 0.59 0.67 0.79 0.93 1.11 1.32 1.55 1.79
0.86 0.97 1.04 1.09 1.06 1.03 1.06 1.19 1.18 1.22 1.29 1.25 1.24 1.36 1.35 1.31 1.31 1.28 1.43 1.57 1.60 1.49 1.47 1.30 1.10 0.99 0.91 0.88 0.90 0.88 0.90 0.86 0.65 0.49 0.44 0.45 0.52 0.59 0.62 0.65 0.75 0.86 0.98
0.93 0.93 0.92 0.99 1.02 1.01 1.07 1.25 1.27 1.33 1.48 1.47 1.43 1.46 1.47 1.48 1.55 1.49 1.49 1.61 1.72 1.74 1.61 1.26 1.17 1.07 0.97 0.80 0.81 0.76 0.80 0.86 0.69 0.52 0.43 0.39 0.40 0.44 0.48 0.53 0.58 0.61 0.67
1.00 0.95 0.91 0.91 0.94 0.92 0.98 1.13 1.27 1.41 1.52 1.52 1.49 1.53 1.53 1.64 1.67 1.54 1.54 1.59 1.68 1.78 1.58 1.24 1.27 1.38 1.28 1.06 0.89 0.79 0.70 0.73 0.73 0.70 0.51 0.42 0.39 0.38 0.43 0.46 0.46 0.50 0.55
1.02 1.00 1.00 0.97 0.89 0.86 0.94 1.08 1.22 1.38 1.50 1.58 1.62 1.66 1.54 1.57 1.67 1.62 1.60 1.59 1.61 1.77 1.69 1.54 1.46 1.53 1.53 1.35 1.16 0.94 0.71 0.62 0.67 0.80 0.64 0.51 0.46 0.45 0.47 0.47 0.44 0.44 0.48
1.17 1.14 1.11 1.07 1.04 1.10 1.21 1.27 1.30 1.40 1.54 1.60 1.64 1.61 1.57 1.63 1.54 1.58 1.63 1.61 1.60 1.60 1.68 1.64 1.57 1.67 1.66 1.47 1.27 1.06 0.84 0.81 0.72 0.73 0.69 0.61 0.56 0.54 0.54 0.50 0.45 0.44 0.48
1.17 1.20 1.15 1.20 1.24 1.28 1.31 1.32 1.31 1.35 1.38 1.40 1.43 1.40 1.39 1.42 1.44 1.52 1.50 1.49 1.54 1.59 1.65 1.61 1.64 1.75 1.77 1.75 1.56 1.30 1.09 0.98 0.87 0.73 0.71 0.71 0.71 0.67 0.62 0.55 0.46 0.43 0.46
1.07 1.23 1.27 1.36 1.44 1.41 1.30 1.31 1.31 1.21 1.29 1.29 1.27 1.27 1.29 1.35 1.37 1.40 1.31 1.34 1.45 1.52 1.57 1.65 1.73 1.89 1.91 1.98 1.81 1.52 1.34 1.19 1.01 0.86 0.83 0.80 0.78 0.71 0.66 0.64 0.59 0.51 0.46
1.18 1.28 1.33 1.42 1.44 1.33 1.36 1.36 1.34 1.29 1.36 1.35 1.31 1.26 1.16 1.16 1.14 1.15 1.17 1.20 1.30 1.38 1.48 1.61 1.68 1.78 1.86 1.85 1.79 1.65 1.51 1.31 1.07 1.00 1.14 1.10 0.94 0.89 0.98 0.91 0.76 0.57 0.48
1.27 1.34 1.45 1.50 1.50 1.53 1.44 1.31 1.31 1.27 1.33 1.38 1.40 1.39 1.14 0.99 1.07 1.07 1.16 1.12 1.07 1.12 1.21 1.36 1.45 1.56 1.75 1.82 1.87 1.76 1.73 1.60 1.35 1.14 1.11 0.98 0.92 0.93 1.10 1.21 0.96 0.63 0.52
1.44 1.54 1.58 1.52 1.52 1.54 1.45 1.21 1.14 1.07 1.15 1.26 1.33 1.37 1.34 1.26 1.23 1.25 1.29 1.26 1.16 1.12 1.18 1.22 1.28 1.45 1.77 2.00 2.02 1.97 1.97 1.85 1.57 1.26 1.15 1.02 0.90 0.90 0.80 0.83 0.87 0.66 0.52
1.71 1.79 1.85 1.82 1.72 1.68 1.48 1.17 1.04 0.98 1.08 1.14 1.17 1.18 1.17 1.08 1.07 0.99 1.03 1.10 1.13 1.09 1.05 1.10 1.14 1.26 1.48 1.81 1.98 2.00 2.05 1.89 1.64 1.33 1.14 1.08 0.89 0.84 0.77 0.69 0.72 0.77 0.64
1.96 2.00 1.89 1.76 1.67 1.65 1.56 1.26 1.10 1.05 1.16 1.21 1.27 1.25 1.21 1.13 1.05 0.90 0.90 0.99 1.01 1.00 1.03 1.03 1.01 1.00 1.10 1.38 1.67 1.67 1.69 1.76 1.53 1.29 0.99 0.93 0.85 0.80 0.76 0.65 0.59 0.62 0.66

GEFSMA_prec_meanprecacc_174.txt.gz
Total_Precipitation_Accumulation
2.15 2.09 1.99 1.94 1.78 1.88 2.24 2.47 2.35 2.40 2.33 2.17 1.93 1.76 1.65 1.59 1.52 1.62 1.78 1.97 1.97 1.95 2.09 2.22 2.07 1.87 1.75 1.60 1.44 1.28 1.18 1.12 0.99 0.79 0.70 0.59 0.50 0.50 0.53 0.59 0.57 0.50 0.48
2.54 2.64 2.52 2.37 2.04 1.94 2.04 2.33 2.44 2.62 2.54 2.39 1.82 1.72 1.72 1.73 1.76 1.72 1.83 2.32 2.34 1.95 1.89 2.05 2.19 2.19 2.03 1.85 1.68 1.48 1.35 1.25 1.03 0.80 0.72 0.65 0.54 0.48 0.54 0.63 0.64 0.51 0.38
2.68 2.68 2.48 2.13 1.92 1.94 2.05 2.00 2.05 2.35 2.17 2.05 1.90 1.97 1.97 1.90 1.77 1.74 1.81 2.19 2.21 1.84 1.65 1.68 1.90 2.06 2.15 2.23 2.12 2.00 1.76 1.48 1.20 0.94 0.78 0.64 0.55 0.47 0.46 0.56 0.65 0.56 0.41
2.29 2.34 2.00 1.63 1.73 1.91 1.97 2.00 1.95 2.06 2.07 2.15 2.18 2.13 2.07 1.92 1.57 1.45 1.38 1.43 1.62 1.37 1.46 1.65 1.66 1.67 1.94 2.30 2.47 2.66 2.42 1.90 1.46 1.13 0.91 0.72 0.58 0.46 0.40 0.45 0.54 0.51 0.41
1.72 1.84 1.64 1.54 1.59 1.76 1.80 1.70 1.91 2.06 2.02 2.08 2.01 1.98 1.66 1.49 1.30 1.11 1.05 0.99 1.10 1.19 1.19 1.29 1.38 1.44 1.80 2.33 2.75 3.10 3.07 2.58 2.02 1.60 1.31 1.00 0.82 0.59 0.46 0.41 0.43 0.44 0.39
1.48 1.66 1.56 1.46 1.51 1.65 1.71 1.83 1.98 2.04 1.83 1.78 1.66 1.51 1.25 0.97 0.88 0.83 0.70 0.75 0.84 0.82 0.90 1.04 1.28 1.16 1.58 2.04 2.49 2.93 3.29 3.11 2.46 2.00 1.82 1.57 1.31 0.96 0.63 0.46 0.39 0.39 0.35
1.52 1.65 1.49 1.45 1.37 1.46 1.47 1.57 1.68 1.70 1.45 1.62 1.90 1.50 1.04 0.78 0.70 0.59 0.55 0.60 0.61 0.69 0.87 1.12 1.27 1.30 1.40 1.55 1.78 2.19 2.87 3.20 2.89 2.37 2.12 1.90 1.71 1.34 0.88 0.63 0.48 0.37 0.33
1.37 1.35 1.37 1.25 1.24 1.33 1.31 1.38 1.51 1.50 1.34 1.53 1.81 1.85 1.43 1.11 0.85 0.57 0.53 0.54 0.60 0.73 0.82 0.91 1.22 1.39 1.36 1.77 1.51 1.55 2.07 2.66 2.96 2.79 2.50 2.06 1.77 1.47 1.12 0.90 0.68 0.50 0.40
1.11 1.07 1.08 1.11 1.19 1.09 1.17 1.26 1.40 1.56 1.44 1.33 1.53 1.78 1.58 1.30 1.06 0.78 0.68 0.75 0.86 0.96 0.97 1.10 1.19 1.30 1.38 1.78 1.77 1.62 1.64 1.84 2.46 3.03 3.04 2.46 1.83 1.46 1.34 1.29 1.16 0.86 0.65
1.00 0.96 0.97 1.10 1.15 1.11 1.24 1.06 1.14 1.37 1.49 1.30 1.29 1.35 1.37 1.46 1.47 1.15 0.83 0.74 0.86 0.94 0.93 0.92 1.02 1.21 1.31 1.59 1.91 1.73 1.54 1.45 1.69 2.42 2.97 2.92 2.33 1.66 1.38 1.45 1.75 1.61 1.18
1.03 0.93 0.96 1.03 1.11 1.12 1.17 1.16 1.23 1.17 1.21 1.18 1.16 1.19 1.28 1.38 1.35 1.31 1.12 0.91 0.86 0.76 0.78 0.87 1.00 1.10 1.17 1.43 1.83 1.67 1.60 1.41 1.35 1.59 2.04 2.35 2.34 2.03 1.73 1.75 2.24 2.60 2.35
1.06 0.95 0.96 1.07 1.07 1.03 1.05 1.08 1.10 1.07 1.13 1.16 1.14 1.15 1.23 1.23 1.21 1.34 1.26 1.07 0.98 0.80 0.85 0.91 1.02 1.11 1.13 1.22 1.17 1.19 1.21 1.25 1.22 1.16 1.24 1.44 1.74 1.94 1.99 2.20 2.66 3.14 3.35
0.95 0.93 0.92 1.08 1.17 1.14 1.08 1.09 1.11 1.13 1.19 1.21 1.15 1.13 1.16 1.17 1.20 1.33 1.34 1.14 1.07 0.97 1.06 1.05 1.02 1.11 1.06 1.25 1.20 1.00 0.85 0.89 0.85 0.82 0.80 0.90 1.12 1.38 1.59 1.78 2.14 2.60 3.00
0.90 1.07 1.15 1.14 1.16 1.19 1.17 1.30 1.23 1.23 1.29 1.28 1.17 1.31 1.30 1.18 1.30 1.39 1.51 1.56 1.40 1.29 1.40 1.22 1.01 1.01 1.02 1.06 1.07 1.00 0.90 0.76 0.64 0.57 0.55 0.60 0.68 0.81 0.96 1.13 1.35 1.59 1.84
0.95 1.07 1.17 1.24 1.21 1.17 1.22 1.38 1.34 1.37 1.44 1.38 1.35 1.48 1.47 1.41 1.42 1.39 1.56 1.74 1.82 1.71 1.66 1.46 1.24 1.13 1.05 1.00 1.04 0.97 0.97 0.96 0.71 0.54 0.48 0.48 0.54 0.60 0.64 0.67 0.77 0.89 1.01
1.04 1.05 1.04 1.13 1.16 1.14 1.22 1.43 1.43 1.49 1.64 1.61 1.56 1.60 1.62 1.59 1.65 1.59 1.62 1.78 1.93 1.97 1.78 1.37 1.29 1.22 1.14 0.93 0.96 0.88 0.92 1.00 0.79 0.59 0.48 0.44 0.43 0.46 0.51 0.55 0.61 0.66 0.73
1.08 1.04 1.01 1.05 1.07 1.05 1.12 1.29 1.43 1.58 1.68 1.69 1.64 1.68 1.70 1.79 1.82 1.69 1.70 1.75 1.86 1.99 1.77 1.39 1.44 1.57 1.49 1.25 1.09 0.97 0.87 0.87 0.83 0.79 0.60 0.52 0.47 0.44 0.47 0.50 0.51 0.56 0.64
1.08 1.08 1.11 1.10 1.02 1.00 1.10 1.25 1.39 1.55 1.68 1.75 1.78 1.83 1.69 1.74 1.87 1.81 1.79 1.78 1.81 1.98 1.90 1.74 1.67 1.73 1.70 1.49 1.30 1.08 0.82 0.71 0.76 0.90 0.73 0.60 0.54 0.53 0.53 0.52 0.49 0.51 0.56
1.21 1.19 1.18 1.15 1.13 1.19 1.31 1.39 1.44 1.55 1.69 1.74 1.78 1.76 1.70 1.78 1.73 1.78 1.83 1.80 1.77 1.75 1.83 1.81 1.73 1.81 1.76 1.56 1.37 1.15 0.93 0.90 0.81 0.82 0.78 0.71 0.66 0.64 0.63 0.58 0.53 0.52 0.56
1.20 1.23 1.20 1.26 1.30 1.33 1.37 1.38 1.39 1.43 1.49 1.51 1.53 1.50 1.49 1.55 1.60 1.68 1.66 1.65 1.68 1.71 1.78 1.75 1.77 1.86 1.87 1.85 1.67 1.41 1.21 1.09 0.97 0.83 0.82 0.83 0.82 0.77 0.70 0.62 0.54 0.51 0.54
1.10 1.27 1.32 1.41 1.49 1.47 1.35 1.37 1.38 1.29 1.39 1.37 1.33 1.33 1.36 1.44 1.45 1.50 1.43 1.46 1.57 1.64 1.69 1.78 1.87 2.02 2.02 2.09 1.92 1.64 1.46 1.31 1.13 0.98 0.94 0.89 0.87 0.81 0.77 0.75 0.69 0.62 0.56
1.22 1.33 1.37 1.47 1.50 1.38 1.42 1.43 1.42 1.39 1.44 1.44 1.40 1.35 1.24 1.23 1.20 1.22 1.25 1.30 1.39 1.49 1.60 1.74 1.81 1.90 1.98 1.97 1.92 1.77 1.64 1.44 1.18 1.09 1.22 1.18 1.01 0.98 1.08 1.01 0.88 0.67 0.56
1.32 1.38 1.50 1.54 1.54 1.57 1.49 1.37 1.37 1.35 1.41 1.46 1.49 1.49 1.24 1.07 1.14 1.13 1.23 1.20 1.16 1.21 1.31 1.45 1.56 1.68 1.87 1.96 2.01 1.91 1.87 1.74 1.46 1.23 1.20 1.06 0.98 0.99 1.14 1.26 1.03 0.69 0.59
1.46 1.57 1.62 1.55 1.56 1.58 1.49 1.24 1.17 1.09 1.18 1.30 1.38 1.43 1.41 1.32 1.29 1.31 1.35 1.33 1.24 1.20 1.27 1.31 1.36 1.54 1.86 2.09 2.11 2.06 2.06 1.94 1.66 1.34 1.23 1.10 0.97 0.96 0.86 0.89 0.94 0.72 0.57
1.73 1.81 1.87 1.84 1.75 1.71 1.51 1.18 1.06 0.99 1.11 1.16 1.19 1.22 1.22 1.13 1.12 1.06 1.11 1.18 1.19 1.17 1.13 1.17 1.21 1.32 1.53 1.86 2.03 2.06 2.11 1.97 1.73 1.43 1.24 1.17 0.97 0.91 0.84 0.75 0.78 0.83 0.69
1.97 2.01 1.91 1.79 1.70 1.67 1.58 1.27 1.11 1.08 1.21 1.25 1.31 1.30 1.28 1.22 1.15 1.00 0.99 1.07 1.07 1.08 1.12 1.11 1.08 1.06 1.15 1.43 1.72 1.71 1.74 1.82 1.60 1.36 1.06 1.01 0.93 0.87 0.84 0.71 0.63 0.66 0.69

GEFSMA_prec_meanprecacc_180.txt.gz
Total_Precipitation_Accumulation
2.16 2.11 2.02 1.97 1.82 1.92 2.26 2.50 2.38 2.44 2.38 2.21 1.96 1.79 1.69 1.62 1.54 1.63 1.79 1.98 1.98 1.96 2.10 2.23 2.08 1.87 1.76 1.61 1.45 1.29 1.19 1.13 0.99 0.80 0.70 0.60 0.50 0.50 0.53 0.59 0.57 0.50 0.49
2.55 2.66 2.54 2.39 2.07 1.99 2.08 2.36 2.47 2.64 2.56 2.41 1.85 1.75 1.75 1.76 1.77 1.73 1.84 2.32 2.35 1.96 1.90 2.06 2.21 2.20 2.04 1.86 1.69 1.50 1.37 1.25 1.04 0.81 0.74 0.66 0.54 0.48 0.55 0.64 0.65 0.52 0.39
2.69 2.69 2.50 2.16 1.95 1.98 2.09 2.05 2.09 2.38 2.20 2.07 1.93 2.01 2.00 1.93 1.79 1.75 1.82 2.19 2.21 1.85 1.66 1.69 1.91 2.08 2.17 2.25 2.13 2.01 1.77 1.49 1.20 0.94 0.79 0.65 0.55 0.47 0.46 0.57 0.65 0.56 0.41
2.30 2.36 2.03 1.68 1.77 1.96 2.03 2.07 2.01 2.10 2.11 2.20 2.21 2.17 2.10 1.95 1.60 1.47 1.39 1.44 1.62 1.37 1.46 1.65 1.67 1.68 1.96 2.33 2.49 2.67 2.43 1.91 1.46 1.13 0.92 0.72 0.59 0.46 0.40 0.45 0.55 0.52 0.42
1.75 1.88 1.67 1.58 1.63 1.81 1.85 1.74 1.95 2.11 2.07 2.11 2.05 2.03 1.71 1.53 1.35 1.15 1.08 1.01 1.11 1.20 1.19 1.30 1.40 1.45 1.82 2.34 2.77 3.12 3.09 2.59 2.02 1.61 1.31 1.00 0.82 0.59 0.47 0.41 0.43 0.45 0.39
1.53 1.71 1.60 1.48 1.54 1.67 1.74 1.85 2.01 2.07 1.87 1.81 1.70 1.57 1.31 1.02 0.94 0.89 0.75 0.78 0.86 0.84 0.90 1.05 1.29 1.18 1.59 2.05 2.51 2.95 3.32 3.14 2.48 2.02 1.84 1.58 1.32 0.96 0.64 0.46 0.40 0.39 0.35
1.59 1.73 1.54 1.49 1.40 1.47 1.50 1.59 1.72 1.74 1.50 1.66 1.99 1.63 1.12 0.84 0.77 0.69 0.63 0.64 0.65 0.71 0.89 1.15 1.31 1.34 1.44 1.58 1.81 2.23 2.92 3.25 2.95 2.42 2.16 1.93 1.74 1.36 0.90 0.64 0.49 0.38 0.33
1.45 1.43 1.44 1.31 1.28 1.37 1.36 1.42 1.55 1.54 1.38 1.59 1.91 1.99 1.55 1.20 0.92 0.64 0.59 0.59 0.66 0.79 0.87 0.97 1.29 1.48 1.47 1.86 1.59 1.62 2.14 2.75 3.03 2.84 2.55 2.11 1.82 1.51 1.15 0.92 0.70 0.51 0.41
1.22 1.16 1.15 1.18 1.25 1.15 1.22 1.31 1.46 1.61 1.48 1.38 1.62 1.90 1.70 1.38 1.12 0.83 0.73 0.82 0.93 1.03 1.06 1.21 1.31 1.44 1.53 1.91 1.87 1.72 1.72 1.92 2.53 3.11 3.13 2.56 1.90 1.50 1.36 1.32 1.20 0.89 0.67
1.16 1.06 1.04 1.16 1.22 1.18 1.29 1.11 1.19 1.43 1.56 1.36 1.36 1.42 1.43 1.53 1.53 1.19 0.87 0.81 0.93 1.01 1.02 1.04 1.15 1.36 1.48 1.71 2.01 1.83 1.62 1.52 1.76 2.50 3.07 3.02 2.40 1.72 1.43 1.50 1.80 1.66 1.22
1.13 1.01 1.02 1.10 1.17 1.17 1.22 1.21 1.28 1.24 1.28 1.24 1.24 1.26 1.35 1.48 1.43 1.38 1.17 0.96 0.93 0.82 0.85 0.96 1.13 1.28 1.34 1.56 1.94 1.76 1.69 1.49 1.43 1.65 2.11 2.43 2.44 2.13 1.81 1.82 2.32 2.67 2.41
1.11 1.01 1.03 1.15 1.14 1.10 1.10 1.13 1.17 1.14 1.19 1.22 1.21 1.22 1.32 1.31 1.27 1.40 1.31 1.10 1.03 0.85 0.91 0.99 1.14 1.25 1.27 1.34 1.26 1.28 1.33 1.40 1.36 1.27 1.33 1.52 1.81 2.02 2.07 2.28 2.75 3.23 3.46
1.00 0.99 0.99 1.17 1.26 1.22 1.16 1.18 1.20 1.22 1.28 1.29 1.22 1.22 1.27 1.25 1.28 1.41 1.41 1.19 1.11 1.02 1.14 1.15 1.13 1.25 1.22 1.37 1.32 1.14 1.04 1.11 1.05 0.97 0.93 0.99 1.19 1.44 1.64 1.85 2.22 2.69 3.11
0.95 1.13 1.21 1.23 1.25 1.29 1.28 1.42 1.34 1.32 1.39 1.39 1.29 1.45 1.44 1.29 1.42 1.54 1.64 1.67 1.49 1.39 1.48 1.32 1.16 1.17 1.18 1.20 1.23 1.21 1.12 0.98 0.85 0.75 0.70 0.71 0.76 0.87 1.01 1.19 1.41 1.66 1.92
1.01 1.14 1.24 1.34 1.33 1.31 1.36 1.52 1.51 1.53 1.59 1.52 1.50 1.65 1.62 1.53 1.53 1.52 1.70 1.89 1.95 1.80 1.75 1.56 1.36 1.26 1.20 1.17 1.27 1.19 1.19 1.18 0.90 0.69 0.61 0.58 0.62 0.67 0.70 0.72 0.83 0.95 1.07
1.10 1.12 1.11 1.19 1.22 1.22 1.33 1.56 1.58 1.63 1.77 1.75 1.72 1.76 1.75 1.69 1.75 1.70 1.74 1.93 2.08 2.09 1.88 1.46 1.40 1.34 1.28 1.14 1.20 1.11 1.14 1.22 0.97 0.74 0.62 0.57 0.55 0.57 0.59 0.63 0.67 0.71 0.79
1.15 1.11 1.07 1.10 1.10 1.08 1.17 1.34 1.48 1.65 1.79 1.84 1.80 1.81 1.81 1.89 1.92 1.80 1.84 1.89 2.01 2.15 1.90 1.51 1.56 1.69 1.63 1.42 1.28 1.20 1.09 1.06 0.98 0.92 0.72 0.64 0.59 0.56 0.57 0.58 0.58 0.62 0.70
1.13 1.14 1.16 1.14 1.04 1.03 1.13 1.29 1.44 1.63 1.79 1.89 1.94 1.98 1.83 1.87 1.97 1.93 1.91 1.91 1.96 2.17 2.10 1.94 1.86 1.91 1.85 1.62 1.43 1.23 0.96 0.84 0.89 1.03 0.85 0.71 0.65 0.64 0.65 0.63 0.59 0.60 0.63
1.24 1.23 1.22 1.18 1.16 1.23 1.36 1.44 1.50 1.64 1.80 1.88 1.93 1.92 1.90 1.97 1.90 1.94 1.98 1.95 1.92 1.91 1.99 1.96 1.87 1.97 1.91 1.67 1.47 1.26 1.04 1.02 0.91 0.94 0.89 0.79 0.74 0.72 0.72 0.68 0.63 0.63 0.66
1.21 1.24 1.22 1.29 1.34 1.39 1.44 1.46 1.46 1.51 1.61 1.68 1.68 1.62 1.58 1.64 1.70 1.79 1.78 1.77 1.80 1.83 1.92 1.88 1.89 1.98 1.99 1.97 1.78 1.51 1.31 1.18 1.06 0.93 0.92 0.91 0.90 0.87 0.82 0.73 0.63 0.60 0.63
1.12 1.29 1.34 1.44 1.52 1.50 1.40 1.43 1.44 1.37 1.52 1.48 1.39 1.37 1.39 1.47 1.48 1.53 1.47 1.52 1.64 1.71 1.77 1.86 1.96 2.11 2.12 2.19 2.02 1.74 1.55 1.40 1.23 1.08 1.03 0.99 0.99 0.92 0.88 0.86 0.79 0.69 0.63
1.24 1.35 1.40 1.52 1.55 1.42 1.47 1.50 1.49 1.46 1.50 1.47 1.42 1.37 1.27 1.26 1.23 1.25 1.29 1.35 1.46 1.57 1.70 1.84 1.90 1.97 2.05 2.06 2.01 1.86 1.73 1.53 1.29 1.20 1.32 1.29 1.10 1.07 1.17 1.12 0.99 0.75 0.61
1.34 1.40 1.52 1.56 1.56 1.61 1.54 1.42 1.44 1.38 1.43 1.47 1.51 1.51 1.27 1.11 1.17 1.17 1.29 1.27 1.24 1.28 1.38 1.52 1.63 1.75 1.94 2.04 2.10 2.01 1.97 1.85 1.58 1.35 1.30 1.16 1.06 1.08 1.23 1.34 1.10 0.74 0.64
1.47 1.58 1.63 1.56 1.57 1.61 1.52 1.29 1.21 1.12 1.20 1.31 1.40 1.45 1.44 1.34 1.31 1.33 1.39 1.37 1.28 1.25 1.33 1.36 1.42 1.60 1.91 2.15 2.18 2.14 2.14 2.03 1.75 1.43 1.31 1.18 1.04 1.02 0.91 0.93 0.99 0.77 0.62
1.73 1.81 1.88 1.85 1.76 1.72 1.53 1.20 1.08 1.01 1.13 1.18 1.21 1.23 1.24 1.16 1.15 1.09 1.14 1.21 1.23 1.22 1.20 1.24 1.27 1.37 1.58 1.92 2.09 2.12 2.18 2.05 1.83 1.53 1.33 1.27 1.05 0.98 0.90 0.80 0.83 0.89 0.75
1.98 2.01 1.92 1.80 1.71 1.69 1.60 1.29 1.12 1.09 1.22 1.26 1.33 1.32 1.30 1.24 1.18 1.04 1.03 1.10 1.09 1.11 1.16 1.16 1.13 1.11 1.21 1.49 1.78 1.78 1.82 1.90 1.67 1.44 1.14 1.08 1.01 0.93 0.89 0.76 0.68 0.70 0.74

GEFSMA_prec_meanprecacc_186.txt.gz
Total_Precipitation_Accumulation
2.18 2.12 2.03 1.98 1.84 1.94 2.28 2.52 2.40 2.45 2.39 2.22 1.97 1.80 1.70 1.63 1.55 1.63 1.79 2.00 2.01 2.00 2.13 2.25 2.09 1.88 1.77 1.62 1.47 1.31 1.21 1.14 1.00 0.81 0.71 0.60 0.51 0.51 0.54 0.59 0.58 0.51 0.49
2.57 2.67 2.55 2.40 2.09 2.01 2.09 2.39 2.50 2.66 2.58 2.43 1.86 1.75 1.75 1.77 1.78 1.73 1.84 2.34 2.38 1.99 1.93 2.09 2.23 2.21 2.05 1.88 1.70 1.52 1.39 1.27 1.05 0.82 0.74 0.67 0.56 0.49 0.55 0.64 0.65 0.53 0.40
2.70 2.70 2.51 2.18 1.97 1.99 2.11 2.07 2.12 2.41 2.21 2.08 1.95 2.02 2.02 1.95 1.81 1.77 1.84 2.20 2.23 1.88 1.70 1.72 1.94 2.10 2.20 2.28 2.15 2.03 1.79 1.50 1.21 0.95 0.79 0.66 0.56 0.48 0.47 0.58 0.66 0.57 0.42
2.31 2.37 2.04 1.71 1.81 1.98 2.05 2.09 2.03 2.13 2.15 2.23 2.24 2.19 2.13 1.98 1.62 1.50 1.42 1.46 1.63 1.39 1.49 1.69 1.70 1.72 1.99 2.35 2.51 2.70 2.46 1.92 1.47 1.14 0.93 0.73 0.59 0.47 0.41 0.46 0.56 0.53 0.43
1.79 1.90 1.69 1.61 1.67 1.84 1.87 1.75 1.96 2.14 2.11 2.15 2.08 2.07 1.75 1.58 1.38 1.17 1.10 1.03 1.13 1.20 1.20 1.33 1.44 1.49 1.85 2.38 2.81 3.17 3.13 2.62 2.04 1.62 1.32 1.01 0.83 0.60 0.47 0.42 0.44 0.46 0.40
1.60 1.77 1.64 1.53 1.58 1.71 1.76 1.88 2.03 2.10 1.91 1.86 1.75 1.62 1.35 1.06 0.98 0.92 0.77 0.80 0.88 0.85 0.91 1.07 1.31 1.20 1.62 2.09 2.57 3.01 3.38 3.20 2.53 2.05 1.87 1.60 1.34 0.98 0.65 0.47 0.41 0.40 0.36
1.69 1.80 1.63 1.57 1.47 1.53 1.54 1.64 1.76 1.78 1.53 1.70 2.02 1.66 1.16 0.87 0.80 0.73 0.66 0.67 0.68 0.73 0.92 1.19 1.35 1.38 1.49 1.62 1.85 2.29 2.98 3.33 3.02 2.49 2.22 1.99 1.79 1.40 0.94 0.67 0.51 0.39 0.35
1.57 1.55 1.55 1.40 1.37 1.44 1.42 1.49 1.61 1.58 1.41 1.62 1.95 2.03 1.58 1.22 0.94 0.66 0.63 0.62 0.69 0.82 0.90 1.01 1.33 1.52 1.51 1.90 1.62 1.66 2.20 2.82 3.10 2.92 2.64 2.20 1.91 1.60 1.23 0.98 0.74 0.55 0.43
1.36 1.31 1.27 1.28 1.34 1.22 1.27 1.37 1.52 1.65 1.51 1.42 1.67 1.96 1.73 1.40 1.13 0.85 0.75 0.85 0.97 1.06 1.10 1.26 1.37 1.51 1.58 1.95 1.92 1.77 1.77 1.98 2.60 3.20 3.24 2.67 2.03 1.63 1.50 1.43 1.28 0.96 0.73
1.27 1.21 1.17 1.26 1.29 1.24 1.35 1.17 1.25 1.49 1.61 1.42 1.41 1.46 1.47 1.56 1.56 1.21 0.89 0.82 0.95 1.04 1.07 1.09 1.21 1.44 1.57 1.80 2.10 1.90 1.69 1.58 1.83 2.59 3.17 3.13 2.52 1.84 1.55 1.62 1.89 1.73 1.27
1.23 1.10 1.11 1.20 1.26 1.25 1.29 1.27 1.34 1.30 1.36 1.32 1.31 1.31 1.39 1.52 1.47 1.41 1.18 0.97 0.95 0.85 0.90 1.03 1.22 1.38 1.43 1.63 2.00 1.82 1.75 1.56 1.51 1.73 2.20 2.53 2.55 2.25 1.94 1.95 2.42 2.76 2.50
1.20 1.07 1.09 1.22 1.23 1.20 1.21 1.22 1.23 1.19 1.24 1.27 1.27 1.30 1.39 1.38 1.31 1.43 1.32 1.12 1.05 0.88 0.96 1.06 1.22 1.33 1.35 1.41 1.30 1.33 1.39 1.48 1.44 1.35 1.41 1.61 1.92 2.14 2.20 2.42 2.88 3.37 3.61
1.06 1.03 1.02 1.22 1.32 1.29 1.25 1.28 1.28 1.28 1.33 1.34 1.29 1.31 1.36 1.33 1.35 1.49 1.47 1.23 1.15 1.08 1.21 1.23 1.21 1.34 1.29 1.43 1.37 1.21 1.10 1.18 1.13 1.06 1.03 1.11 1.33 1.59 1.80 2.00 2.38 2.87 3.29
1.00 1.17 1.25 1.29 1.30 1.33 1.33 1.49 1.40 1.38 1.45 1.46 1.37 1.56 1.54 1.40 1.56 1.69 1.77 1.78 1.58 1.47 1.56 1.39 1.24 1.26 1.25 1.26 1.31 1.30 1.20 1.07 0.94 0.84 0.81 0.85 0.93 1.06 1.22 1.39 1.62 1.83 2.05
1.06 1.19 1.30 1.39 1.36 1.34 1.40 1.57 1.56 1.58 1.65 1.60 1.59 1.75 1.73 1.63 1.64 1.63 1.82 2.02 2.08 1.91 1.83 1.64 1.45 1.36 1.30 1.27 1.36 1.27 1.28 1.28 1.02 0.83 0.77 0.76 0.79 0.85 0.87 0.87 0.96 1.06 1.17
1.15 1.17 1.16 1.24 1.24 1.24 1.36 1.59 1.62 1.69 1.83 1.81 1.78 1.82 1.81 1.76 1.81 1.77 1.83 2.04 2.21 2.20 1.97 1.55 1.50 1.46 1.40 1.24 1.31 1.22 1.26 1.36 1.14 0.93 0.81 0.74 0.73 0.74 0.77 0.79 0.84 0.87 0.93
1.21 1.16 1.12 1.14 1.13 1.10 1.20 1.37 1.51 1.70 1.83 1.88 1.85 1.87 1.86 1.94 1.97 1.86 1.91 1.96 2.10 2.26 2.02 1.63 1.68 1.83 1.77 1.58 1.44 1.33 1.22 1.20 1.14 1.09 0.88 0.82 0.80 0.77 0.79 0.80 0.78 0.82 0.89
1.20 1.20 1.23 1.19 1.08 1.07 1.17 1.31 1.48 1.66 1.82 1.92 1.99 2.03 1.87 1.93 2.03 1.99 1.97 1.97 2.04 2.27 2.22 2.09 2.03 2.09 2.04 1.81 1.59 1.37 1.10 0.98 1.02 1.19 1.00 0.89 0.85 0.85 0.86 0.82 0.75 0.75 0.78
1.28 1.28 1.30 1.27 1.25 1.31 1.42 1.48 1.54 1.67 1.82 1.91 1.98 1.95 1.93 2.03 1.96 1.98 2.02 2.00 1.99 1.99 2.08 2.07 1.99 2.09 2.04 1.80 1.59 1.37 1.16 1.14 1.03 1.06 1.02 0.94 0.91 0.90 0.90 0.84 0.77 0.74 0.76
1.23 1.27 1.27 1.35 1.41 1.48 1.51 1.52 1.51 1.55 1.65 1.74 1.74 1.65 1.60 1.66 1.73 1.82 1.81 1.81 1.86 1.92 2.00 1.97 1.97 2.05 2.06 2.05 1.87 1.59 1.38 1.26 1.15 1.02 1.03 1.04 1.04 1.00 0.96 0.87 0.76 0.73 0.76
1.14 1.31 1.35 1.46 1.54 1.52 1.43 1.48 1.48 1.42 1.58 1.55 1.43 1.39 1.40 1.49 1.50 1.55 1.49 1.54 1.68 1.76 1.82 1.92 2.02 2.19 2.20 2.28 2.10 1.82 1.62 1.47 1.31 1.16 1.14 1.09 1.09 1.02 0.99 0.98 0.91 0.81 0.75
1.25 1.36 1.40 1.52 1.56 1.43 1.49 1.53 1.53 1.50 1.54 1.51 1.44 1.39 1.28 1.27 1.25 1.29 1.34 1.39 1.51 1.61 1.76 1.91 2.00 2.09 2.16 2.14 2.08 1.94 1.80 1.60 1.37 1.28 1.41 1.39 1.21 1.17 1.28 1.21 1.09 0.85 0.71
1.35 1.41 1.52 1.56 1.57 1.62 1.56 1.45 1.47 1.41 1.46 1.51 1.53 1.54 1.29 1.13 1.19 1.18 1.31 1.29 1.26 1.31 1.41 1.56 1.66 1.79 1.99 2.09 2.17 2.08 2.05 1.92 1.66 1.43 1.37 1.25 1.16 1.18 1.34 1.44 1.19 0.82 0.71
1.48 1.58 1.63 1.57 1.58 1.62 1.54 1.31 1.24 1.15 1.23 1.34 1.43 1.48 1.47 1.37 1.33 1.35 1.40 1.38 1.29 1.26 1.35 1.38 1.44 1.63 1.95 2.19 2.23 2.20 2.22 2.11 1.84 1.52 1.40 1.28 1.13 1.11 1.00 1.01 1.07 0.84 0.68
1.74 1.81 1.88 1.85 1.76 1.73 1.54 1.22 1.11 1.05 1.17 1.22 1.24 1.26 1.25 1.17 1.17 1.10 1.15 1.22 1.24 1.23 1.22 1.26 1.28 1.39 1.62 1.96 2.14 2.18 2.25 2.14 1.93 1.64 1.43 1.36 1.15 1.07 0.98 0.88 0.91 0.97 0.81
1.99 2.02 1.93 1.80 1.71 1.69 1.61 1.29 1.13 1.10 1.23 1.27 1.34 1.33 1.31 1.25 1.20 1.06 1.04 1.11 1.10 1.12 1.17 1.18 1.15 1.13 1.23 1.52 1.83 1.83 1.89 1.99 1.78 1.56 1.23 1.16 1.09 1.02 0.99 0.85 0.76 0.77 0.80

GEFSMA_prec_meanprecacc_192.txt.gz
Total_Precipitation_Accumulation
2.20 2.15 2.06 2.02 1.88 1.97 2.32 2.56 2.43 2.48 2.43 2.26 1.99 1.81 1.70 1.64 1.55 1.64 1.81 2.01 2.02 2.03 2.19 2.29 2.12 1.90 1.79 1.64 1.48 1.32 1.22 1.17 1.03 0.83 0.72 0.61 0.52 0.51 0.54 0.59 0.58 0.51 0.49
2.61 2.72 2.61 2.47 2.15 2.05 2.14 2.44 2.52 2.70 2.62 2.46 1.89 1.77 1.76 1.78 1.79 1.76 1.87 2.36 2.39 2.01 1.96 2.13 2.26 2.24 2.08 1.90 1.71 1.53 1.40 1.28 1.07 0.83 0.76 0.68 0.56 0.50 0.56 0.65 0.66 0.53 0.40
2.76 2.76 2.57 2.25 2.04 2.05 2.18 2.13 2.16 2.45 2.25 2.12 1.99 2.06 2.05 1.97 1.83 1.80 1.87 2.23 2.25 1.90 1.72 1.74 1.97 2.14 2.24 2.31 2.16 2.04 1.81 1.51 1.23 0.96 0.81 0.67 0.57 0.49 0.48 0.59 0.67 0.58 0.42
2.37 2.44 2.11 1.78 1.87 2.05 2.13 2.17 2.09 2.19 2.20 2.28 2.29 2.24 2.16 2.02 1.66 1.54 1.46 1.49 1.65 1.41 1.51 1.72 1.73 1.75 2.04 2.41 2.55 2.73 2.48 1.95 1.50 1.16 0.94 0.75 0.61 0.48 0.42 0.47 0.57 0.54 0.44
1.84 1.97 1.76 1.68 1.73 1.90 1.94 1.81 2.04 2.22 2.19 2.23 2.14 2.13 1.81 1.64 1.43 1.21 1.14 1.06 1.15 1.22 1.23 1.35 1.45 1.52 1.89 2.43 2.89 3.25 3.20 2.67 2.08 1.64 1.34 1.03 0.85 0.61 0.48 0.43 0.45 0.47 0.42
1.65 1.83 1.71 1.61 1.66 1.79 1.84 1.96 2.14 2.22 2.00 1.95 1.80 1.67 1.40 1.11 1.02 0.96 0.81 0.83 0.90 0.87 0.94 1.11 1.35 1.23 1.65 2.12 2.62 3.10 3.48 3.27 2.60 2.10 1.91 1.64 1.37 1.01 0.67 0.49 0.42 0.41 0.37
1.74 1.87 1.71 1.68 1.58 1.63 1.64 1.73 1.85 1.88 1.63 1.78 2.10 1.73 1.21 0.92 0.84 0.78 0.71 0.72 0.71 0.77 0.96 1.23 1.39 1.44 1.54 1.64 1.88 2.33 3.05 3.40 3.11 2.57 2.29 2.06 1.85 1.45 0.98 0.71 0.55 0.42 0.37
1.65 1.63 1.65 1.50 1.47 1.54 1.54 1.58 1.71 1.68 1.50 1.69 2.04 2.12 1.65 1.28 0.99 0.70 0.67 0.67 0.73 0.87 0.93 1.03 1.36 1.60 1.60 1.99 1.67 1.69 2.25 2.87 3.16 2.99 2.71 2.28 1.98 1.67 1.31 1.07 0.83 0.62 0.50
1.43 1.38 1.37 1.39 1.46 1.31 1.36 1.48 1.62 1.75 1.61 1.51 1.76 2.09 1.84 1.49 1.20 0.90 0.80 0.88 1.01 1.11 1.14 1.28 1.40 1.57 1.66 2.05 2.01 1.84 1.83 2.03 2.66 3.27 3.31 2.75 2.11 1.70 1.56 1.52 1.39 1.06 0.82
1.33 1.27 1.25 1.36 1.40 1.33 1.44 1.26 1.33 1.57 1.72 1.54 1.52 1.57 1.57 1.66 1.66 1.29 0.94 0.86 0.98 1.09 1.15 1.15 1.26 1.50 1.66 1.89 2.19 2.00 1.77 1.62 1.87 2.64 3.25 3.21 2.60 1.91 1.61 1.69 1.99 1.84 1.39
1.29 1.15 1.18 1.29 1.36 1.35 1.39 1.38 1.43 1.38 1.44 1.43 1.44 1.44 1.50 1.65 1.58 1.50 1.26 1.03 1.00 0.90 0.99 1.13 1.30 1.46 1.51 1.71 2.07 1.88 1.79 1.60 1.54 1.78 2.25 2.61 2.65 2.35 2.04 2.04 2.52 2.89 2.64
1.26 1.13 1.14 1.30 1.32 1.31 1.31 1.33 1.33 1.28 1.33 1.38 1.40 1.44 1.53 1.50 1.43 1.56 1.44 1.23 1.14 0.95 1.01 1.13 1.30 1.41 1.42 1.49 1.37 1.39 1.44 1.53 1.49 1.39 1.44 1.65 1.99 2.23 2.29 2.51 2.98 3.48 3.74
1.12 1.08 1.08 1.30 1.39 1.36 1.35 1.38 1.36 1.36 1.43 1.46 1.44 1.48 1.49 1.44 1.46 1.60 1.60 1.37 1.28 1.17 1.29 1.31 1.30 1.43 1.37 1.53 1.48 1.30 1.20 1.28 1.24 1.16 1.12 1.19 1.40 1.66 1.88 2.11 2.51 3.02 3.49
1.07 1.25 1.34 1.35 1.35 1.38 1.38 1.57 1.47 1.45 1.52 1.54 1.45 1.66 1.64 1.49 1.67 1.81 1.91 1.93 1.73 1.59 1.67 1.50 1.35 1.37 1.37 1.38 1.42 1.40 1.28 1.15 1.02 0.94 0.92 0.94 1.01 1.16 1.32 1.50 1.73 1.98 2.25
1.13 1.25 1.37 1.45 1.40 1.39 1.46 1.65 1.63 1.65 1.71 1.67 1.66 1.84 1.81 1.71 1.72 1.72 1.93 2.17 2.24 2.04 1.94 1.75 1.55 1.46 1.41 1.38 1.48 1.37 1.36 1.37 1.12 0.93 0.87 0.85 0.89 0.96 0.99 1.01 1.10 1.20 1.32
1.21 1.23 1.20 1.27 1.29 1.29 1.40 1.67 1.69 1.73 1.87 1.85 1.83 1.88 1.88 1.82 1.87 1.83 1.90 2.13 2.30 2.32 2.07 1.62 1.57 1.53 1.48 1.32 1.41 1.30 1.35 1.46 1.24 1.02 0.89 0.83 0.82 0.86 0.93 1.00 1.07 1.12 1.18
1.26 1.20 1.15 1.17 1.17 1.14 1.23 1.41 1.56 1.74 1.87 1.92 1.89 1.91 1.91 1.99 2.03 1.91 1.96 2.01 2.17 2.35 2.10 1.68 1.74 1.90 1.84 1.65 1.51 1.40 1.29 1.26 1.21 1.15 0.94 0.89 0.88 0.89 0.95 1.01 1.04 1.09 1.16
1.25 1.25 1.27 1.23 1.12 1.10 1.20 1.35 1.52 1.71 1.87 1.97 2.04 2.08 1.92 1.97 2.08 2.02 2.01 2.02 2.10 2.33 2.28 2.15 2.10 2.17 2.11 1.89 1.67 1.45 1.18 1.05 1.10 1.29 1.11 1.00 0.96 0.95 0.97 0.96 0.91 0.92 0.95
1.33 1.35 1.37 1.32 1.29 1.35 1.47 1.54 1.59 1.71 1.86 1.95 2.02 1.99 1.96 2.06 1.99 2.02 2.06 2.05 2.03 2.03 2.13 2.13 2.07 2.18 2.13 1.89 1.68 1.43 1.22 1.21 1.12 1.18 1.14 1.05 1.01 0.99 0.98 0.93 0.87 0.86 0.88
1.27 1.32 1.33 1.40 1.45 1.52 1.57 1.57 1.55 1.58 1.67 1.77 1.76 1.67 1.61 1.68 1.76 1.86 1.84 1.85 1.90 1.96 2.05 2.03 2.05 2.14 2.14 2.12 1.93 1.65 1.47 1.35 1.25 1.12 1.13 1.12 1.11 1.08 1.03 0.95 0.85 0.81 0.84
1.18 1.35 1.39 1.49 1.57 1.55 1.46 1.50 1.51 1.44 1.62 1.59 1.46 1.42 1.43 1.51 1.52 1.58 1.51 1.57 1.71 1.79 1.88 1.99 2.07 2.24 2.26 2.34 2.16 1.88 1.70 1.55 1.39 1.24 1.20 1.14 1.13 1.07 1.05 1.05 0.98 0.87 0.80
1.27 1.40 1.44 1.55 1.59 1.45 1.50 1.54 1.55 1.53 1.58 1.54 1.47 1.41 1.31 1.30 1.27 1.30 1.35 1.41 1.53 1.65 1.82 1.97 2.04 2.13 2.20 2.18 2.12 1.98 1.85 1.66 1.42 1.33 1.47 1.45 1.26 1.23 1.34 1.28 1.17 0.92 0.76
1.36 1.43 1.55 1.59 1.59 1.64 1.57 1.46 1.49 1.44 1.49 1.53 1.56 1.56 1.31 1.15 1.21 1.20 1.33 1.31 1.27 1.31 1.41 1.57 1.69 1.82 2.01 2.11 2.19 2.11 2.08 1.96 1.69 1.47 1.43 1.33 1.24 1.28 1.45 1.56 1.30 0.91 0.80
1.49 1.59 1.64 1.57 1.58 1.63 1.56 1.32 1.25 1.17 1.26 1.38 1.47 1.52 1.50 1.40 1.36 1.37 1.42 1.39 1.29 1.27 1.35 1.38 1.46 1.65 1.97 2.21 2.25 2.22 2.25 2.14 1.87 1.55 1.44 1.34 1.21 1.20 1.10 1.12 1.18 0.94 0.78
1.75 1.82 1.89 1.86 1.77 1.74 1.55 1.23 1.12 1.09 1.23 1.30 1.34 1.34 1.32 1.22 1.21 1.13 1.16 1.22 1.24 1.23 1.23 1.27 1.30 1.41 1.63 1.97 2.16 2.20 2.28 2.17 1.97 1.67 1.47 1.42 1.23 1.17 1.09 0.98 0.99 1.05 0.89
2.00 2.03 1.94 1.81 1.72 1.70 1.61 1.30 1.13 1.11 1.25 1.32 1.40 1.38 1.35 1.28 1.22 1.08 1.05 1.12 1.11 1.13 1.18 1.18 1.15 1.14 1.24 1.53 1.84 1.85 1.90 2.02 1.81 1.59 1.28 1.22 1.16 1.10 1.09 0.95 0.84 0.83 0.86

GEFSMA_prec_meanprecacc_198.txt.gz
Total_Precipitation_Accumulation
2.24 2.20 2.12 2.08 1.94 2.03 2.38 2.62 2.47 2.52 2.47 2.29 2.04 1.86 1.73 1.65 1.58 1.69 1.84 2.03 2.03 2.03 2.19 2.30 2.13 1.92 1.80 1.66 1.50 1.33 1.23 1.18 1.05 0.85 0.73 0.62 0.52 0.52 0.55 0.60 0.59 0.52 0.50
2.65 2.76 2.65 2.50 2.19 2.11 2.19 2.47 2.55 2.74 2.69 2.49 1.91 1.79 1.78 1.80 1.82 1.78 1.89 2.38 2.40 2.01 1.96 2.14 2.27 2.25 2.09 1.92 1.74 1.55 1.42 1.30 1.09 0.85 0.78 0.69 0.57 0.51 0.57 0.66 0.66 0.53 0.41
2.82 2.81 2.62 2.29 2.08 2.09 2.22 2.17 2.19 2.47 2.29 2.15 2.01 2.08 2.07 2.00 1.86 1.84 1.90 2.26 2.27 1.91 1.72 1.75 1.98 2.14 2.25 2.32 2.18 2.06 1.82 1.53 1.25 0.98 0.83 0.69 0.58 0.50 0.49 0.60 0.69 0.59 0.43
2.42 2.50 2.18 1.85 1.94 2.10 2.18 2.24 2.13 2.23 2.24 2.31 2.32 2.27 2.18 2.05 1.70 1.58 1.49 1.53 1.69 1.43 1.53 1.73 1.74 1.77 2.05 2.42 2.57 2.76 2.51 1.97 1.52 1.18 0.96 0.77 0.63 0.50 0.44 0.48 0.58 0.56 0.45
1.88 2.03 1.83 1.77 1.82 1.97 2.00 1.86 2.10 2.28 2.26 2.29 2.17 2.17 1.84 1.69 1.48 1.25 1.17 1.09 1.18 1.26 1.27 1.38 1.47 1.53 1.91 2.45 2.92 3.29 3.24 2.70 2.10 1.66 1.36 1.05 0.86 0.63 0.50 0.45 0.47 0.48 0.43
1.70 1.88 1.77 1.69 1.74 1.87 1.93 2.04 2.24 2.33 2.09 2.02 1.86 1.75 1.47 1.16 1.07 1.00 0.85 0.86 0.94 0.91 0.98 1.15 1.41 1.29 1.70 2.16 2.67 3.16 3.55 3.34 2.66 2.15 1.95 1.68 1.41 1.04 0.70 0.51 0.44 0.44 0.39
1.78 1.92 1.77 1.78 1.67 1.71 1.71 1.80 1.94 2.00 1.74 1.87 2.23 1.86 1.30 1.00 0.94 0.83 0.75 0.76 0.77 0.83 1.01 1.29 1.47 1.55 1.67 1.72 1.93 2.38 3.11 3.48 3.20 2.66 2.37 2.14 1.91 1.50 1.02 0.75 0.59 0.46 0.42
1.68 1.67 1.72 1.60 1.56 1.64 1.63 1.67 1.83 1.79 1.60 1.80 2.19 2.29 1.80 1.41 1.09 0.76 0.72 0.73 0.80 0.94 1.00 1.09 1.45 1.72 1.74 2.13 1.77 1.75 2.32 2.95 3.24 3.07 2.80 2.36 2.06 1.74 1.38 1.14 0.91 0.71 0.60
1.47 1.43 1.43 1.47 1.55 1.40 1.49 1.60 1.75 1.87 1.73 1.65 1.90 2.27 2.05 1.68 1.35 1.01 0.87 0.95 1.08 1.21 1.23 1.37 1.48 1.66 1.80 2.24 2.18 1.96 1.92 2.11 2.73 3.34 3.39 2.83 2.17 1.76 1.62 1.58 1.46 1.13 0.89
1.35 1.30 1.28 1.41 1.47 1.41 1.58 1.36 1.46 1.71 1.87 1.69 1.68 1.73 1.73 1.86 1.86 1.47 1.08 0.97 1.10 1.23 1.29 1.29 1.38 1.61 1.76 2.01 2.35 2.14 1.88 1.70 1.95 2.72 3.32 3.28 2.66 1.97 1.68 1.77 2.07 1.92 1.47
1.33 1.17 1.22 1.35 1.43 1.43 1.50 1.48 1.56 1.50 1.58 1.58 1.61 1.60 1.69 1.86 1.78 1.70 1.46 1.21 1.16 1.05 1.12 1.22 1.39 1.57 1.62 1.83 2.20 1.99 1.92 1.69 1.62 1.85 2.33 2.69 2.72 2.42 2.11 2.12 2.60 2.97 2.74
1.33 1.17 1.20 1.38 1.41 1.42 1.44 1.46 1.46 1.41 1.48 1.55 1.58 1.60 1.72 1.69 1.62 1.75 1.62 1.41 1.33 1.10 1.13 1.24 1.39 1.50 1.52 1.60 1.47 1.45 1.53 1.63 1.58 1.47 1.51 1.72 2.07 2.32 2.37 2.59 3.06 3.58 3.84
1.18 1.15 1.17 1.41 1.50 1.48 1.46 1.51 1.49 1.48 1.57 1.62 1.61 1.65 1.69 1.62 1.61 1.76 1.75 1.50 1.41 1.27 1.39 1.40 1.38 1.50 1.46 1.62 1.56 1.39 1.29 1.39 1.33 1.25 1.21 1.27 1.48 1.75 1.99 2.22 2.62 3.13 3.60
1.14 1.32 1.42 1.43 1.42 1.46 1.47 1.69 1.58 1.59 1.66 1.68 1.58 1.83 1.80 1.63 1.79 1.94 2.04 2.06 1.84 1.70 1.76 1.60 1.43 1.44 1.46 1.48 1.52 1.49 1.34 1.23 1.10 1.03 1.00 1.03 1.10 1.25 1.42 1.60 1.84 2.08 2.34
1.22 1.35 1.44 1.52 1.47 1.47 1.55 1.77 1.75 1.78 1.85 1.79 1.78 1.97 1.92 1.81 1.80 1.79 2.00 2.25 2.33 2.14 2.03 1.84 1.64 1.53 1.48 1.46 1.55 1.42 1.42 1.45 1.20 1.00 0.93 0.92 0.97 1.03 1.06 1.08 1.18 1.28 1.41
1.29 1.33 1.28 1.33 1.34 1.36 1.49 1.77 1.80 1.84 1.97 1.94 1.92 1.98 1.98 1.89 1.94 1.88 1.95 2.20 2.39 2.42 2.16 1.69 1.66 1.59 1.54 1.37 1.47 1.37 1.42 1.52 1.29 1.08 0.95 0.89 0.88 0.91 0.97 1.04 1.13 1.19 1.26
1.32 1.27 1.22 1.24 1.24 1.21 1.31 1.50 1.65 1.83 1.94 1.99 1.97 2.01 2.01 2.09 2.11 1.98 2.03 2.09 2.26 2.44 2.18 1.75 1.82 1.97 1.92 1.72 1.57 1.47 1.38 1.34 1.29 1.23 1.00 0.93 0.93 0.93 1.00 1.06 1.10 1.15 1.23
1.33 1.33 1.35 1.32 1.20 1.17 1.27 1.41 1.57 1.75 1.92 2.02 2.11 2.18 2.01 2.06 2.17 2.09 2.07 2.09 2.18 2.42 2.36 2.23 2.20 2.25 2.18 1.95 1.74 1.52 1.23 1.12 1.18 1.38 1.17 1.05 1.01 1.02 1.04 1.03 0.98 0.98 1.01
1.42 1.44 1.45 1.40 1.36 1.42 1.52 1.59 1.64 1.77 1.91 2.00 2.08 2.06 2.01 2.12 2.04 2.08 2.13 2.11 2.10 2.12 2.23 2.23 2.15 2.24 2.18 1.95 1.74 1.49 1.27 1.28 1.19 1.25 1.21 1.12 1.07 1.04 1.04 0.99 0.93 0.91 0.93
1.36 1.39 1.39 1.46 1.51 1.57 1.62 1.62 1.61 1.64 1.72 1.80 1.79 1.70 1.65 1.71 1.78 1.91 1.91 1.91 1.98 2.04 2.12 2.09 2.09 2.17 2.18 2.16 1.97 1.69 1.50 1.40 1.30 1.16 1.17 1.17 1.15 1.11 1.06 0.98 0.88 0.85 0.88
1.23 1.39 1.43 1.52 1.60 1.59 1.50 1.54 1.56 1.48 1.65 1.62 1.49 1.45 1.46 1.55 1.56 1.62 1.55 1.61 1.75 1.84 1.92 2.03 2.11 2.27 2.29 2.37 2.20 1.91 1.73 1.59 1.43 1.27 1.22 1.16 1.15 1.09 1.07 1.06 0.99 0.89 0.83
1.29 1.42 1.46 1.57 1.62 1.48 1.52 1.56 1.58 1.57 1.62 1.57 1.51 1.46 1.35 1.34 1.31 1.34 1.38 1.43 1.55 1.68 1.85 2.01 2.08 2.17 2.23 2.20 2.15 2.01 1.88 1.68 1.45 1.35 1.49 1.47 1.27 1.25 1.35 1.30 1.19 0.94 0.80
1.37 1.44 1.56 1.60 1.60 1.65 1.57 1.47 1.50 1.47 1.53 1.58 1.60 1.60 1.35 1.18 1.25 1.23 1.36 1.33 1.29 1.33 1.43 1.59 1.72 1.85 2.04 2.14 2.22 2.14 2.12 1.99 1.72 1.50 1.46 1.36 1.26 1.31 1.49 1.61 1.35 0.95 0.84
1.50 1.60 1.65 1.58 1.59 1.64 1.56 1.32 1.26 1.19 1.29 1.41 1.50 1.55 1.54 1.44 1.40 1.40 1.45 1.41 1.31 1.27 1.36 1.39 1.47 1.68 1.99 2.24 2.27 2.25 2.27 2.18 1.91 1.59 1.48 1.38 1.25 1.24 1.14 1.15 1.21 0.98 0.82
1.75 1.83 1.89 1.87 1.78 1.75 1.55 1.24 1.13 1.10 1.24 1.32 1.37 1.38 1.36 1.28 1.26 1.18 1.20 1.25 1.25 1.24 1.24 1.27 1.30 1.42 1.65 2.00 2.18 2.23 2.31 2.22 2.01 1.71 1.51 1.46 1.26 1.19 1.11 1.01 1.03 1.09 0.92
2.00 2.04 1.94 1.82 1.73 1.71 1.62 1.30 1.14 1.11 1.26 1.34 1.43 1.42 1.38 1.30 1.24 1.09 1.07 1.13 1.13 1.14 1.18 1.19 1.16 1.14 1.25 1.55 1.85 1.87 1.93 2.05 1.84 1.62 1.30 1.24 1.19 1.12 1.12 0.98 0.88 0.89 0.91

GEFSMA_prec_meanprecacc_204.txt.gz
Total_Precipitation_Accumulation
2.26 2.22 2.16 2.11 1.97 2.06 2.41 2.66 2.53 2.56 2.50 2.35 2.11 1.93 1.79 1.69 1.61 1.72 1.88 2.04 2.04 2.05 2.21 2.31 2.14 1.93 1.81 1.67 1.52 1.35 1.25 1.19 1.07 0.87 0.75 0.64 0.54 0.53 0.56 0.61 0.59 0.53 0.51
2.66 2.78 2.68 2.54 2.23 2.15 2.22 2.50 2.59 2.78 2.73 2.55 1.97 1.84 1.82 1.84 1.86 1.81 1.94 2.42 2.42 2.03 1.98 2.16 2.29 2.26 2.10 1.93 1.75 1.57 1.44 1.32 1.11 0.88 0.80 0.72 0.59 0.53 0.60 0.68 0.68 0.55 0.42
2.84 2.82 2.64 2.32 2.11 2.13 2.27 2.23 2.24 2.53 2.36 2.22 2.06 2.13 2.12 2.03 1.89 1.87 1.93 2.30 2.30 1.94 1.74 1.77 2.01 2.17 2.27 2.34 2.19 2.07 1.84 1.54 1.27 1.01 0.86 0.72 0.61 0.52 0.51 0.62 0.70 0.60 0.45
2.44 2.51 2.20 1.88 1.97 2.14 2.22 2.29 2.18 2.28 2.30 2.38 2.39 2.36 2.26 2.09 1.73 1.61 1.52 1.56 1.73 1.47 1.56 1.75 1.76 1.79 2.09 2.46 2.60 2.78 2.52 1.99 1.53 1.19 0.98 0.78 0.64 0.51 0.45 0.50 0.60 0.58 0.46
1.90 2.04 1.85 1.79 1.84 2.01 2.04 1.90 2.15 2.34 2.32 2.35 2.24 2.25 1.92 1.76 1.53 1.29 1.22 1.15 1.23 1.31 1.33 1.43 1.50 1.57 1.96 2.50 2.96 3.34 3.27 2.74 2.13 1.69 1.38 1.07 0.88 0.65 0.52 0.47 0.49 0.51 0.46
1.71 1.89 1.79 1.71 1.76 1.89 1.96 2.08 2.29 2.38 2.14 2.07 1.94 1.83 1.55 1.22 1.16 1.09 0.93 0.97 1.04 1.00 1.07 1.23 1.46 1.34 1.77 2.23 2.73 3.24 3.64 3.43 2.74 2.22 2.01 1.74 1.46 1.09 0.74 0.54 0.47 0.47 0.43
1.79 1.93 1.79 1.81 1.69 1.73 1.74 1.84 1.99 2.06 1.78 1.93 2.32 1.94 1.38 1.08 1.04 0.91 0.85 0.89 0.91 0.96 1.11 1.38 1.55 1.63 1.74 1.79 2.00 2.47 3.23 3.59 3.30 2.76 2.46 2.21 1.98 1.57 1.09 0.81 0.64 0.51 0.47
1.71 1.69 1.75 1.64 1.59 1.66 1.67 1.71 1.87 1.85 1.64 1.84 2.25 2.37 1.86 1.49 1.20 0.86 0.83 0.84 0.96 1.14 1.18 1.23 1.59 1.88 1.91 2.26 1.90 1.86 2.45 3.10 3.39 3.21 2.91 2.44 2.14 1.82 1.45 1.21 0.96 0.76 0.64
1.50 1.46 1.46 1.51 1.58 1.43 1.53 1.64 1.81 1.93 1.79 1.70 1.96 2.35 2.13 1.77 1.45 1.13 1.01 1.09 1.20 1.33 1.36 1.53 1.66 1.83 1.96 2.40 2.35 2.16 2.09 2.26 2.87 3.49 3.52 2.92 2.24 1.81 1.66 1.63 1.51 1.19 0.96
1.38 1.33 1.32 1.45 1.50 1.45 1.61 1.40 1.53 1.79 1.93 1.75 1.75 1.80 1.82 1.97 1.95 1.59 1.20 1.10 1.22 1.35 1.42 1.44 1.52 1.77 1.93 2.18 2.52 2.31 2.02 1.83 2.06 2.83 3.43 3.38 2.76 2.07 1.76 1.83 2.14 1.99 1.55
1.37 1.21 1.27 1.39 1.45 1.47 1.55 1.53 1.61 1.58 1.64 1.65 1.68 1.67 1.76 1.96 1.86 1.80 1.56 1.32 1.26 1.16 1.25 1.37 1.52 1.72 1.79 1.98 2.32 2.10 2.04 1.81 1.72 1.95 2.45 2.82 2.87 2.55 2.22 2.23 2.71 3.07 2.83
1.37 1.22 1.24 1.41 1.44 1.46 1.48 1.51 1.50 1.47 1.53 1.60 1.64 1.67 1.78 1.76 1.70 1.84 1.72 1.49 1.39 1.18 1.22 1.32 1.47 1.58 1.60 1.69 1.57 1.57 1.63 1.74 1.69 1.57 1.62 1.84 2.21 2.46 2.50 2.73 3.20 3.73 4.00
1.24 1.22 1.22 1.45 1.54 1.52 1.51 1.57 1.55 1.53 1.62 1.68 1.68 1.72 1.75 1.69 1.67 1.83 1.82 1.56 1.46 1.32 1.46 1.46 1.43 1.54 1.52 1.70 1.66 1.49 1.38 1.48 1.42 1.34 1.29 1.35 1.57 1.86 2.11 2.35 2.76 3.28 3.75
1.21 1.41 1.51 1.52 1.50 1.54 1.55 1.77 1.64 1.63 1.71 1.74 1.64 1.89 1.86 1.69 1.83 1.98 2.09 2.12 1.89 1.74 1.82 1.65 1.49 1.51 1.54 1.57 1.60 1.57 1.42 1.33 1.19 1.10 1.08 1.12 1.21 1.37 1.54 1.72 1.97 2.22 2.48
1.30 1.46 1.59 1.65 1.58 1.55 1.63 1.83 1.80 1.83 1.90 1.84 1.84 2.01 1.96 1.85 1.84 1.83 2.04 2.30 2.37 2.17 2.07 1.89 1.69 1.60 1.55 1.54 1.63 1.50 1.50 1.53 1.29 1.09 1.01 0.99 1.03 1.10 1.15 1.18 1.27 1.38 1.52
1.43 1.47 1.45 1.48 1.45 1.44 1.56 1.83 1.85 1.90 2.04 2.01 1.98 2.01 2.02 1.92 1.97 1.91 1.98 2.24 2.44 2.45 2.20 1.74 1.71 1.62 1.58 1.43 1.53 1.42 1.47 1.57 1.34 1.14 1.01 0.93 0.91 0.95 1.02 1.10 1.19 1.25 1.33
1.49 1.41 1.35 1.35 1.33 1.28 1.37 1.57 1.70 1.88 2.01 2.06 2.03 2.06 2.06 2.12 2.14 2.01 2.07 2.16 2.32 2.49 2.22 1.79 1.86 2.01 1.99 1.80 1.63 1.51 1.41 1.37 1.31 1.26 1.02 0.95 0.95 0.95 1.02 1.09 1.13 1.19 1.28
1.56 1.52 1.46 1.40 1.27 1.24 1.36 1.50 1.66 1.82 1.96 2.07 2.16 2.22 2.04 2.09 2.20 2.13 2.12 2.15 2.23 2.47 2.39 2.26 2.24 2.31 2.24 2.02 1.79 1.55 1.26 1.14 1.20 1.41 1.20 1.07 1.03 1.04 1.07 1.06 1.00 1.00 1.04
1.55 1.60 1.60 1.51 1.46 1.49 1.59 1.64 1.69 1.83 1.96 2.04 2.13 2.11 2.05 2.16 2.07 2.10 2.16 2.14 2.13 2.17 2.29 2.27 2.19 2.28 2.23 2.00 1.79 1.53 1.31 1.31 1.21 1.27 1.23 1.14 1.09 1.07 1.07 1.02 0.96 0.94 0.96
1.40 1.44 1.43 1.50 1.54 1.60 1.64 1.65 1.64 1.68 1.76 1.84 1.83 1.74 1.67 1.73 1.80 1.94 1.94 1.94 2.01 2.08 2.17 2.13 2.12 2.20 2.21 2.22 2.05 1.76 1.57 1.44 1.33 1.18 1.20 1.19 1.18 1.13 1.08 1.00 0.90 0.87 0.90
1.27 1.42 1.45 1.54 1.61 1.60 1.52 1.56 1.58 1.51 1.68 1.66 1.53 1.48 1.48 1.57 1.60 1.67 1.60 1.67 1.80 1.88 1.96 2.07 2.15 2.31 2.33 2.43 2.27 2.00 1.83 1.68 1.48 1.30 1.24 1.18 1.16 1.10 1.08 1.08 1.00 0.90 0.84
1.34 1.43 1.47 1.58 1.62 1.49 1.53 1.58 1.60 1.60 1.65 1.61 1.54 1.48 1.38 1.38 1.36 1.39 1.44 1.48 1.60 1.72 1.89 2.06 2.12 2.20 2.27 2.24 2.19 2.06 1.95 1.76 1.49 1.38 1.51 1.48 1.29 1.26 1.37 1.31 1.20 0.95 0.80
1.39 1.46 1.57 1.61 1.60 1.66 1.59 1.48 1.51 1.49 1.56 1.60 1.62 1.61 1.37 1.20 1.28 1.27 1.40 1.37 1.33 1.38 1.48 1.63 1.74 1.87 2.06 2.16 2.25 2.16 2.14 2.02 1.75 1.51 1.47 1.37 1.28 1.33 1.51 1.63 1.37 0.97 0.85
1.51 1.62 1.66 1.58 1.59 1.64 1.57 1.34 1.28 1.20 1.31 1.43 1.52 1.56 1.55 1.46 1.43 1.43 1.49 1.47 1.38 1.34 1.40 1.41 1.49 1.69 2.02 2.27 2.30 2.26 2.28 2.19 1.92 1.60 1.49 1.39 1.26 1.25 1.15 1.16 1.23 0.99 0.82
1.76 1.83 1.90 1.87 1.78 1.75 1.57 1.26 1.14 1.11 1.26 1.33 1.39 1.39 1.37 1.29 1.30 1.22 1.25 1.30 1.31 1.27 1.25 1.28 1.31 1.44 1.68 2.02 2.21 2.24 2.32 2.23 2.02 1.71 1.51 1.46 1.27 1.19 1.11 1.01 1.03 1.09 0.93
2.01 2.04 1.95 1.82 1.73 1.72 1.63 1.32 1.15 1.12 1.27 1.35 1.44 1.43 1.39 1.31 1.26 1.12 1.09 1.15 1.14 1.14 1.19 1.19 1.16 1.15 1.25 1.56 1.87 1.89 1.95 2.06 1.85 1.63 1.31 1.25 1.19 1.12 1.12 0.98 0.88 0.90 0.92

GEFSMA_prec_meanprecacc_210.txt.gz
Total_Precipitation_Accumulation
2.27 2.22 2.16 2.12 1.97 2.07 2.42 2.68 2.54 2.57 2.51 2.36 2.12 1.94 1.81 1.72 1.63 1.74 1.89 2.06 2.07 2.08 2.23 2.33 2.15 1.95 1.83 1.68 1.53 1.36 1.26 1.22 1.09 0.89 0.77 0.67 0.56 0.54 0.57 0.62 0.62 0.55 0.53
2.67 2.79 2.69 2.54 2.24 2.16 2.23 2.51 2.60 2.79 2.74 2.56 1.99 1.85 1.84 1.87 1.88 1.83 1.97 2.45 2.46 2.06 2.01 2.20 2.32 2.28 2.13 1.95 1.76 1.58 1.46 1.34 1.13 0.90 0.83 0.76 0.63 0.56 0.63 0.71 0.71 0.57 0.44
2.85 2.83 2.64 2.33 2.12 2.14 2.28 2.24 2.27 2.55 2.38 2.25 2.09 2.15 2.13 2.06 1.92 1.89 1.96 2.34 2.34 1.97 1.78 1.82 2.07 2.22 2.33 2.38 2.22 2.09 1.87 1.58 1.30 1.03 0.88 0.75 0.64 0.54 0.54 0.66 0.74 0.63 0.48
2.47 2.53 2.21 1.90 1.99 2.15 2.24 2.32 2.21 2.31 2.34 2.42 2.43 2.39 2.29 2.12 1.76 1.63 1.55 1.59 1.76 1.51 1.60 1.80 1.84 1.87 2.16 2.53 2.65 2.83 2.57 2.05 1.59 1.23 1.02 0.82 0.67 0.53 0.48 0.52 0.63 0.60 0.49
1.93 2.06 1.87 1.81 1.86 2.03 2.06 1.92 2.18 2.38 2.37 2.40 2.29 2.29 1.96 1.80 1.56 1.31 1.26 1.19 1.26 1.35 1.38 1.49 1.58 1.65 2.04 2.61 3.06 3.43 3.39 2.85 2.23 1.77 1.46 1.14 0.93 0.69 0.56 0.51 0.53 0.54 0.49
1.73 1.91 1.80 1.72 1.77 1.91 1.99 2.11 2.35 2.44 2.19 2.14 2.02 1.88 1.61 1.28 1.21 1.14 0.99 1.03 1.08 1.04 1.15 1.33 1.55 1.43 1.88 2.37 2.89 3.40 3.81 3.61 2.88 2.35 2.11 1.81 1.54 1.17 0.81 0.61 0.52 0.52 0.48
1.81 1.95 1.82 1.83 1.71 1.76 1.77 1.88 2.05 2.13 1.83 1.98 2.39 2.01 1.43 1.14 1.10 0.95 0.89 0.95 0.97 1.02 1.17 1.47 1.64 1.70 1.82 1.90 2.13 2.64 3.42 3.78 3.49 2.94 2.61 2.34 2.11 1.69 1.20 0.90 0.72 0.59 0.55
1.73 1.72 1.80 1.68 1.62 1.68 1.68 1.75 1.93 1.92 1.70 1.91 2.32 2.42 1.89 1.52 1.24 0.90 0.89 0.90 1.03 1.21 1.25 1.31 1.67 1.95 1.98 2.33 2.00 1.99 2.62 3.29 3.59 3.41 3.10 2.62 2.29 1.95 1.56 1.30 1.04 0.83 0.71
1.52 1.49 1.49 1.53 1.61 1.45 1.55 1.69 1.86 1.98 1.85 1.76 2.01 2.39 2.16 1.80 1.50 1.19 1.09 1.17 1.28 1.39 1.43 1.60 1.72 1.90 2.03 2.47 2.43 2.26 2.22 2.43 3.05 3.67 3.70 3.07 2.35 1.90 1.75 1.72 1.59 1.26 1.02
1.41 1.38 1.35 1.48 1.54 1.49 1.65 1.45 1.57 1.84 1.99 1.80 1.79 1.84 1.86 2.00 1.99 1.64 1.28 1.18 1.30 1.43 1.51 1.53 1.60 1.85 2.01 2.26 2.61 2.42 2.14 1.97 2.20 2.96 3.57 3.51 2.88 2.19 1.87 1.95 2.26 2.11 1.65
1.40 1.25 1.30 1.43 1.50 1.52 1.58 1.56 1.64 1.62 1.68 1.70 1.73 1.72 1.80 2.00 1.90 1.84 1.63 1.41 1.36 1.25 1.33 1.45 1.60 1.80 1.87 2.06 2.40 2.20 2.14 1.91 1.82 2.06 2.56 2.94 3.00 2.69 2.37 2.38 2.86 3.21 2.97
1.40 1.25 1.26 1.44 1.48 1.51 1.53 1.56 1.55 1.50 1.56 1.64 1.68 1.72 1.82 1.81 1.76 1.89 1.76 1.56 1.48 1.25 1.27 1.36 1.52 1.65 1.67 1.77 1.64 1.64 1.70 1.81 1.76 1.64 1.69 1.93 2.31 2.56 2.62 2.86 3.35 3.87 4.14
1.27 1.25 1.25 1.49 1.59 1.58 1.58 1.64 1.60 1.56 1.65 1.72 1.72 1.76 1.78 1.74 1.73 1.88 1.88 1.61 1.50 1.36 1.49 1.50 1.47 1.59 1.57 1.75 1.71 1.56 1.46 1.56 1.49 1.39 1.33 1.40 1.63 1.93 2.19 2.45 2.87 3.40 3.89
1.26 1.47 1.59 1.60 1.57 1.62 1.64 1.84 1.70 1.68 1.75 1.79 1.70 1.95 1.91 1.75 1.90 2.05 2.15 2.17 1.93 1.78 1.85 1.69 1.52 1.54 1.57 1.60 1.64 1.64 1.51 1.40 1.25 1.17 1.14 1.18 1.25 1.42 1.62 1.81 2.07 2.33 2.60
1.35 1.51 1.66 1.74 1.66 1.63 1.72 1.91 1.86 1.89 1.97 1.90 1.90 2.09 2.02 1.89 1.89 1.90 2.09 2.35 2.42 2.21 2.12 1.93 1.73 1.64 1.59 1.58 1.68 1.54 1.54 1.60 1.37 1.18 1.11 1.08 1.11 1.18 1.22 1.24 1.33 1.45 1.60
1.49 1.53 1.50 1.53 1.51 1.51 1.63 1.90 1.92 1.97 2.11 2.07 2.04 2.07 2.06 1.95 2.00 1.95 2.04 2.32 2.52 2.52 2.26 1.79 1.75 1.66 1.61 1.46 1.58 1.46 1.51 1.64 1.42 1.22 1.10 1.02 0.99 1.01 1.08 1.15 1.24 1.30 1.39
1.54 1.49 1.45 1.46 1.43 1.36 1.44 1.63 1.76 1.95 2.07 2.12 2.10 2.13 2.11 2.18 2.19 2.06 2.12 2.21 2.38 2.55 2.26 1.84 1.90 2.05 2.02 1.83 1.68 1.54 1.44 1.39 1.35 1.33 1.10 1.04 1.03 1.00 1.08 1.13 1.17 1.22 1.31
1.61 1.58 1.53 1.51 1.39 1.35 1.44 1.56 1.71 1.87 2.01 2.13 2.22 2.29 2.09 2.15 2.26 2.18 2.17 2.19 2.28 2.53 2.44 2.31 2.27 2.34 2.27 2.04 1.83 1.59 1.28 1.15 1.22 1.44 1.23 1.10 1.06 1.08 1.12 1.11 1.03 1.02 1.05
1.58 1.63 1.64 1.57 1.51 1.55 1.64 1.70 1.74 1.88 2.01 2.09 2.18 2.16 2.10 2.21 2.12 2.15 2.21 2.19 2.17 2.22 2.32 2.30 2.22 2.29 2.24 2.03 1.85 1.58 1.34 1.33 1.23 1.29 1.25 1.16 1.12 1.09 1.08 1.03 0.97 0.95 0.97
1.43 1.47 1.47 1.54 1.58 1.63 1.67 1.68 1.67 1.71 1.80 1.88 1.87 1.77 1.71 1.76 1.83 1.97 1.97 1.97 2.03 2.11 2.20 2.16 2.15 2.23 2.24 2.25 2.09 1.80 1.62 1.48 1.35 1.19 1.21 1.20 1.19 1.14 1.09 1.01 0.91 0.88 0.91
1.31 1.46 1.48 1.57 1.63 1.61 1.53 1.58 1.59 1.52 1.69 1.67 1.54 1.49 1.49 1.59 1.61 1.68 1.61 1.68 1.83 1.92 2.00 2.10 2.18 2.35 2.37 2.47 2.31 2.03 1.89 1.75 1.51 1.31 1.26 1.19 1.17 1.11 1.09 1.09 1.02 0.92 0.86
1.38 1.46 1.49 1.60 1.64 1.50 1.55 1.59 1.61 1.60 1.66 1.62 1.55 1.49 1.38 1.39 1.38 1.41 1.45 1.50 1.62 1.75 1.93 2.09 2.16 2.25 2.30 2.27 2.21 2.09 1.98 1.81 1.55 1.42 1.53 1.50 1.31 1.28 1.38 1.32 1.22 0.97 0.82
1.43 1.48 1.58 1.62 1.62 1.66 1.60 1.49 1.52 1.50 1.57 1.61 1.63 1.63 1.38 1.21 1.31 1.29 1.42 1.39 1.36 1.41 1.51 1.66 1.78 1.90 2.09 2.18 2.27 2.19 2.17 2.05 1.79 1.55 1.50 1.39 1.30 1.35 1.52 1.64 1.39 0.98 0.87
1.54 1.63 1.67 1.59 1.60 1.65 1.58 1.34 1.28 1.20 1.31 1.44 1.53 1.58 1.56 1.47 1.44 1.45 1.51 1.50 1.42 1.40 1.47 1.47 1.52 1.72 2.03 2.28 2.33 2.30 2.32 2.22 1.94 1.62 1.51 1.41 1.28 1.27 1.16 1.16 1.23 0.99 0.83
1.79 1.85 1.90 1.87 1.78 1.75 1.57 1.26 1.15 1.12 1.26 1.34 1.39 1.39 1.38 1.29 1.31 1.24 1.26 1.32 1.34 1.31 1.29 1.31 1.33 1.45 1.70 2.04 2.23 2.27 2.35 2.25 2.03 1.72 1.52 1.47 1.28 1.21 1.12 1.01 1.03 1.10 0.94
2.02 2.05 1.95 1.82 1.73 1.72 1.63 1.32 1.16 1.13 1.27 1.36 1.45 1.43 1.39 1.32 1.27 1.14 1.10 1.17 1.16 1.17 1.22 1.22 1.19 1.17 1.27 1.57 1.88 1.90 1.96 2.07 1.86 1.64 1.31 1.25 1.20 1.13 1.12 0.99 0.88 0.90 0.92

GEFSMA_prec_meanprecacc_216.txt.gz
Total_Precipitation_Accumulation
2.29 2.25 2.19 2.14 2.00 2.09 2.44 2.71 2.57 2.60 2.53 2.37 2.14 1.95 1.82 1.72 1.64 1.75 1.91 2.08 2.09 2.10 2.25 2.35 2.18 1.98 1.86 1.70 1.54 1.37 1.28 1.24 1.11 0.91 0.79 0.70 0.59 0.56 0.59 0.64 0.63 0.56 0.54
2.71 2.83 2.72 2.58 2.27 2.19 2.26 2.55 2.62 2.82 2.77 2.58 2.00 1.86 1.85 1.88 1.89 1.84 1.99 2.48 2.49 2.10 2.03 2.22 2.36 2.33 2.17 1.99 1.79 1.60 1.48 1.38 1.16 0.92 0.85 0.78 0.67 0.60 0.66 0.73 0.72 0.59 0.46
2.90 2.87 2.68 2.37 2.15 2.17 2.33 2.29 2.31 2.59 2.42 2.28 2.12 2.18 2.17 2.08 1.93 1.91 2.00 2.39 2.38 2.01 1.82 1.86 2.12 2.29 2.39 2.44 2.28 2.16 1.94 1.63 1.34 1.06 0.91 0.77 0.67 0.57 0.57 0.69 0.76 0.65 0.49
2.50 2.58 2.25 1.94 2.03 2.19 2.29 2.39 2.28 2.37 2.40 2.47 2.48 2.45 2.33 2.16 1.78 1.66 1.59 1.65 1.82 1.57 1.65 1.85 1.89 1.94 2.24 2.62 2.77 2.94 2.68 2.14 1.67 1.31 1.07 0.86 0.71 0.57 0.51 0.57 0.67 0.64 0.52
1.95 2.09 1.92 1.86 1.90 2.08 2.12 1.97 2.25 2.45 2.45 2.49 2.34 2.36 2.02 1.85 1.61 1.35 1.30 1.24 1.31 1.41 1.43 1.54 1.64 1.71 2.12 2.73 3.22 3.60 3.55 2.99 2.34 1.88 1.56 1.23 1.00 0.74 0.61 0.55 0.57 0.58 0.52
1.76 1.94 1.85 1.78 1.83 1.97 2.06 2.18 2.43 2.53 2.28 2.25 2.08 1.93 1.65 1.32 1.25 1.17 1.03 1.06 1.11 1.07 1.18 1.37 1.61 1.52 1.97 2.48 3.03 3.56 3.97 3.77 3.02 2.48 2.22 1.92 1.63 1.25 0.88 0.67 0.58 0.58 0.54
1.86 2.01 1.86 1.89 1.76 1.81 1.83 1.94 2.13 2.22 1.92 2.07 2.48 2.07 1.47 1.17 1.14 0.99 0.94 0.99 1.01 1.06 1.21 1.51 1.69 1.77 1.90 1.99 2.22 2.75 3.55 3.93 3.65 3.08 2.75 2.47 2.22 1.79 1.29 1.00 0.81 0.67 0.62
1.77 1.76 1.85 1.73 1.68 1.76 1.76 1.83 2.02 2.01 1.77 1.98 2.41 2.50 1.97 1.58 1.29 0.94 0.93 0.96 1.08 1.26 1.31 1.37 1.74 2.02 2.07 2.43 2.08 2.06 2.71 3.39 3.71 3.54 3.23 2.74 2.40 2.04 1.65 1.39 1.11 0.89 0.77
1.58 1.56 1.53 1.59 1.68 1.51 1.63 1.80 1.95 2.07 1.93 1.84 2.10 2.50 2.28 1.91 1.59 1.26 1.15 1.23 1.35 1.48 1.52 1.68 1.80 1.98 2.11 2.57 2.52 2.34 2.30 2.51 3.16 3.80 3.80 3.16 2.43 1.97 1.83 1.79 1.66 1.33 1.09
1.45 1.43 1.40 1.54 1.61 1.55 1.72 1.52 1.63 1.91 2.08 1.89 1.87 1.93 1.95 2.13 2.12 1.75 1.38 1.28 1.40 1.53 1.60 1.60 1.68 1.94 2.09 2.34 2.68 2.49 2.22 2.04 2.29 3.06 3.65 3.58 2.96 2.26 1.94 2.02 2.34 2.20 1.73
1.44 1.28 1.34 1.48 1.55 1.57 1.64 1.61 1.71 1.70 1.76 1.79 1.81 1.80 1.89 2.09 2.00 1.94 1.74 1.54 1.49 1.37 1.41 1.51 1.66 1.86 1.93 2.12 2.46 2.25 2.19 1.97 1.89 2.13 2.63 3.01 3.07 2.76 2.44 2.45 2.94 3.30 3.06
1.45 1.28 1.30 1.50 1.55 1.57 1.58 1.62 1.62 1.57 1.63 1.71 1.76 1.78 1.91 1.91 1.87 1.98 1.85 1.65 1.60 1.36 1.36 1.44 1.59 1.72 1.74 1.84 1.70 1.68 1.74 1.86 1.81 1.69 1.75 1.99 2.37 2.63 2.67 2.90 3.40 3.93 4.22
1.32 1.30 1.29 1.55 1.64 1.63 1.62 1.68 1.66 1.63 1.72 1.78 1.79 1.83 1.86 1.81 1.82 1.97 1.96 1.72 1.64 1.48 1.57 1.56 1.53 1.65 1.63 1.80 1.75 1.58 1.49 1.60 1.53 1.43 1.36 1.43 1.67 1.98 2.25 2.51 2.94 3.47 3.96
1.30 1.51 1.63 1.64 1.61 1.65 1.68 1.88 1.74 1.74 1.81 1.84 1.76 2.03 1.98 1.82 1.98 2.15 2.26 2.31 2.07 1.89 1.92 1.74 1.57 1.59 1.62 1.64 1.68 1.67 1.55 1.44 1.27 1.19 1.16 1.21 1.30 1.48 1.70 1.90 2.16 2.41 2.68
1.37 1.54 1.69 1.76 1.68 1.66 1.76 1.96 1.90 1.94 2.04 1.97 1.97 2.18 2.11 1.99 2.00 2.02 2.20 2.45 2.53 2.32 2.21 2.02 1.81 1.72 1.66 1.65 1.74 1.58 1.57 1.63 1.39 1.21 1.17 1.13 1.14 1.22 1.28 1.31 1.40 1.51 1.66
1.50 1.55 1.53 1.56 1.54 1.54 1.66 1.95 1.96 2.02 2.17 2.13 2.10 2.12 2.12 2.01 2.06 2.02 2.10 2.40 2.64 2.66 2.39 1.89 1.83 1.75 1.69 1.53 1.64 1.49 1.53 1.66 1.44 1.25 1.13 1.06 1.05 1.08 1.14 1.21 1.30 1.35 1.43
1.57 1.51 1.47 1.48 1.46 1.39 1.48 1.67 1.80 1.99 2.11 2.17 2.14 2.17 2.16 2.24 2.27 2.13 2.20 2.32 2.49 2.65 2.35 1.92 1.99 2.13 2.09 1.88 1.71 1.56 1.45 1.40 1.37 1.35 1.12 1.07 1.08 1.07 1.13 1.19 1.24 1.29 1.36
1.63 1.60 1.54 1.52 1.40 1.38 1.48 1.61 1.76 1.93 2.07 2.18 2.28 2.35 2.15 2.20 2.32 2.24 2.23 2.25 2.34 2.58 2.50 2.37 2.34 2.40 2.32 2.07 1.86 1.61 1.31 1.18 1.25 1.47 1.25 1.12 1.09 1.11 1.15 1.15 1.08 1.08 1.09
1.60 1.64 1.65 1.58 1.52 1.56 1.65 1.72 1.78 1.92 2.05 2.13 2.22 2.21 2.15 2.26 2.17 2.20 2.26 2.23 2.21 2.26 2.38 2.36 2.27 2.34 2.27 2.05 1.87 1.61 1.38 1.35 1.24 1.30 1.26 1.17 1.13 1.10 1.11 1.06 0.99 0.97 0.99
1.46 1.49 1.49 1.56 1.60 1.65 1.70 1.70 1.70 1.74 1.82 1.90 1.89 1.80 1.73 1.79 1.86 2.00 2.00 2.00 2.06 2.13 2.23 2.19 2.18 2.25 2.26 2.28 2.12 1.82 1.65 1.50 1.36 1.20 1.22 1.21 1.20 1.15 1.10 1.02 0.92 0.89 0.92
1.34 1.50 1.53 1.62 1.68 1.65 1.56 1.61 1.62 1.54 1.72 1.69 1.56 1.50 1.51 1.60 1.63 1.70 1.63 1.70 1.85 1.93 2.02 2.12 2.20 2.36 2.39 2.50 2.34 2.05 1.91 1.77 1.53 1.32 1.27 1.20 1.18 1.13 1.11 1.10 1.03 0.93 0.87
1.41 1.50 1.56 1.67 1.69 1.54 1.58 1.62 1.64 1.62 1.68 1.64 1.56 1.50 1.39 1.40 1.39 1.42 1.46 1.51 1.63 1.76 1.93 2.10 2.18 2.27 2.33 2.29 2.24 2.11 2.00 1.83 1.57 1.43 1.54 1.52 1.32 1.30 1.40 1.34 1.24 0.99 0.84
1.46 1.55 1.68 1.74 1.70 1.72 1.62 1.50 1.53 1.52 1.58 1.63 1.64 1.63 1.38 1.22 1.32 1.30 1.43 1.40 1.36 1.42 1.52 1.68 1.80 1.93 2.11 2.21 2.29 2.21 2.19 2.07 1.81 1.57 1.51 1.41 1.32 1.37 1.54 1.66 1.41 1.00 0.88
1.59 1.71 1.76 1.68 1.65 1.67 1.59 1.35 1.29 1.21 1.32 1.44 1.53 1.58 1.57 1.47 1.44 1.46 1.51 1.50 1.43 1.41 1.49 1.50 1.54 1.73 2.05 2.31 2.36 2.32 2.33 2.23 1.96 1.63 1.53 1.44 1.30 1.28 1.17 1.17 1.24 1.00 0.84
1.84 1.90 1.95 1.90 1.79 1.76 1.57 1.26 1.15 1.12 1.26 1.34 1.39 1.39 1.38 1.30 1.31 1.24 1.27 1.34 1.35 1.32 1.31 1.32 1.34 1.46 1.71 2.06 2.25 2.29 2.37 2.27 2.05 1.74 1.54 1.49 1.30 1.22 1.13 1.02 1.04 1.10 0.94
2.04 2.07 1.97 1.83 1.74 1.72 1.63 1.33 1.16 1.13 1.28 1.36 1.45 1.44 1.39 1.32 1.28 1.14 1.10 1.18 1.18 1.18 1.24 1.25 1.22 1.21 1.31 1.60 1.92 1.93 1.99 2.10 1.88 1.66 1.32 1.26 1.21 1.14 1.14 1.00 0.89 0.91 0.93

GEFSMA_prec_meanprecacc_222.txt.gz
Total_Precipitation_Accumulation
2.36 2.33 2.25 2.21 2.06 2.14 2.48 2.75 2.60 2.63 2.55 2.38 2.15 1.97 1.83 1.73 1.65 1.75 1.92 2.08 2.10 2.11 2.26 2.36 2.20 1.99 1.87 1.72 1.56 1.40 1.30 1.27 1.14 0.93 0.81 0.71 0.61 0.59 0.61 0.66 0.65 0.58 0.56
2.78 2.92 2.78 2.64 2.32 2.23 2.29 2.58 2.64 2.86 2.80 2.60 2.02 1.88 1.88 1.90 1.90 1.85 2.01 2.51 2.50 2.11 2.05 2.24 2.38 2.35 2.19 2.01 1.83 1.64 1.51 1.41 1.18 0.95 0.88 0.81 0.69 0.62 0.69 0.76 0.75 0.61 0.47
2.98 2.95 2.76 2.44 2.21 2.21 2.36 2.33 2.34 2.63 2.46 2.33 2.16 2.22 2.20 2.10 1.94 1.93 2.03 2.45 2.44 2.07 1.87 1.90 2.16 2.33 2.42 2.48 2.35 2.24 1.99 1.68 1.39 1.11 0.95 0.80 0.70 0.60 0.60 0.72 0.79 0.69 0.52
2.56 2.65 2.33 2.01 2.09 2.24 2.34 2.45 2.33 2.42 2.46 2.54 2.55 2.51 2.38 2.19 1.81 1.68 1.63 1.73 1.93 1.68 1.75 1.91 1.95 1.99 2.30 2.68 2.85 3.04 2.77 2.20 1.73 1.36 1.12 0.90 0.75 0.62 0.57 0.61 0.71 0.68 0.56
1.98 2.15 2.01 1.94 1.97 2.15 2.17 2.01 2.32 2.55 2.55 2.57 2.40 2.43 2.07 1.90 1.67 1.41 1.38 1.33 1.42 1.53 1.55 1.65 1.74 1.78 2.20 2.82 3.31 3.68 3.63 3.06 2.39 1.92 1.61 1.27 1.06 0.82 0.67 0.60 0.62 0.63 0.56
1.79 2.00 1.92 1.85 1.89 2.06 2.14 2.26 2.52 2.65 2.39 2.34 2.13 1.99 1.71 1.38 1.32 1.26 1.13 1.14 1.19 1.17 1.29 1.51 1.78 1.62 2.04 2.54 3.10 3.63 4.03 3.84 3.10 2.56 2.31 2.03 1.74 1.34 0.95 0.74 0.64 0.62 0.58
1.89 2.08 1.93 1.97 1.83 1.89 1.92 2.04 2.27 2.38 2.04 2.17 2.59 2.18 1.56 1.22 1.22 1.08 1.03 1.07 1.09 1.15 1.30 1.60 1.79 1.87 2.00 2.06 2.28 2.82 3.62 4.02 3.74 3.18 2.85 2.57 2.31 1.87 1.36 1.06 0.86 0.72 0.66
1.83 1.84 1.95 1.83 1.78 1.86 1.87 1.94 2.16 2.15 1.89 2.08 2.54 2.66 2.12 1.73 1.42 1.03 1.01 1.05 1.17 1.36 1.39 1.45 1.83 2.13 2.17 2.53 2.15 2.13 2.78 3.48 3.81 3.63 3.31 2.82 2.47 2.11 1.71 1.45 1.17 0.94 0.81
1.62 1.64 1.63 1.68 1.78 1.60 1.74 1.91 2.05 2.17 2.05 1.97 2.23 2.65 2.45 2.09 1.76 1.40 1.27 1.35 1.46 1.59 1.61 1.76 1.88 2.09 2.23 2.69 2.61 2.40 2.35 2.59 3.26 3.89 3.89 3.24 2.49 2.03 1.88 1.85 1.73 1.38 1.13
1.49 1.50 1.48 1.63 1.70 1.64 1.83 1.59 1.71 2.00 2.21 2.03 2.02 2.07 2.08 2.29 2.29 1.90 1.55 1.42 1.54 1.67 1.73 1.71 1.80 2.06 2.22 2.45 2.76 2.55 2.27 2.10 2.36 3.14 3.73 3.67 3.04 2.32 1.99 2.07 2.40 2.25 1.77
1.48 1.33 1.42 1.57 1.65 1.68 1.75 1.70 1.80 1.78 1.86 1.88 1.93 1.92 2.02 2.24 2.14 2.08 1.90 1.71 1.64 1.49 1.53 1.62 1.77 1.97 2.04 2.21 2.56 2.33 2.25 2.03 1.94 2.20 2.71 3.10 3.16 2.83 2.50 2.52 3.00 3.34 3.10
1.52 1.35 1.38 1.59 1.65 1.69 1.71 1.73 1.71 1.65 1.72 1.80 1.85 1.88 2.02 2.04 2.00 2.11 2.00 1.82 1.74 1.49 1.47 1.54 1.69 1.82 1.84 1.93 1.78 1.76 1.81 1.92 1.87 1.75 1.83 2.07 2.44 2.69 2.74 2.97 3.45 3.98 4.27
1.41 1.38 1.36 1.63 1.73 1.72 1.71 1.78 1.75 1.73 1.82 1.87 1.88 1.92 1.96 1.92 1.94 2.11 2.14 1.89 1.78 1.60 1.67 1.64 1.61 1.72 1.69 1.87 1.82 1.66 1.55 1.66 1.59 1.48 1.42 1.48 1.72 2.02 2.30 2.57 3.00 3.54 4.03
1.36 1.56 1.67 1.70 1.67 1.71 1.74 1.96 1.82 1.82 1.90 1.92 1.84 2.11 2.06 1.91 2.09 2.28 2.44 2.48 2.19 1.99 2.00 1.81 1.63 1.64 1.67 1.70 1.76 1.76 1.63 1.50 1.32 1.22 1.19 1.24 1.32 1.51 1.73 1.94 2.21 2.46 2.73
1.40 1.57 1.72 1.81 1.72 1.70 1.80 2.01 1.97 2.00 2.10 2.02 2.02 2.24 2.19 2.07 2.10 2.16 2.39 2.64 2.68 2.44 2.31 2.11 1.88 1.79 1.74 1.73 1.85 1.68 1.65 1.66 1.41 1.24 1.19 1.16 1.17 1.25 1.31 1.34 1.44 1.55 1.71
1.55 1.60 1.57 1.60 1.58 1.58 1.71 2.00 2.01 2.06 2.22 2.17 2.15 2.19 2.20 2.10 2.16 2.13 2.24 2.53 2.77 2.79 2.52 1.99 1.92 1.84 1.77 1.60 1.71 1.55 1.57 1.69 1.46 1.26 1.14 1.07 1.06 1.10 1.16 1.24 1.34 1.39 1.46
1.61 1.55 1.51 1.52 1.49 1.42 1.50 1.69 1.82 2.02 2.15 2.21 2.19 2.23 2.23 2.32 2.35 2.22 2.30 2.41 2.59 2.75 2.45 2.00 2.06 2.20 2.14 1.93 1.76 1.59 1.47 1.43 1.40 1.37 1.13 1.08 1.10 1.09 1.16 1.23 1.29 1.32 1.39
1.68 1.64 1.58 1.55 1.42 1.40 1.50 1.62 1.77 1.94 2.09 2.20 2.31 2.39 2.19 2.25 2.38 2.32 2.30 2.33 2.42 2.68 2.59 2.45 2.40 2.47 2.38 2.13 1.90 1.65 1.34 1.22 1.29 1.50 1.26 1.12 1.09 1.12 1.16 1.18 1.14 1.14 1.14
1.63 1.68 1.68 1.60 1.54 1.58 1.66 1.73 1.80 1.94 2.06 2.14 2.24 2.23 2.17 2.30 2.22 2.25 2.32 2.30 2.28 2.33 2.46 2.43 2.32 2.40 2.33 2.11 1.92 1.66 1.42 1.40 1.28 1.32 1.27 1.18 1.13 1.11 1.12 1.07 1.01 1.00 1.02
1.48 1.51 1.51 1.59 1.62 1.67 1.71 1.71 1.71 1.75 1.83 1.91 1.90 1.81 1.75 1.81 1.89 2.03 2.04 2.05 2.12 2.20 2.29 2.25 2.22 2.30 2.30 2.33 2.16 1.86 1.69 1.55 1.39 1.22 1.22 1.21 1.20 1.16 1.11 1.03 0.93 0.91 0.95
1.36 1.52 1.56 1.64 1.70 1.68 1.59 1.63 1.63 1.55 1.73 1.70 1.57 1.51 1.52 1.62 1.64 1.72 1.65 1.74 1.90 1.99 2.07 2.16 2.23 2.40 2.41 2.52 2.37 2.09 1.95 1.82 1.56 1.34 1.28 1.20 1.19 1.13 1.11 1.11 1.05 0.96 0.90
1.42 1.52 1.58 1.69 1.74 1.59 1.63 1.66 1.67 1.64 1.70 1.66 1.59 1.52 1.41 1.41 1.40 1.44 1.48 1.53 1.66 1.79 1.97 2.14 2.21 2.29 2.36 2.32 2.27 2.15 2.04 1.87 1.60 1.45 1.56 1.53 1.33 1.31 1.42 1.35 1.26 1.01 0.87
1.49 1.57 1.71 1.78 1.76 1.79 1.69 1.56 1.58 1.56 1.61 1.65 1.67 1.66 1.40 1.22 1.32 1.31 1.44 1.41 1.38 1.44 1.54 1.71 1.83 1.96 2.15 2.24 2.32 2.24 2.22 2.09 1.84 1.59 1.53 1.42 1.33 1.37 1.55 1.69 1.44 1.03 0.92
1.62 1.75 1.79 1.71 1.68 1.71 1.63 1.39 1.32 1.24 1.35 1.46 1.54 1.60 1.58 1.48 1.45 1.46 1.52 1.51 1.44 1.43 1.51 1.51 1.56 1.75 2.08 2.36 2.40 2.35 2.36 2.26 1.99 1.65 1.54 1.45 1.31 1.29 1.18 1.18 1.26 1.01 0.85
1.87 1.93 1.97 1.92 1.80 1.76 1.57 1.27 1.15 1.13 1.27 1.35 1.40 1.40 1.38 1.30 1.31 1.24 1.27 1.35 1.36 1.33 1.32 1.33 1.35 1.48 1.73 2.09 2.28 2.32 2.40 2.31 2.09 1.78 1.57 1.52 1.32 1.24 1.14 1.02 1.04 1.11 0.95
2.07 2.09 1.98 1.85 1.75 1.72 1.64 1.33 1.16 1.13 1.28 1.36 1.46 1.44 1.40 1.32 1.28 1.14 1.11 1.18 1.18 1.19 1.24 1.25 1.23 1.22 1.32 1.62 1.93 1.94 2.01 2.14 1.93 1.70 1.36 1.29 1.23 1.16 1.16 1.01 0.90 0.91 0.93

GEFSMA_prec_meanprecacc_228.txt.gz
Total_Precipitation_Accumulation
2.39 2.37 2.29 2.24 2.09 2.18 2.53 2.79 2.66 2.67 2.58 2.41 2.18 2.00 1.87 1.76 1.67 1.78 1.94 2.11 2.11 2.13 2.28 2.38 2.21 2.00 1.88 1.74 1.58 1.41 1.31 1.29 1.17 0.96 0.83 0.73 0.63 0.62 0.65 0.70 0.70 0.61 0.58
2.80 2.94 2.81 2.66 2.36 2.26 2.33 2.61 2.67 2.89 2.82 2.63 2.05 1.93 1.93 1.93 1.94 1.89 2.05 2.53 2.52 2.14 2.09 2.29 2.42 2.38 2.22 2.05 1.88 1.68 1.54 1.44 1.23 0.98 0.90 0.84 0.73 0.67 0.73 0.80 0.80 0.65 0.52
2.99 2.97 2.79 2.47 2.24 2.23 2.39 2.36 2.36 2.65 2.48 2.35 2.21 2.27 2.25 2.16 2.01 1.98 2.08 2.50 2.49 2.13 1.96 1.98 2.23 2.40 2.49 2.55 2.44 2.33 2.08 1.75 1.45 1.16 0.99 0.85 0.74 0.63 0.64 0.76 0.83 0.73 0.56
2.58 2.67 2.35 2.03 2.11 2.26 2.35 2.47 2.36 2.45 2.49 2.58 2.61 2.58 2.45 2.29 1.91 1.78 1.72 1.81 2.02 1.76 1.85 2.02 2.06 2.08 2.41 2.81 2.97 3.15 2.86 2.27 1.77 1.40 1.15 0.95 0.80 0.66 0.60 0.65 0.74 0.72 0.59
1.99 2.17 2.02 1.96 1.99 2.17 2.19 2.04 2.35 2.58 2.58 2.61 2.45 2.50 2.16 1.99 1.77 1.52 1.49 1.46 1.57 1.69 1.70 1.79 1.88 1.89 2.30 2.94 3.42 3.79 3.71 3.12 2.44 1.98 1.67 1.32 1.11 0.86 0.71 0.65 0.66 0.67 0.61
1.81 2.02 1.94 1.87 1.91 2.08 2.17 2.29 2.57 2.68 2.42 2.37 2.19 2.07 1.81 1.48 1.43 1.37 1.23 1.28 1.37 1.34 1.46 1.64 1.88 1.70 2.11 2.62 3.18 3.72 4.12 3.92 3.17 2.63 2.38 2.09 1.80 1.40 1.01 0.79 0.70 0.67 0.62
1.91 2.10 1.94 2.00 1.86 1.93 1.95 2.07 2.31 2.42 2.08 2.21 2.65 2.26 1.67 1.34 1.35 1.22 1.18 1.25 1.29 1.30 1.47 1.74 1.88 1.94 2.06 2.12 2.34 2.90 3.73 4.13 3.83 3.26 2.92 2.64 2.38 1.93 1.41 1.11 0.91 0.76 0.70
1.85 1.85 1.98 1.86 1.82 1.93 1.93 2.01 2.20 2.20 1.94 2.14 2.61 2.71 2.17 1.80 1.52 1.13 1.12 1.19 1.31 1.50 1.54 1.57 1.94 2.23 2.26 2.59 2.20 2.21 2.88 3.60 3.94 3.75 3.39 2.87 2.52 2.16 1.76 1.50 1.22 0.99 0.86
1.65 1.66 1.67 1.74 1.85 1.68 1.80 1.97 2.11 2.23 2.11 2.03 2.31 2.71 2.49 2.14 1.82 1.45 1.33 1.42 1.56 1.70 1.74 1.89 2.00 2.21 2.34 2.78 2.70 2.50 2.46 2.71 3.41 4.06 4.03 3.34 2.58 2.10 1.95 1.91 1.78 1.44 1.18
1.52 1.53 1.52 1.67 1.75 1.69 1.89 1.66 1.78 2.07 2.27 2.07 2.08 2.13 2.15 2.34 2.33 1.94 1.60 1.50 1.62 1.76 1.83 1.83 1.89 2.16 2.33 2.61 2.91 2.66 2.37 2.21 2.50 3.30 3.88 3.80 3.16 2.42 2.08 2.16 2.48 2.33 1.85
1.51 1.35 1.45 1.59 1.68 1.72 1.80 1.75 1.86 1.85 1.93 1.96 2.00 1.99 2.08 2.29 2.18 2.12 1.95 1.76 1.69 1.54 1.59 1.70 1.86 2.06 2.15 2.35 2.68 2.44 2.37 2.14 2.06 2.31 2.84 3.23 3.28 2.94 2.61 2.63 3.11 3.45 3.19
1.55 1.39 1.42 1.62 1.68 1.72 1.74 1.78 1.78 1.73 1.81 1.90 1.95 1.97 2.10 2.10 2.04 2.15 2.06 1.88 1.78 1.52 1.52 1.58 1.76 1.90 1.92 2.01 1.86 1.86 1.91 2.02 1.96 1.83 1.89 2.15 2.53 2.81 2.86 3.08 3.57 4.09 4.37
1.45 1.43 1.41 1.66 1.76 1.74 1.72 1.81 1.79 1.77 1.88 1.94 1.96 1.99 2.04 2.00 1.99 2.16 2.21 1.95 1.81 1.64 1.73 1.71 1.70 1.82 1.78 1.95 1.90 1.74 1.64 1.75 1.65 1.55 1.48 1.53 1.78 2.13 2.44 2.73 3.13 3.62 4.10
1.38 1.59 1.70 1.72 1.69 1.73 1.75 1.98 1.83 1.84 1.92 1.95 1.88 2.17 2.12 1.98 2.16 2.36 2.52 2.56 2.25 2.04 2.05 1.87 1.70 1.69 1.71 1.75 1.80 1.81 1.69 1.55 1.36 1.26 1.24 1.28 1.38 1.59 1.83 2.05 2.29 2.52 2.78
1.41 1.59 1.74 1.83 1.74 1.72 1.82 2.03 1.99 2.03 2.13 2.04 2.04 2.27 2.22 2.11 2.16 2.23 2.49 2.75 2.77 2.51 2.38 2.17 1.93 1.83 1.77 1.77 1.88 1.72 1.69 1.71 1.46 1.28 1.24 1.22 1.25 1.33 1.39 1.41 1.48 1.59 1.75
1.56 1.61 1.57 1.62 1.61 1.60 1.73 2.02 2.04 2.09 2.24 2.19 2.17 2.21 2.22 2.12 2.19 2.17 2.29 2.62 2.89 2.90 2.60 2.05 1.98 1.89 1.81 1.63 1.75 1.59 1.62 1.73 1.50 1.31 1.18 1.11 1.10 1.13 1.19 1.27 1.37 1.41 1.48
1.63 1.57 1.52 1.55 1.52 1.45 1.52 1.71 1.83 2.03 2.16 2.21 2.19 2.24 2.24 2.33 2.36 2.25 2.34 2.46 2.68 2.85 2.53 2.05 2.11 2.25 2.20 1.99 1.81 1.64 1.51 1.47 1.43 1.40 1.16 1.10 1.11 1.10 1.17 1.24 1.30 1.34 1.40
1.69 1.66 1.61 1.58 1.45 1.42 1.51 1.64 1.78 1.95 2.10 2.21 2.31 2.39 2.19 2.26 2.39 2.33 2.33 2.36 2.46 2.73 2.64 2.51 2.46 2.51 2.42 2.17 1.94 1.68 1.39 1.27 1.32 1.53 1.29 1.15 1.10 1.13 1.17 1.19 1.14 1.14 1.16
1.66 1.70 1.71 1.64 1.57 1.59 1.68 1.74 1.81 1.95 2.08 2.15 2.24 2.23 2.18 2.31 2.23 2.26 2.33 2.31 2.30 2.37 2.50 2.47 2.36 2.45 2.37 2.15 1.97 1.70 1.47 1.44 1.31 1.34 1.28 1.19 1.14 1.12 1.13 1.09 1.03 1.01 1.03
1.51 1.54 1.54 1.62 1.64 1.69 1.72 1.73 1.73 1.78 1.86 1.93 1.91 1.82 1.75 1.82 1.89 2.04 2.05 2.06 2.14 2.23 2.32 2.27 2.25 2.34 2.36 2.39 2.22 1.91 1.73 1.57 1.41 1.23 1.23 1.22 1.21 1.17 1.12 1.04 0.95 0.93 0.97
1.38 1.54 1.59 1.67 1.72 1.69 1.60 1.65 1.66 1.58 1.76 1.73 1.59 1.53 1.54 1.63 1.65 1.73 1.66 1.75 1.92 2.00 2.08 2.17 2.25 2.42 2.44 2.56 2.41 2.12 1.98 1.84 1.57 1.35 1.29 1.21 1.19 1.14 1.12 1.12 1.06 0.97 0.91
1.45 1.55 1.61 1.71 1.75 1.60 1.64 1.68 1.69 1.67 1.72 1.68 1.63 1.56 1.44 1.43 1.41 1.45 1.49 1.53 1.67 1.81 1.98 2.15 2.22 2.31 2.38 2.35 2.30 2.18 2.06 1.89 1.62 1.46 1.57 1.53 1.34 1.31 1.42 1.37 1.28 1.03 0.88
1.53 1.60 1.73 1.79 1.77 1.79 1.70 1.57 1.59 1.57 1.63 1.67 1.68 1.67 1.41 1.24 1.34 1.32 1.44 1.42 1.39 1.45 1.55 1.72 1.83 1.97 2.16 2.25 2.34 2.26 2.24 2.11 1.85 1.61 1.54 1.43 1.34 1.39 1.57 1.70 1.46 1.05 0.93
1.66 1.79 1.82 1.73 1.69 1.71 1.63 1.39 1.33 1.25 1.37 1.48 1.56 1.62 1.61 1.50 1.46 1.47 1.52 1.52 1.45 1.43 1.51 1.51 1.56 1.76 2.09 2.37 2.41 2.36 2.38 2.28 2.00 1.67 1.56 1.46 1.32 1.30 1.19 1.20 1.27 1.02 0.86
1.91 1.97 2.00 1.95 1.82 1.78 1.58 1.28 1.17 1.14 1.29 1.37 1.43 1.43 1.42 1.33 1.33 1.25 1.28 1.35 1.37 1.33 1.32 1.33 1.36 1.48 1.74 2.10 2.29 2.32 2.41 2.32 2.11 1.79 1.59 1.54 1.34 1.26 1.16 1.04 1.06 1.12 0.96
2.11 2.13 2.02 1.89 1.78 1.75 1.67 1.35 1.18 1.15 1.29 1.38 1.47 1.46 1.42 1.35 1.30 1.16 1.12 1.19 1.19 1.19 1.25 1.26 1.24 1.23 1.33 1.63 1.94 1.95 2.02 2.15 1.95 1.72 1.38 1.31 1.24 1.18 1.17 1.02 0.91 0.92 0.94

GEFSMA_prec_meanprecacc_234.txt.gz
Total_Precipitation_Accumulation
2.47 2.44 2.37 2.31 2.16 2.24 2.58 2.83 2.70 2.71 2.61 2.44 2.20 2.01 1.87 1.77 1.68 1.79 1.97 2.15 2.15 2.17 2.33 2.43 2.25 2.03 1.92 1.78 1.61 1.44 1.35 1.32 1.20 0.99 0.87 0.78 0.68 0.67 0.70 0.74 0.74 0.65 0.62
2.87 3.00 2.87 2.72 2.41 2.31 2.36 2.64 2.71 2.92 2.85 2.65 2.06 1.95 1.95 1.95 1.96 1.91 2.08 2.57 2.58 2.19 2.15 2.37 2.51 2.45 2.29 2.13 1.94 1.75 1.62 1.52 1.30 1.05 0.96 0.89 0.78 0.72 0.78 0.85 0.84 0.70 0.56
3.04 3.03 2.85 2.52 2.29 2.29 2.43 2.40 2.40 2.70 2.52 2.38 2.24 2.31 2.29 2.19 2.04 2.01 2.12 2.54 2.55 2.21 2.05 2.07 2.33 2.51 2.61 2.69 2.58 2.47 2.21 1.88 1.55 1.24 1.05 0.91 0.80 0.69 0.68 0.81 0.89 0.78 0.62
2.61 2.71 2.40 2.09 2.16 2.31 2.41 2.52 2.41 2.49 2.53 2.62 2.66 2.63 2.51 2.34 1.95 1.82 1.76 1.85 2.09 1.84 1.95 2.14 2.20 2.24 2.59 2.99 3.16 3.34 3.01 2.39 1.85 1.46 1.21 1.01 0.87 0.73 0.65 0.69 0.79 0.78 0.64
2.01 2.18 2.05 2.00 2.03 2.22 2.25 2.09 2.39 2.61 2.62 2.65 2.51 2.56 2.21 2.04 1.83 1.58 1.55 1.51 1.64 1.77 1.79 1.89 1.99 2.03 2.44 3.10 3.61 3.99 3.88 3.25 2.54 2.06 1.75 1.39 1.16 0.92 0.77 0.71 0.72 0.72 0.64
1.84 2.05 1.98 1.91 1.95 2.12 2.22 2.34 2.61 2.72 2.46 2.41 2.23 2.13 1.85 1.51 1.47 1.42 1.29 1.34 1.44 1.43 1.58 1.75 1.98 1.80 2.23 2.78 3.37 3.93 4.32 4.09 3.31 2.73 2.45 2.17 1.88 1.47 1.07 0.86 0.76 0.73 0.68
1.95 2.15 1.99 2.04 1.91 1.98 2.00 2.11 2.36 2.48 2.14 2.26 2.70 2.30 1.71 1.38 1.40 1.28 1.24 1.32 1.36 1.40 1.57 1.85 2.00 2.05 2.16 2.24 2.50 3.09 3.92 4.33 4.03 3.43 3.06 2.79 2.52 2.04 1.50 1.18 0.98 0.83 0.77
1.90 1.90 2.02 1.90 1.87 1.98 1.98 2.05 2.26 2.26 2.00 2.20 2.66 2.75 2.22 1.85 1.57 1.22 1.19 1.26 1.38 1.58 1.63 1.66 2.03 2.32 2.34 2.67 2.31 2.34 3.05 3.81 4.19 3.98 3.59 3.04 2.66 2.28 1.87 1.60 1.31 1.08 0.94
1.69 1.70 1.71 1.77 1.88 1.71 1.84 2.01 2.16 2.27 2.14 2.08 2.36 2.75 2.51 2.16 1.84 1.48 1.37 1.48 1.61 1.77 1.83 1.98 2.07 2.29 2.43 2.85 2.76 2.58 2.59 2.86 3.62 4.28 4.25 3.56 2.76 2.26 2.08 2.03 1.89 1.52 1.27
1.54 1.56 1.56 1.71 1.79 1.74 1.93 1.69 1.81 2.09 2.28 2.10 2.14 2.19 2.20 2.37 2.36 1.98 1.64 1.53 1.65 1.80 1.87 1.88 1.96 2.23 2.41 2.70 3.00 2.75 2.47 2.29 2.62 3.48 4.10 4.02 3.35 2.58 2.23 2.30 2.60 2.44 1.96
1.52 1.37 1.47 1.62 1.72 1.77 1.84 1.78 1.88 1.87 1.95 1.99 2.06 2.06 2.16 2.35 2.23 2.15 1.97 1.78 1.71 1.56 1.62 1.75 1.91 2.13 2.24 2.47 2.82 2.54 2.43 2.20 2.12 2.41 2.99 3.42 3.49 3.16 2.83 2.80 3.25 3.59 3.36
1.57 1.40 1.44 1.63 1.71 1.75 1.76 1.80 1.80 1.74 1.83 1.92 1.98 2.01 2.15 2.16 2.10 2.20 2.08 1.89 1.80 1.54 1.54 1.61 1.80 1.95 2.01 2.11 1.96 1.94 1.97 2.07 2.01 1.90 1.96 2.23 2.64 2.93 3.00 3.23 3.72 4.26 4.54
1.47 1.45 1.43 1.69 1.78 1.76 1.75 1.83 1.80 1.78 1.90 1.97 1.99 2.03 2.09 2.05 2.05 2.22 2.25 1.98 1.84 1.66 1.75 1.73 1.72 1.86 1.85 2.02 1.98 1.82 1.71 1.81 1.71 1.60 1.51 1.56 1.83 2.21 2.55 2.86 3.30 3.81 4.27
1.40 1.61 1.72 1.75 1.72 1.76 1.77 1.99 1.85 1.86 1.94 1.97 1.90 2.20 2.15 2.02 2.22 2.42 2.56 2.60 2.29 2.07 2.08 1.90 1.73 1.73 1.74 1.79 1.86 1.87 1.74 1.61 1.42 1.31 1.28 1.33 1.44 1.68 1.95 2.22 2.50 2.72 2.95
1.45 1.62 1.77 1.85 1.77 1.75 1.84 2.05 2.00 2.04 2.14 2.05 2.06 2.28 2.23 2.13 2.18 2.25 2.52 2.79 2.83 2.57 2.43 2.22 1.99 1.87 1.80 1.80 1.92 1.75 1.72 1.75 1.50 1.33 1.30 1.29 1.35 1.44 1.49 1.52 1.62 1.71 1.85
1.58 1.64 1.61 1.65 1.64 1.62 1.75 2.05 2.05 2.10 2.26 2.20 2.19 2.23 2.24 2.14 2.21 2.20 2.33 2.67 2.95 2.96 2.66 2.11 2.03 1.94 1.85 1.68 1.80 1.62 1.65 1.79 1.57 1.39 1.27 1.18 1.16 1.18 1.23 1.31 1.43 1.48 1.55
1.65 1.60 1.55 1.58 1.56 1.46 1.53 1.72 1.84 2.04 2.17 2.23 2.22 2.26 2.26 2.36 2.39 2.28 2.37 2.50 2.72 2.89 2.57 2.11 2.17 2.32 2.28 2.06 1.87 1.69 1.58 1.56 1.54 1.50 1.21 1.15 1.15 1.12 1.18 1.27 1.33 1.37 1.45
1.71 1.68 1.63 1.59 1.47 1.44 1.53 1.65 1.79 1.96 2.11 2.23 2.34 2.42 2.22 2.29 2.42 2.35 2.35 2.38 2.49 2.77 2.67 2.54 2.50 2.57 2.49 2.23 2.00 1.74 1.46 1.33 1.38 1.58 1.32 1.17 1.12 1.14 1.19 1.21 1.17 1.16 1.17
1.68 1.72 1.73 1.66 1.60 1.63 1.71 1.76 1.82 1.96 2.09 2.17 2.26 2.25 2.20 2.33 2.24 2.27 2.35 2.33 2.33 2.40 2.52 2.50 2.39 2.48 2.41 2.21 2.03 1.77 1.52 1.48 1.35 1.37 1.30 1.20 1.15 1.13 1.14 1.10 1.05 1.03 1.05
1.53 1.56 1.56 1.65 1.68 1.72 1.75 1.74 1.74 1.79 1.87 1.94 1.93 1.84 1.78 1.85 1.93 2.07 2.07 2.08 2.16 2.24 2.33 2.28 2.26 2.35 2.37 2.41 2.25 1.95 1.78 1.61 1.44 1.24 1.24 1.22 1.22 1.17 1.13 1.06 0.97 0.95 0.99
1.42 1.59 1.62 1.69 1.74 1.72 1.62 1.67 1.67 1.59 1.76 1.73 1.60 1.55 1.56 1.66 1.69 1.77 1.70 1.78 1.94 2.02 2.08 2.17 2.26 2.43 2.45 2.57 2.44 2.16 2.02 1.86 1.59 1.35 1.30 1.21 1.19 1.14 1.13 1.13 1.07 0.98 0.92
1.49 1.58 1.63 1.73 1.77 1.63 1.66 1.69 1.69 1.68 1.72 1.69 1.63 1.56 1.45 1.45 1.43 1.47 1.51 1.56 1.69 1.82 1.98 2.15 2.22 2.31 2.38 2.36 2.32 2.20 2.09 1.91 1.63 1.47 1.57 1.54 1.34 1.32 1.43 1.38 1.29 1.04 0.89
1.57 1.64 1.77 1.82 1.79 1.81 1.71 1.58 1.60 1.58 1.64 1.67 1.69 1.68 1.41 1.24 1.34 1.33 1.45 1.43 1.40 1.46 1.56 1.72 1.84 1.98 2.17 2.26 2.35 2.27 2.25 2.13 1.86 1.62 1.55 1.44 1.35 1.39 1.57 1.71 1.46 1.05 0.94
1.74 1.85 1.87 1.76 1.70 1.73 1.65 1.41 1.34 1.26 1.37 1.49 1.56 1.63 1.61 1.51 1.47 1.48 1.53 1.53 1.46 1.44 1.52 1.52 1.57 1.78 2.10 2.38 2.42 2.38 2.40 2.28 2.01 1.67 1.56 1.46 1.32 1.30 1.19 1.20 1.27 1.03 0.87
1.96 2.02 2.04 1.98 1.85 1.81 1.62 1.31 1.20 1.15 1.30 1.38 1.44 1.44 1.43 1.34 1.35 1.27 1.30 1.37 1.39 1.35 1.34 1.35 1.37 1.50 1.76 2.12 2.31 2.34 2.42 2.33 2.11 1.80 1.59 1.55 1.34 1.26 1.16 1.04 1.07 1.13 0.97
2.14 2.17 2.07 1.93 1.83 1.81 1.74 1.43 1.25 1.18 1.31 1.39 1.48 1.47 1.44 1.37 1.32 1.18 1.14 1.21 1.21 1.21 1.26 1.27 1.26 1.25 1.35 1.65 1.96 1.96 2.03 2.16 1.96 1.73 1.39 1.32 1.25 1.19 1.17 1.02 0.91 0.93 0.95

GEFSMA_prec_meanprecacc_240.txt.gz
Total_Precipitation_Accumulation
2.59 2.54 2.45 2.38 2.20 2.27 2.62 2.88 2.76 2.76 2.66 2.48 2.23 2.04 1.89 1.78 1.70 1.81 1.99 2.16 2.17 2.20 2.37 2.49 2.31 2.08 1.98 1.85 1.67 1.48 1.39 1.36 1.24 1.02 0.91 0.81 0.71 0.71 0.74 0.79 0.77 0.67 0.64
2.97 3.10 2.96 2.79 2.45 2.35 2.41 2.70 2.79 3.00 2.92 2.71 2.11 1.98 1.97 1.97 1.99 1.93 2.10 2.60 2.60 2.23 2.21 2.45 2.61 2.58 2.42 2.22 2.02 1.81 1.67 1.57 1.34 1.09 1.01 0.94 0.83 0.75 0.82 0.90 0.89 0.72 0.59
3.15 3.12 2.94 2.60 2.34 2.33 2.49 2.49 2.52 2.79 2.60 2.46 2.30 2.36 2.34 2.24 2.08 2.04 2.14 2.58 2.59 2.25 2.12 2.15 2.42 2.64 2.75 2.81 2.70 2.58 2.31 1.96 1.61 1.29 1.09 0.96 0.85 0.74 0.74 0.87 0.94 0.83 0.67
2.71 2.80 2.50 2.17 2.23 2.38 2.51 2.67 2.55 2.61 2.63 2.71 2.75 2.72 2.59 2.43 2.02 1.87 1.80 1.90 2.14 1.89 2.02 2.23 2.29 2.35 2.73 3.15 3.31 3.50 3.18 2.51 1.96 1.54 1.28 1.07 0.91 0.77 0.70 0.74 0.84 0.83 0.69
2.08 2.26 2.17 2.12 2.14 2.34 2.38 2.22 2.53 2.74 2.72 2.73 2.58 2.63 2.28 2.14 1.92 1.65 1.60 1.56 1.70 1.84 1.87 1.97 2.07 2.12 2.54 3.23 3.80 4.19 4.06 3.39 2.67 2.17 1.84 1.48 1.24 0.98 0.82 0.77 0.78 0.77 0.69
1.90 2.14 2.12 2.05 2.08 2.25 2.36 2.48 2.75 2.86 2.55 2.49 2.29 2.18 1.89 1.56 1.52 1.48 1.34 1.40 1.51 1.50 1.64 1.84 2.09 1.89 2.33 2.89 3.51 4.12 4.54 4.29 3.50 2.89 2.59 2.29 1.99 1.57 1.15 0.92 0.81 0.78 0.73
2.01 2.25 2.10 2.17 2.04 2.10 2.12 2.23 2.47 2.57 2.22 2.34 2.77 2.35 1.75 1.42 1.42 1.30 1.28 1.37 1.42 1.46 1.65 1.93 2.10 2.17 2.25 2.30 2.57 3.24 4.15 4.58 4.29 3.63 3.23 2.94 2.65 2.16 1.59 1.26 1.05 0.89 0.83
1.95 1.97 2.13 2.01 1.97 2.08 2.07 2.13 2.33 2.33 2.05 2.26 2.72 2.81 2.26 1.89 1.60 1.25 1.23 1.30 1.43 1.64 1.71 1.74 2.12 2.42 2.42 2.76 2.41 2.44 3.17 3.99 4.40 4.19 3.77 3.20 2.82 2.42 2.02 1.75 1.44 1.20 1.04
1.72 1.75 1.77 1.84 1.96 1.76 1.89 2.06 2.21 2.32 2.19 2.12 2.40 2.81 2.58 2.21 1.88 1.52 1.39 1.50 1.65 1.82 1.89 2.04 2.14 2.34 2.49 2.94 2.84 2.64 2.65 2.94 3.75 4.43 4.41 3.72 2.92 2.41 2.24 2.19 2.05 1.68 1.40
1.56 1.58 1.60 1.75 1.84 1.78 1.99 1.73 1.85 2.14 2.35 2.16 2.18 2.23 2.25 2.44 2.42 2.02 1.66 1.55 1.68 1.83 1.91 1.93 2.00 2.26 2.46 2.77 3.09 2.83 2.54 2.36 2.69 3.56 4.21 4.16 3.48 2.73 2.39 2.47 2.80 2.62 2.09
1.54 1.38 1.49 1.64 1.75 1.80 1.88 1.82 1.92 1.91 1.99 2.04 2.12 2.10 2.21 2.41 2.28 2.20 2.01 1.81 1.74 1.60 1.66 1.78 1.94 2.18 2.31 2.55 2.91 2.64 2.52 2.26 2.17 2.46 3.04 3.52 3.62 3.31 3.01 2.99 3.44 3.76 3.53
1.59 1.42 1.46 1.66 1.73 1.77 1.79 1.84 1.85 1.79 1.87 1.97 2.02 2.04 2.20 2.23 2.17 2.26 2.13 1.94 1.84 1.59 1.58 1.64 1.84 1.99 2.05 2.15 2.01 2.01 2.01 2.11 2.04 1.93 2.02 2.31 2.74 3.05 3.14 3.38 3.88 4.40 4.69
1.49 1.49 1.46 1.72 1.81 1.79 1.77 1.86 1.83 1.82 1.93 2.00 2.02 2.06 2.12 2.09 2.10 2.28 2.32 2.05 1.91 1.72 1.80 1.76 1.75 1.90 1.88 2.06 2.01 1.85 1.74 1.84 1.76 1.65 1.57 1.64 1.91 2.30 2.64 2.97 3.42 3.93 4.40
1.44 1.64 1.75 1.77 1.74 1.78 1.79 2.01 1.87 1.89 1.97 2.00 1.92 2.23 2.19 2.06 2.26 2.47 2.63 2.66 2.34 2.11 2.12 1.93 1.76 1.76 1.77 1.82 1.88 1.90 1.77 1.64 1.47 1.39 1.38 1.42 1.50 1.74 2.01 2.29 2.59 2.83 3.07
1.47 1.65 1.80 1.88 1.80 1.78 1.87 2.08 2.03 2.07 2.17 2.08 2.08 2.31 2.26 2.16 2.22 2.29 2.57 2.85 2.88 2.61 2.48 2.27 2.03 1.92 1.84 1.82 1.94 1.78 1.76 1.79 1.55 1.40 1.40 1.39 1.41 1.49 1.53 1.56 1.67 1.77 1.92
1.61 1.68 1.64 1.68 1.68 1.66 1.78 2.09 2.09 2.13 2.30 2.24 2.21 2.25 2.27 2.18 2.25 2.25 2.38 2.72 3.00 3.02 2.73 2.16 2.07 1.98 1.90 1.71 1.84 1.67 1.69 1.84 1.62 1.45 1.34 1.25 1.23 1.24 1.27 1.34 1.45 1.50 1.57
1.69 1.64 1.58 1.62 1.60 1.51 1.58 1.77 1.88 2.07 2.20 2.26 2.24 2.28 2.28 2.39 2.43 2.33 2.43 2.56 2.77 2.94 2.62 2.14 2.20 2.34 2.30 2.09 1.91 1.74 1.62 1.59 1.58 1.55 1.27 1.19 1.19 1.15 1.20 1.29 1.35 1.39 1.46
1.74 1.71 1.66 1.63 1.52 1.50 1.58 1.69 1.83 2.00 2.14 2.25 2.36 2.44 2.24 2.32 2.44 2.38 2.39 2.42 2.53 2.80 2.71 2.56 2.52 2.59 2.51 2.25 2.03 1.77 1.48 1.35 1.41 1.62 1.35 1.19 1.14 1.16 1.20 1.22 1.18 1.17 1.18
1.70 1.75 1.77 1.69 1.64 1.67 1.74 1.79 1.85 1.99 2.11 2.18 2.29 2.28 2.22 2.35 2.27 2.31 2.38 2.37 2.37 2.44 2.56 2.52 2.41 2.49 2.43 2.23 2.04 1.79 1.55 1.52 1.38 1.41 1.33 1.21 1.15 1.13 1.15 1.11 1.06 1.04 1.05
1.55 1.59 1.60 1.68 1.72 1.76 1.80 1.79 1.78 1.81 1.88 1.95 1.94 1.85 1.79 1.85 1.94 2.10 2.11 2.12 2.20 2.27 2.36 2.31 2.28 2.37 2.39 2.42 2.26 1.97 1.81 1.64 1.47 1.26 1.25 1.23 1.22 1.18 1.13 1.06 0.98 0.96 1.00
1.45 1.62 1.65 1.72 1.78 1.75 1.66 1.70 1.69 1.60 1.77 1.74 1.61 1.56 1.57 1.66 1.69 1.77 1.71 1.80 1.98 2.05 2.12 2.21 2.28 2.44 2.47 2.59 2.45 2.17 2.03 1.88 1.60 1.36 1.30 1.22 1.20 1.15 1.14 1.14 1.08 0.99 0.94
1.52 1.61 1.66 1.77 1.81 1.67 1.70 1.72 1.72 1.69 1.74 1.70 1.64 1.57 1.45 1.45 1.44 1.48 1.51 1.57 1.71 1.84 2.01 2.18 2.25 2.34 2.41 2.38 2.34 2.21 2.10 1.93 1.65 1.47 1.58 1.55 1.36 1.33 1.45 1.40 1.30 1.05 0.90
1.59 1.66 1.79 1.85 1.81 1.85 1.75 1.60 1.62 1.60 1.65 1.69 1.71 1.69 1.42 1.25 1.35 1.34 1.46 1.44 1.41 1.47 1.58 1.75 1.87 2.00 2.20 2.28 2.37 2.29 2.28 2.15 1.88 1.62 1.56 1.44 1.36 1.41 1.59 1.73 1.48 1.06 0.95
1.76 1.87 1.89 1.78 1.72 1.76 1.69 1.43 1.35 1.27 1.39 1.50 1.58 1.64 1.62 1.52 1.48 1.49 1.55 1.55 1.48 1.45 1.54 1.54 1.60 1.81 2.14 2.40 2.44 2.40 2.42 2.30 2.01 1.68 1.57 1.47 1.33 1.31 1.20 1.21 1.28 1.03 0.88
1.98 2.03 2.06 2.00 1.87 1.84 1.67 1.36 1.23 1.17 1.31 1.39 1.45 1.45 1.44 1.35 1.36 1.29 1.32 1.39 1.41 1.37 1.35 1.36 1.39 1.52 1.79 2.15 2.33 2.36 2.44 2.34 2.12 1.81 1.60 1.56 1.35 1.27 1.17 1.05 1.07 1.13 0.97
2.16 2.19 2.07 1.94 1.85 1.83 1.77 1.46 1.28 1.20 1.33 1.41 1.50 1.48 1.45 1.38 1.35 1.21 1.16 1.24 1.23 1.23 1.28 1.29 1.28 1.27 1.38 1.67 1.99 1.98 2.05 2.17 1.97 1.74 1.40 1.32 1.26 1.19 1.18 1.03 0.92 0.94 0.95

GEFSMA_prec_meanprecacc_246.txt.gz
Total_Precipitation_Accumulation
2.68 2.63 2.53 2.45 2.26 2.33 2.67 2.92 2.80 2.80 2.69 2.52 2.27 2.07 1.92 1.80 1.73 1.86 2.04 2.19 2.18 2.21 2.41 2.52 2.35 2.11 2.03 1.90 1.71 1.51 1.42 1.40 1.27 1.05 0.93 0.84 0.74 0.74 0.77 0.82 0.82 0.70 0.67
3.08 3.19 3.05 2.88 2.51 2.41 2.46 2.74 2.82 3.02 2.95 2.76 2.17 2.04 2.01 2.00 2.03 1.97 2.15 2.64 2.63 2.25 2.24 2.51 2.67 2.63 2.47 2.29 2.08 1.86 1.72 1.60 1.38 1.12 1.04 0.97 0.85 0.77 0.84 0.93 0.93 0.76 0.62
3.27 3.24 3.05 2.70 2.41 2.38 2.54 2.54 2.55 2.83 2.66 2.52 2.39 2.43 2.39 2.28 2.15 2.09 2.19 2.65 2.65 2.30 2.15 2.20 2.48 2.70 2.81 2.89 2.79 2.68 2.39 2.03 1.66 1.33 1.13 0.99 0.88 0.77 0.77 0.90 0.97 0.87 0.70
2.82 2.90 2.60 2.27 2.30 2.44 2.56 2.73 2.61 2.68 2.73 2.81 2.85 2.80 2.67 2.51 2.08 1.93 1.85 1.97 2.22 1.95 2.07 2.28 2.34 2.41 2.81 3.24 3.40 3.60 3.27 2.61 2.02 1.59 1.33 1.11 0.96 0.81 0.73 0.78 0.89 0.88 0.74
2.16 2.34 2.25 2.20 2.20 2.38 2.43 2.27 2.63 2.84 2.84 2.86 2.67 2.71 2.36 2.22 1.99 1.72 1.68 1.62 1.77 1.92 1.94 2.01 2.11 2.16 2.59 3.30 3.88 4.31 4.17 3.48 2.73 2.23 1.90 1.53 1.30 1.03 0.88 0.83 0.84 0.82 0.73
1.97 2.22 2.19 2.13 2.13 2.32 2.45 2.57 2.86 2.98 2.67 2.61 2.38 2.26 1.98 1.63 1.58 1.55 1.42 1.48 1.59 1.56 1.72 1.92 2.16 1.95 2.38 2.94 3.56 4.20 4.66 4.40 3.59 2.98 2.68 2.37 2.08 1.64 1.21 0.97 0.87 0.83 0.78
2.10 2.35 2.21 2.26 2.10 2.18 2.21 2.32 2.57 2.69 2.34 2.43 2.86 2.46 1.86 1.49 1.48 1.37 1.36 1.45 1.50 1.53 1.74 2.04 2.22 2.27 2.32 2.34 2.62 3.32 4.26 4.72 4.42 3.76 3.35 3.03 2.73 2.23 1.65 1.32 1.11 0.95 0.90
2.03 2.07 2.23 2.09 2.04 2.17 2.17 2.23 2.43 2.43 2.14 2.33 2.80 2.92 2.38 1.99 1.68 1.30 1.29 1.35 1.48 1.70 1.78 1.82 2.22 2.53 2.54 2.87 2.48 2.49 3.21 4.07 4.52 4.32 3.89 3.31 2.90 2.50 2.10 1.83 1.52 1.28 1.12
1.79 1.83 1.86 1.93 2.04 1.84 1.99 2.17 2.30 2.39 2.27 2.20 2.47 2.90 2.69 2.34 1.99 1.60 1.47 1.55 1.70 1.87 1.93 2.09 2.20 2.41 2.61 3.07 2.97 2.71 2.70 2.99 3.84 4.56 4.54 3.84 3.02 2.49 2.31 2.27 2.14 1.76 1.47
1.60 1.63 1.65 1.82 1.90 1.84 2.08 1.81 1.93 2.20 2.41 2.22 2.25 2.30 2.35 2.57 2.54 2.12 1.75 1.63 1.74 1.88 1.96 1.97 2.04 2.31 2.54 2.88 3.20 2.92 2.61 2.42 2.76 3.67 4.33 4.26 3.57 2.81 2.47 2.56 2.90 2.72 2.19
1.56 1.42 1.53 1.69 1.79 1.85 1.94 1.88 1.99 1.96 2.04 2.10 2.18 2.18 2.30 2.51 2.39 2.30 2.10 1.88 1.79 1.64 1.70 1.82 2.00 2.23 2.39 2.65 3.01 2.72 2.58 2.31 2.22 2.52 3.13 3.60 3.67 3.37 3.08 3.07 3.54 3.87 3.63
1.62 1.45 1.49 1.69 1.77 1.81 1.83 1.89 1.90 1.82 1.91 2.02 2.07 2.10 2.28 2.31 2.25 2.34 2.21 2.02 1.91 1.63 1.61 1.69 1.89 2.05 2.12 2.24 2.06 2.04 2.06 2.16 2.09 1.97 2.07 2.37 2.80 3.11 3.21 3.48 3.97 4.50 4.78
1.53 1.52 1.49 1.75 1.84 1.82 1.79 1.88 1.86 1.85 1.97 2.05 2.07 2.11 2.18 2.15 2.17 2.35 2.39 2.14 1.97 1.77 1.84 1.79 1.78 1.93 1.91 2.11 2.05 1.87 1.76 1.87 1.78 1.67 1.60 1.68 1.96 2.36 2.71 3.03 3.47 3.98 4.47
1.46 1.67 1.77 1.79 1.77 1.79 1.81 2.05 1.90 1.92 2.00 2.03 1.95 2.28 2.25 2.11 2.31 2.52 2.69 2.74 2.42 2.18 2.18 1.98 1.79 1.80 1.81 1.86 1.91 1.92 1.79 1.65 1.48 1.40 1.39 1.45 1.55 1.79 2.05 2.32 2.62 2.86 3.11
1.49 1.67 1.82 1.91 1.83 1.79 1.89 2.11 2.07 2.11 2.22 2.12 2.11 2.35 2.31 2.20 2.26 2.33 2.62 2.92 2.96 2.69 2.55 2.32 2.08 1.96 1.87 1.85 1.96 1.80 1.78 1.80 1.56 1.41 1.42 1.42 1.46 1.52 1.55 1.58 1.69 1.79 1.94
1.64 1.70 1.67 1.71 1.71 1.69 1.81 2.12 2.13 2.17 2.34 2.28 2.24 2.28 2.30 2.20 2.28 2.28 2.42 2.78 3.07 3.09 2.79 2.21 2.11 2.01 1.92 1.73 1.85 1.69 1.71 1.85 1.63 1.46 1.36 1.27 1.26 1.27 1.30 1.38 1.50 1.54 1.61
1.72 1.68 1.63 1.66 1.65 1.56 1.63 1.81 1.92 2.10 2.23 2.30 2.27 2.31 2.30 2.42 2.47 2.37 2.46 2.60 2.83 3.02 2.70 2.19 2.25 2.39 2.33 2.11 1.93 1.76 1.64 1.61 1.59 1.57 1.30 1.21 1.22 1.17 1.22 1.30 1.37 1.41 1.48
1.78 1.75 1.71 1.68 1.56 1.55 1.63 1.73 1.86 2.03 2.17 2.28 2.39 2.47 2.27 2.35 2.49 2.43 2.43 2.47 2.59 2.87 2.77 2.62 2.56 2.62 2.53 2.27 2.05 1.79 1.50 1.36 1.42 1.64 1.37 1.20 1.15 1.16 1.20 1.22 1.18 1.17 1.18
1.73 1.78 1.80 1.73 1.68 1.71 1.78 1.83 1.88 2.02 2.14 2.21 2.31 2.31 2.26 2.40 2.31 2.36 2.44 2.42 2.42 2.48 2.61 2.59 2.47 2.52 2.45 2.24 2.06 1.81 1.57 1.53 1.39 1.42 1.34 1.23 1.17 1.14 1.15 1.11 1.06 1.04 1.05
1.59 1.63 1.63 1.71 1.75 1.79 1.82 1.82 1.81 1.84 1.91 1.98 1.98 1.88 1.82 1.89 1.97 2.16 2.16 2.18 2.26 2.32 2.41 2.36 2.33 2.40 2.40 2.43 2.27 1.98 1.83 1.66 1.48 1.27 1.26 1.24 1.23 1.18 1.14 1.07 0.98 0.96 1.00
1.50 1.66 1.68 1.77 1.83 1.79 1.70 1.74 1.72 1.65 1.82 1.77 1.64 1.59 1.60 1.69 1.73 1.82 1.75 1.85 2.03 2.11 2.16 2.24 2.31 2.47 2.48 2.60 2.47 2.19 2.05 1.90 1.63 1.38 1.31 1.23 1.21 1.16 1.15 1.15 1.09 0.99 0.94
1.57 1.66 1.71 1.83 1.86 1.70 1.74 1.75 1.75 1.73 1.79 1.74 1.69 1.61 1.48 1.48 1.47 1.51 1.52 1.58 1.73 1.87 2.05 2.22 2.28 2.38 2.44 2.40 2.36 2.24 2.13 1.96 1.68 1.50 1.60 1.56 1.36 1.34 1.45 1.41 1.31 1.05 0.90
1.65 1.73 1.86 1.91 1.86 1.90 1.79 1.62 1.64 1.63 1.69 1.72 1.75 1.73 1.45 1.28 1.40 1.36 1.49 1.46 1.43 1.48 1.59 1.77 1.90 2.04 2.24 2.33 2.41 2.33 2.33 2.20 1.90 1.64 1.58 1.46 1.37 1.41 1.59 1.73 1.48 1.06 0.95
1.81 1.92 1.95 1.85 1.79 1.81 1.74 1.45 1.36 1.28 1.40 1.51 1.60 1.66 1.65 1.56 1.53 1.53 1.59 1.59 1.51 1.48 1.56 1.56 1.61 1.83 2.17 2.45 2.50 2.45 2.48 2.35 2.05 1.70 1.59 1.49 1.35 1.32 1.21 1.22 1.29 1.04 0.88
2.03 2.09 2.11 2.05 1.93 1.90 1.73 1.39 1.25 1.18 1.32 1.40 1.46 1.47 1.47 1.39 1.43 1.34 1.36 1.44 1.45 1.39 1.37 1.38 1.40 1.54 1.81 2.17 2.37 2.41 2.49 2.39 2.16 1.84 1.63 1.58 1.37 1.28 1.18 1.06 1.08 1.14 0.98
2.21 2.23 2.12 1.99 1.89 1.88 1.82 1.50 1.31 1.22 1.35 1.42 1.52 1.50 1.48 1.41 1.39 1.25 1.20 1.27 1.26 1.27 1.33 1.33 1.30 1.29 1.39 1.69 2.01 2.01 2.09 2.22 2.02 1.78 1.43 1.35 1.28 1.21 1.20 1.04 0.93 0.95 0.96

GEFSMA_prec_meanprecacc_252.txt.gz
Total_Precipitation_Accumulation
2.72 2.68 2.59 2.52 2.33 2.38 2.71 2.95 2.83 2.83 2.73 2.55 2.31 2.11 1.97 1.90 1.83 1.96 2.09 2.23 2.22 2.25 2.44 2.57 2.39 2.16 2.07 1.94 1.76 1.55 1.46 1.43 1.29 1.06 0.95 0.86 0.76 0.76 0.78 0.83 0.83 0.72 0.69
3.12 3.25 3.10 2.94 2.56 2.44 2.51 2.77 2.84 3.04 2.98 2.79 2.22 2.09 2.05 2.05 2.10 2.04 2.19 2.69 2.70 2.33 2.33 2.60 2.76 2.70 2.54 2.35 2.14 1.92 1.78 1.67 1.42 1.15 1.06 1.00 0.88 0.79 0.86 0.96 0.95 0.78 0.63
3.33 3.29 3.10 2.76 2.45 2.42 2.59 2.58 2.59 2.85 2.68 2.56 2.45 2.48 2.43 2.33 2.21 2.18 2.28 2.75 2.74 2.38 2.23 2.28 2.56 2.78 2.89 2.98 2.87 2.75 2.47 2.11 1.74 1.39 1.17 1.02 0.91 0.79 0.80 0.93 1.01 0.90 0.72
2.87 2.94 2.64 2.32 2.34 2.47 2.58 2.75 2.64 2.72 2.76 2.85 2.90 2.86 2.71 2.56 2.14 2.01 1.93 2.05 2.32 2.02 2.13 2.34 2.41 2.49 2.88 3.32 3.49 3.69 3.38 2.71 2.11 1.67 1.39 1.16 1.00 0.85 0.77 0.82 0.93 0.92 0.78
2.20 2.37 2.30 2.25 2.23 2.41 2.45 2.30 2.66 2.89 2.90 2.92 2.72 2.76 2.40 2.26 2.04 1.80 1.77 1.72 1.87 1.99 1.99 2.06 2.17 2.22 2.65 3.35 3.95 4.42 4.28 3.58 2.81 2.30 1.96 1.59 1.35 1.07 0.91 0.87 0.88 0.87 0.78
2.00 2.25 2.23 2.16 2.16 2.35 2.48 2.60 2.89 3.01 2.71 2.65 2.42 2.30 2.02 1.66 1.62 1.61 1.49 1.55 1.68 1.66 1.80 1.98 2.21 2.02 2.45 3.00 3.64 4.31 4.79 4.52 3.68 3.06 2.75 2.43 2.14 1.69 1.25 1.02 0.91 0.88 0.83
2.14 2.39 2.25 2.29 2.12 2.21 2.24 2.34 2.59 2.71 2.35 2.46 2.93 2.52 1.92 1.54 1.54 1.43 1.42 1.50 1.56 1.63 1.85 2.14 2.34 2.39 2.43 2.43 2.69 3.40 4.37 4.85 4.55 3.86 3.45 3.14 2.83 2.30 1.70 1.37 1.17 1.00 0.94
2.08 2.11 2.27 2.12 2.06 2.19 2.19 2.25 2.46 2.45 2.16 2.36 2.87 2.99 2.44 2.04 1.73 1.38 1.36 1.41 1.55 1.78 1.88 1.93 2.33 2.62 2.61 2.93 2.56 2.58 3.31 4.19 4.66 4.45 4.02 3.45 3.02 2.58 2.16 1.90 1.59 1.34 1.17
1.84 1.88 1.89 1.96 2.06 1.86 2.01 2.19 2.32 2.41 2.29 2.23 2.50 2.95 2.73 2.37 2.02 1.64 1.51 1.60 1.80 1.95 2.01 2.15 2.25 2.47 2.66 3.12 3.01 2.77 2.76 3.07 3.96 4.72 4.72 4.02 3.15 2.59 2.38 2.33 2.20 1.82 1.53
1.65 1.68 1.69 1.84 1.92 1.86 2.10 1.83 1.95 2.21 2.43 2.25 2.27 2.33 2.39 2.61 2.57 2.14 1.78 1.66 1.77 1.91 1.99 2.00 2.06 2.34 2.58 2.92 3.22 2.94 2.65 2.49 2.84 3.78 4.50 4.41 3.69 2.89 2.54 2.63 2.97 2.80 2.25
1.61 1.46 1.57 1.73 1.83 1.88 1.96 1.90 2.02 1.98 2.05 2.11 2.20 2.20 2.34 2.57 2.42 2.33 2.13 1.90 1.81 1.66 1.72 1.84 2.02 2.26 2.42 2.68 3.03 2.74 2.61 2.35 2.27 2.59 3.25 3.74 3.78 3.46 3.16 3.15 3.63 3.97 3.72
1.66 1.49 1.52 1.73 1.81 1.84 1.86 1.91 1.92 1.85 1.93 2.04 2.09 2.12 2.30 2.34 2.28 2.37 2.23 2.05 1.94 1.67 1.65 1.72 1.93 2.09 2.17 2.28 2.09 2.07 2.09 2.19 2.12 2.01 2.13 2.47 2.91 3.22 3.31 3.59 4.09 4.61 4.90
1.55 1.54 1.51 1.78 1.88 1.84 1.81 1.91 1.90 1.89 2.00 2.07 2.10 2.14 2.20 2.16 2.19 2.37 2.42 2.16 2.00 1.80 1.87 1.83 1.83 1.97 1.97 2.18 2.08 1.89 1.79 1.90 1.81 1.70 1.64 1.75 2.05 2.44 2.79 3.11 3.54 4.08 4.58
1.48 1.68 1.79 1.82 1.80 1.82 1.83 2.07 1.93 1.94 2.03 2.06 1.98 2.31 2.28 2.12 2.34 2.56 2.72 2.77 2.45 2.22 2.21 2.01 1.84 1.83 1.85 1.92 1.95 1.95 1.81 1.67 1.51 1.44 1.43 1.50 1.60 1.86 2.13 2.38 2.68 2.94 3.19
1.52 1.69 1.84 1.94 1.86 1.82 1.92 2.13 2.09 2.13 2.24 2.15 2.14 2.39 2.34 2.22 2.29 2.38 2.66 2.95 3.00 2.72 2.57 2.35 2.11 1.98 1.90 1.90 2.01 1.83 1.80 1.81 1.57 1.42 1.44 1.45 1.52 1.61 1.64 1.63 1.75 1.86 2.00
1.68 1.75 1.71 1.75 1.75 1.72 1.84 2.14 2.15 2.19 2.38 2.33 2.29 2.32 2.33 2.22 2.31 2.32 2.45 2.81 3.10 3.13 2.83 2.23 2.14 2.04 1.95 1.76 1.88 1.70 1.72 1.86 1.64 1.47 1.37 1.29 1.29 1.33 1.35 1.42 1.53 1.57 1.63
1.76 1.72 1.67 1.70 1.68 1.58 1.64 1.83 1.94 2.13 2.27 2.34 2.31 2.34 2.33 2.45 2.51 2.41 2.51 2.63 2.87 3.06 2.72 2.21 2.27 2.42 2.37 2.14 1.95 1.77 1.65 1.61 1.60 1.58 1.31 1.22 1.23 1.20 1.26 1.34 1.39 1.42 1.49
1.81 1.79 1.74 1.71 1.58 1.57 1.66 1.75 1.89 2.06 2.21 2.31 2.41 2.50 2.29 2.39 2.52 2.47 2.48 2.50 2.62 2.91 2.80 2.64 2.58 2.65 2.56 2.30 2.07 1.80 1.50 1.37 1.42 1.64 1.37 1.21 1.15 1.17 1.22 1.25 1.21 1.19 1.19
1.80 1.85 1.85 1.77 1.71 1.74 1.82 1.86 1.91 2.04 2.16 2.24 2.34 2.35 2.31 2.44 2.34 2.41 2.50 2.46 2.46 2.52 2.64 2.61 2.49 2.55 2.47 2.27 2.08 1.82 1.58 1.54 1.39 1.42 1.35 1.23 1.17 1.15 1.16 1.13 1.08 1.06 1.07
1.72 1.72 1.70 1.78 1.83 1.86 1.88 1.87 1.86 1.88 1.95 2.03 2.03 1.95 1.90 1.95 2.03 2.22 2.22 2.23 2.31 2.38 2.46 2.40 2.37 2.43 2.43 2.46 2.29 1.99 1.84 1.67 1.49 1.28 1.27 1.25 1.24 1.19 1.15 1.10 1.00 0.98 1.01
1.56 1.71 1.74 1.84 1.91 1.88 1.77 1.81 1.81 1.73 1.88 1.84 1.71 1.66 1.67 1.76 1.78 1.87 1.79 1.90 2.09 2.16 2.21 2.28 2.35 2.50 2.50 2.62 2.48 2.20 2.05 1.91 1.64 1.39 1.33 1.24 1.22 1.17 1.16 1.17 1.11 1.01 0.94
1.61 1.70 1.76 1.88 1.94 1.79 1.84 1.86 1.86 1.83 1.85 1.80 1.75 1.69 1.55 1.54 1.53 1.56 1.57 1.62 1.78 1.92 2.09 2.25 2.31 2.40 2.46 2.41 2.37 2.25 2.14 1.97 1.69 1.51 1.61 1.58 1.38 1.35 1.47 1.42 1.32 1.06 0.91
1.68 1.77 1.91 1.97 1.94 2.02 1.94 1.77 1.75 1.70 1.75 1.78 1.82 1.79 1.51 1.33 1.45 1.41 1.53 1.51 1.48 1.53 1.63 1.80 1.92 2.05 2.26 2.34 2.42 2.34 2.34 2.21 1.91 1.65 1.59 1.48 1.39 1.43 1.61 1.75 1.49 1.07 0.95
1.85 1.96 2.00 1.92 1.88 1.95 1.89 1.55 1.43 1.34 1.47 1.58 1.65 1.72 1.71 1.60 1.57 1.57 1.62 1.62 1.55 1.52 1.61 1.60 1.64 1.85 2.19 2.48 2.52 2.47 2.50 2.37 2.06 1.71 1.60 1.51 1.37 1.34 1.22 1.23 1.30 1.05 0.89
2.10 2.16 2.19 2.13 1.99 1.97 1.81 1.45 1.29 1.22 1.36 1.45 1.51 1.51 1.52 1.44 1.48 1.39 1.40 1.47 1.47 1.42 1.41 1.42 1.44 1.56 1.83 2.20 2.40 2.43 2.51 2.41 2.17 1.85 1.64 1.59 1.39 1.30 1.19 1.07 1.09 1.16 0.99
2.27 2.28 2.17 2.03 1.92 1.91 1.88 1.55 1.34 1.25 1.37 1.46 1.57 1.54 1.52 1.47 1.45 1.29 1.23 1.30 1.28 1.28 1.36 1.36 1.33 1.33 1.42 1.72 2.04 2.03 2.11 2.24 2.03 1.79 1.44 1.36 1.30 1.23 1.21 1.05 0.94 0.96 0.98